<?xml version="1.0" encoding="UTF-8" standalone="no" ?>
<gpx xmlns="http://www.topografix.com/GPX/1/1" xmlns:xsi="http://www.w3.org/2001/XMLSchema-instance" xsi:schemaLocation="http://www.topografix.com/GPX/1/1 http://www.topografix.com/GPX/1/1/gpx.xsd" version="1.1" creator="VisuGPX - https://www.visugpx.com">
  <metadata>
    <name>15017432-CCC Parcours moyen - 09/22</name>
  </metadata>
  <trk>
    <name><![CDATA[15017432-CCC Parcours moyen - 09/22]]></name>
    <extensions>
      <line xmlns="http://www.topografix.com/GPX/gpx_style/0/2">
        <color>0000FF</color>
        <width>4</width>
      </line>
    </extensions>
    <trkseg>
      <trkpt lat="45.46756" lon="4.35346">
        <ele>479</ele>
        <time>2022-09-08T09:37:19Z</time>
      </trkpt>
      <trkpt lat="45.46716" lon="4.35343">
        <ele>481</ele>
        <time>2022-09-08T09:37:26Z</time>
      </trkpt>
      <trkpt lat="45.46694" lon="4.35336">
        <ele>482</ele>
        <time>2022-09-08T09:37:30Z</time>
      </trkpt>
      <trkpt lat="45.46642" lon="4.35312">
        <ele>485</ele>
        <time>2022-09-08T09:37:40Z</time>
      </trkpt>
      <trkpt lat="45.46638" lon="4.35307">
        <ele>485</ele>
        <time>2022-09-08T09:37:41Z</time>
      </trkpt>
      <trkpt lat="45.46637" lon="4.353">
        <ele>485</ele>
        <time>2022-09-08T09:37:42Z</time>
      </trkpt>
      <trkpt lat="45.46638" lon="4.35277">
        <ele>485</ele>
        <time>2022-09-08T09:37:45Z</time>
      </trkpt>
      <trkpt lat="45.46632" lon="4.35272">
        <ele>485</ele>
        <time>2022-09-08T09:37:46Z</time>
      </trkpt>
      <trkpt lat="45.46611" lon="4.35266">
        <ele>485</ele>
        <time>2022-09-08T09:37:50Z</time>
      </trkpt>
      <trkpt lat="45.46606" lon="4.35261">
        <ele>486</ele>
        <time>2022-09-08T09:37:51Z</time>
      </trkpt>
      <trkpt lat="45.46604" lon="4.35255">
        <ele>486</ele>
        <time>2022-09-08T09:37:52Z</time>
      </trkpt>
      <trkpt lat="45.46614" lon="4.35187">
        <ele>485</ele>
        <time>2022-09-08T09:38:00Z</time>
      </trkpt>
      <trkpt lat="45.46657" lon="4.35201">
        <ele>483</ele>
        <time>2022-09-08T09:38:08Z</time>
      </trkpt>
      <trkpt lat="45.46688" lon="4.35207">
        <ele>482</ele>
        <time>2022-09-08T09:38:14Z</time>
      </trkpt>
      <trkpt lat="45.46673" lon="4.35187">
        <ele>482</ele>
        <time>2022-09-08T09:38:17Z</time>
      </trkpt>
      <trkpt lat="45.46666" lon="4.35167">
        <ele>481</ele>
        <time>2022-09-08T09:38:20Z</time>
      </trkpt>
      <trkpt lat="45.46659" lon="4.35099">
        <ele>475</ele>
        <time>2022-09-08T09:38:29Z</time>
      </trkpt>
      <trkpt lat="45.4665" lon="4.35065">
        <ele>473</ele>
        <time>2022-09-08T09:38:33Z</time>
      </trkpt>
      <trkpt lat="45.46556" lon="4.34867">
        <ele>482</ele>
        <time>2022-09-08T09:39:03Z</time>
      </trkpt>
      <trkpt lat="45.46521" lon="4.34768">
        <ele>482</ele>
        <time>2022-09-08T09:39:17Z</time>
      </trkpt>
      <trkpt lat="45.46512" lon="4.34751">
        <ele>481</ele>
        <time>2022-09-08T09:39:20Z</time>
      </trkpt>
      <trkpt lat="45.46502" lon="4.34738">
        <ele>481</ele>
        <time>2022-09-08T09:39:22Z</time>
      </trkpt>
      <trkpt lat="45.46482" lon="4.3472">
        <ele>481</ele>
        <time>2022-09-08T09:39:26Z</time>
      </trkpt>
      <trkpt lat="45.46465" lon="4.34692">
        <ele>480</ele>
        <time>2022-09-08T09:39:31Z</time>
      </trkpt>
      <trkpt lat="45.46453" lon="4.34677">
        <ele>480</ele>
        <time>2022-09-08T09:39:34Z</time>
      </trkpt>
      <trkpt lat="45.46417" lon="4.3464">
        <ele>482</ele>
        <time>2022-09-08T09:39:41Z</time>
      </trkpt>
      <trkpt lat="45.46396" lon="4.34604">
        <ele>484</ele>
        <time>2022-09-08T09:39:47Z</time>
      </trkpt>
      <trkpt lat="45.46388" lon="4.34585">
        <ele>485</ele>
        <time>2022-09-08T09:39:50Z</time>
      </trkpt>
      <trkpt lat="45.46388" lon="4.34566">
        <ele>486</ele>
        <time>2022-09-08T09:39:52Z</time>
      </trkpt>
      <trkpt lat="45.46401" lon="4.34492">
        <ele>489</ele>
        <time>2022-09-08T09:40:02Z</time>
      </trkpt>
      <trkpt lat="45.464" lon="4.34483">
        <ele>490</ele>
        <time>2022-09-08T09:40:03Z</time>
      </trkpt>
      <trkpt lat="45.46398" lon="4.34474">
        <ele>490</ele>
        <time>2022-09-08T09:40:04Z</time>
      </trkpt>
      <trkpt lat="45.46391" lon="4.34465">
        <ele>490</ele>
        <time>2022-09-08T09:40:06Z</time>
      </trkpt>
      <trkpt lat="45.46361" lon="4.34447">
        <ele>492</ele>
        <time>2022-09-08T09:40:12Z</time>
      </trkpt>
      <trkpt lat="45.46351" lon="4.34436">
        <ele>493</ele>
        <time>2022-09-08T09:40:14Z</time>
      </trkpt>
      <trkpt lat="45.46344" lon="4.34417">
        <ele>494</ele>
        <time>2022-09-08T09:40:17Z</time>
      </trkpt>
      <trkpt lat="45.46341" lon="4.34399">
        <ele>495</ele>
        <time>2022-09-08T09:40:19Z</time>
      </trkpt>
      <trkpt lat="45.46342" lon="4.34343">
        <ele>497</ele>
        <time>2022-09-08T09:40:26Z</time>
      </trkpt>
      <trkpt lat="45.46339" lon="4.34312">
        <ele>497</ele>
        <time>2022-09-08T09:40:30Z</time>
      </trkpt>
      <trkpt lat="45.46334" lon="4.34297">
        <ele>496</ele>
        <time>2022-09-08T09:40:32Z</time>
      </trkpt>
      <trkpt lat="45.46306" lon="4.34244">
        <ele>493</ele>
        <time>2022-09-08T09:40:40Z</time>
      </trkpt>
      <trkpt lat="45.46301" lon="4.34228">
        <ele>491</ele>
        <time>2022-09-08T09:40:42Z</time>
      </trkpt>
      <trkpt lat="45.46305" lon="4.34186">
        <ele>486</ele>
        <time>2022-09-08T09:40:48Z</time>
      </trkpt>
      <trkpt lat="45.46304" lon="4.34177">
        <ele>485</ele>
        <time>2022-09-08T09:40:49Z</time>
      </trkpt>
      <trkpt lat="45.46298" lon="4.34171">
        <ele>484</ele>
        <time>2022-09-08T09:40:50Z</time>
      </trkpt>
      <trkpt lat="45.46292" lon="4.3417">
        <ele>483</ele>
        <time>2022-09-08T09:40:51Z</time>
      </trkpt>
      <trkpt lat="45.46285" lon="4.34174">
        <ele>483</ele>
        <time>2022-09-08T09:40:53Z</time>
      </trkpt>
      <trkpt lat="45.46243" lon="4.34207">
        <ele>485</ele>
        <time>2022-09-08T09:41:01Z</time>
      </trkpt>
      <trkpt lat="45.46231" lon="4.34214">
        <ele>485</ele>
        <time>2022-09-08T09:41:03Z</time>
      </trkpt>
      <trkpt lat="45.46077" lon="4.34245">
        <ele>476</ele>
        <time>2022-09-08T09:41:31Z</time>
      </trkpt>
      <trkpt lat="45.46028" lon="4.34247">
        <ele>473</ele>
        <time>2022-09-08T09:41:40Z</time>
      </trkpt>
      <trkpt lat="45.46004" lon="4.34254">
        <ele>472</ele>
        <time>2022-09-08T09:41:44Z</time>
      </trkpt>
      <trkpt lat="45.45983" lon="4.34263">
        <ele>471</ele>
        <time>2022-09-08T09:41:48Z</time>
      </trkpt>
      <trkpt lat="45.45964" lon="4.34275">
        <ele>471</ele>
        <time>2022-09-08T09:41:52Z</time>
      </trkpt>
      <trkpt lat="45.45931" lon="4.34303">
        <ele>469</ele>
        <time>2022-09-08T09:41:59Z</time>
      </trkpt>
      <trkpt lat="45.45911" lon="4.34313">
        <ele>468</ele>
        <time>2022-09-08T09:42:02Z</time>
      </trkpt>
      <trkpt lat="45.45885" lon="4.3432">
        <ele>468</ele>
        <time>2022-09-08T09:42:07Z</time>
      </trkpt>
      <trkpt lat="45.45845" lon="4.34319">
        <ele>467</ele>
        <time>2022-09-08T09:42:14Z</time>
      </trkpt>
      <trkpt lat="45.45799" lon="4.34306">
        <ele>468</ele>
        <time>2022-09-08T09:42:23Z</time>
      </trkpt>
      <trkpt lat="45.45692" lon="4.34269">
        <ele>469</ele>
        <time>2022-09-08T09:42:42Z</time>
      </trkpt>
      <trkpt lat="45.45663" lon="4.34253">
        <ele>469</ele>
        <time>2022-09-08T09:42:48Z</time>
      </trkpt>
      <trkpt lat="45.45577" lon="4.34188">
        <ele>470</ele>
        <time>2022-09-08T09:43:05Z</time>
      </trkpt>
      <trkpt lat="45.45545" lon="4.34171">
        <ele>470</ele>
        <time>2022-09-08T09:43:11Z</time>
      </trkpt>
      <trkpt lat="45.45527" lon="4.34168">
        <ele>470</ele>
        <time>2022-09-08T09:43:14Z</time>
      </trkpt>
      <trkpt lat="45.45421" lon="4.34193">
        <ele>474</ele>
        <time>2022-09-08T09:43:33Z</time>
      </trkpt>
      <trkpt lat="45.45394" lon="4.34205">
        <ele>475</ele>
        <time>2022-09-08T09:43:38Z</time>
      </trkpt>
      <trkpt lat="45.45314" lon="4.34256">
        <ele>475</ele>
        <time>2022-09-08T09:43:54Z</time>
      </trkpt>
      <trkpt lat="45.4526" lon="4.34295">
        <ele>474</ele>
        <time>2022-09-08T09:44:05Z</time>
      </trkpt>
      <trkpt lat="45.45259" lon="4.34278">
        <ele>474</ele>
        <time>2022-09-08T09:44:07Z</time>
      </trkpt>
      <trkpt lat="45.45269" lon="4.34255">
        <ele>473</ele>
        <time>2022-09-08T09:44:10Z</time>
      </trkpt>
      <trkpt lat="45.45276" lon="4.34225">
        <ele>473</ele>
        <time>2022-09-08T09:44:14Z</time>
      </trkpt>
      <trkpt lat="45.45276" lon="4.34173">
        <ele>473</ele>
        <time>2022-09-08T09:44:21Z</time>
      </trkpt>
      <trkpt lat="45.45284" lon="4.34129">
        <ele>476</ele>
        <time>2022-09-08T09:44:26Z</time>
      </trkpt>
      <trkpt lat="45.4532" lon="4.34065">
        <ele>480</ele>
        <time>2022-09-08T09:44:37Z</time>
      </trkpt>
      <trkpt lat="45.45337" lon="4.34045">
        <ele>483</ele>
        <time>2022-09-08T09:44:41Z</time>
      </trkpt>
      <trkpt lat="45.45346" lon="4.34037">
        <ele>484</ele>
        <time>2022-09-08T09:44:42Z</time>
      </trkpt>
      <trkpt lat="45.45358" lon="4.34031">
        <ele>485</ele>
        <time>2022-09-08T09:44:45Z</time>
      </trkpt>
      <trkpt lat="45.45566" lon="4.33932">
        <ele>491</ele>
        <time>2022-09-08T09:45:24Z</time>
      </trkpt>
      <trkpt lat="45.45653" lon="4.33919">
        <ele>489</ele>
        <time>2022-09-08T09:45:39Z</time>
      </trkpt>
      <trkpt lat="45.4567" lon="4.33911">
        <ele>490</ele>
        <time>2022-09-08T09:45:42Z</time>
      </trkpt>
      <trkpt lat="45.45683" lon="4.33898">
        <ele>491</ele>
        <time>2022-09-08T09:45:45Z</time>
      </trkpt>
      <trkpt lat="45.45687" lon="4.33819">
        <ele>501</ele>
        <time>2022-09-08T09:45:55Z</time>
      </trkpt>
      <trkpt lat="45.45697" lon="4.33794">
        <ele>503</ele>
        <time>2022-09-08T09:45:59Z</time>
      </trkpt>
      <trkpt lat="45.45718" lon="4.33777">
        <ele>505</ele>
        <time>2022-09-08T09:46:03Z</time>
      </trkpt>
      <trkpt lat="45.45737" lon="4.33777">
        <ele>506</ele>
        <time>2022-09-08T09:46:06Z</time>
      </trkpt>
      <trkpt lat="45.45787" lon="4.33785">
        <ele>504</ele>
        <time>2022-09-08T09:46:15Z</time>
      </trkpt>
      <trkpt lat="45.45812" lon="4.33785">
        <ele>504</ele>
        <time>2022-09-08T09:46:20Z</time>
      </trkpt>
      <trkpt lat="45.45832" lon="4.33776">
        <ele>505</ele>
        <time>2022-09-08T09:46:24Z</time>
      </trkpt>
      <trkpt lat="45.45852" lon="4.33756">
        <ele>506</ele>
        <time>2022-09-08T09:46:28Z</time>
      </trkpt>
      <trkpt lat="45.45877" lon="4.33714">
        <ele>510</ele>
        <time>2022-09-08T09:46:35Z</time>
      </trkpt>
      <trkpt lat="45.45889" lon="4.33685">
        <ele>512</ele>
        <time>2022-09-08T09:46:39Z</time>
      </trkpt>
      <trkpt lat="45.45898" lon="4.33614">
        <ele>518</ele>
        <time>2022-09-08T09:46:48Z</time>
      </trkpt>
      <trkpt lat="45.45904" lon="4.33595">
        <ele>518</ele>
        <time>2022-09-08T09:46:51Z</time>
      </trkpt>
      <trkpt lat="45.4592" lon="4.33563">
        <ele>519</ele>
        <time>2022-09-08T09:46:56Z</time>
      </trkpt>
      <trkpt lat="45.45949" lon="4.33517">
        <ele>520</ele>
        <time>2022-09-08T09:47:03Z</time>
      </trkpt>
      <trkpt lat="45.45953" lon="4.33498">
        <ele>521</ele>
        <time>2022-09-08T09:47:06Z</time>
      </trkpt>
      <trkpt lat="45.45954" lon="4.33478">
        <ele>523</ele>
        <time>2022-09-08T09:47:08Z</time>
      </trkpt>
      <trkpt lat="45.45934" lon="4.33428">
        <ele>530</ele>
        <time>2022-09-08T09:47:15Z</time>
      </trkpt>
      <trkpt lat="45.45933" lon="4.33405">
        <ele>532</ele>
        <time>2022-09-08T09:47:18Z</time>
      </trkpt>
      <trkpt lat="45.45944" lon="4.33365">
        <ele>534</ele>
        <time>2022-09-08T09:47:24Z</time>
      </trkpt>
      <trkpt lat="45.45977" lon="4.33327">
        <ele>532</ele>
        <time>2022-09-08T09:47:31Z</time>
      </trkpt>
      <trkpt lat="45.45993" lon="4.33314">
        <ele>531</ele>
        <time>2022-09-08T09:47:34Z</time>
      </trkpt>
      <trkpt lat="45.46045" lon="4.33235">
        <ele>540</ele>
        <time>2022-09-08T09:47:48Z</time>
      </trkpt>
      <trkpt lat="45.46061" lon="4.33229">
        <ele>541</ele>
        <time>2022-09-08T09:47:51Z</time>
      </trkpt>
      <trkpt lat="45.46087" lon="4.33234">
        <ele>538</ele>
        <time>2022-09-08T09:47:56Z</time>
      </trkpt>
      <trkpt lat="45.4612" lon="4.33247">
        <ele>537</ele>
        <time>2022-09-08T09:48:02Z</time>
      </trkpt>
      <trkpt lat="45.46154" lon="4.33255">
        <ele>537</ele>
        <time>2022-09-08T09:48:08Z</time>
      </trkpt>
      <trkpt lat="45.46177" lon="4.3325">
        <ele>538</ele>
        <time>2022-09-08T09:48:12Z</time>
      </trkpt>
      <trkpt lat="45.462" lon="4.33234">
        <ele>537</ele>
        <time>2022-09-08T09:48:17Z</time>
      </trkpt>
      <trkpt lat="45.46209" lon="4.33221">
        <ele>537</ele>
        <time>2022-09-08T09:48:19Z</time>
      </trkpt>
      <trkpt lat="45.46215" lon="4.33209">
        <ele>537</ele>
        <time>2022-09-08T09:48:21Z</time>
      </trkpt>
      <trkpt lat="45.46217" lon="4.33194">
        <ele>538</ele>
        <time>2022-09-08T09:48:23Z</time>
      </trkpt>
      <trkpt lat="45.46213" lon="4.33168">
        <ele>541</ele>
        <time>2022-09-08T09:48:26Z</time>
      </trkpt>
      <trkpt lat="45.46209" lon="4.33158">
        <ele>541</ele>
        <time>2022-09-08T09:48:27Z</time>
      </trkpt>
      <trkpt lat="45.46146" lon="4.33085">
        <ele>548</ele>
        <time>2022-09-08T09:48:42Z</time>
      </trkpt>
      <trkpt lat="45.46115" lon="4.32971">
        <ele>556</ele>
        <time>2022-09-08T09:48:57Z</time>
      </trkpt>
      <trkpt lat="45.46115" lon="4.3294">
        <ele>558</ele>
        <time>2022-09-08T09:49:01Z</time>
      </trkpt>
      <trkpt lat="45.46127" lon="4.329">
        <ele>559</ele>
        <time>2022-09-08T09:49:06Z</time>
      </trkpt>
      <trkpt lat="45.4615" lon="4.32847">
        <ele>561</ele>
        <time>2022-09-08T09:49:14Z</time>
      </trkpt>
      <trkpt lat="45.46155" lon="4.32816">
        <ele>563</ele>
        <time>2022-09-08T09:49:18Z</time>
      </trkpt>
      <trkpt lat="45.46152" lon="4.3276">
        <ele>568</ele>
        <time>2022-09-08T09:49:25Z</time>
      </trkpt>
      <trkpt lat="45.46157" lon="4.32739">
        <ele>569</ele>
        <time>2022-09-08T09:49:28Z</time>
      </trkpt>
      <trkpt lat="45.46171" lon="4.32708">
        <ele>568</ele>
        <time>2022-09-08T09:49:32Z</time>
      </trkpt>
      <trkpt lat="45.46199" lon="4.3266">
        <ele>569</ele>
        <time>2022-09-08T09:49:40Z</time>
      </trkpt>
      <trkpt lat="45.462" lon="4.32649">
        <ele>569</ele>
        <time>2022-09-08T09:49:42Z</time>
      </trkpt>
      <trkpt lat="45.46197" lon="4.32639">
        <ele>570</ele>
        <time>2022-09-08T09:49:43Z</time>
      </trkpt>
      <trkpt lat="45.4628" lon="4.32503">
        <ele>574</ele>
        <time>2022-09-08T09:50:05Z</time>
      </trkpt>
      <trkpt lat="45.46443" lon="4.32223">
        <ele>575</ele>
        <time>2022-09-08T09:50:51Z</time>
      </trkpt>
      <trkpt lat="45.46451" lon="4.32212">
        <ele>575</ele>
        <time>2022-09-08T09:50:53Z</time>
      </trkpt>
      <trkpt lat="45.46481" lon="4.32185">
        <ele>574</ele>
        <time>2022-09-08T09:50:59Z</time>
      </trkpt>
      <trkpt lat="45.46494" lon="4.32179">
        <ele>574</ele>
        <time>2022-09-08T09:51:02Z</time>
      </trkpt>
      <trkpt lat="45.46506" lon="4.32184">
        <ele>574</ele>
        <time>2022-09-08T09:51:04Z</time>
      </trkpt>
      <trkpt lat="45.46517" lon="4.32178">
        <ele>573</ele>
        <time>2022-09-08T09:51:06Z</time>
      </trkpt>
      <trkpt lat="45.46521" lon="4.32172">
        <ele>572</ele>
        <time>2022-09-08T09:51:07Z</time>
      </trkpt>
      <trkpt lat="45.46524" lon="4.32156">
        <ele>572</ele>
        <time>2022-09-08T09:51:09Z</time>
      </trkpt>
      <trkpt lat="45.46521" lon="4.32144">
        <ele>572</ele>
        <time>2022-09-08T09:51:11Z</time>
      </trkpt>
      <trkpt lat="45.46515" lon="4.32135">
        <ele>572</ele>
        <time>2022-09-08T09:51:12Z</time>
      </trkpt>
      <trkpt lat="45.4651" lon="4.32132">
        <ele>572</ele>
        <time>2022-09-08T09:51:13Z</time>
      </trkpt>
      <trkpt lat="45.46502" lon="4.32132">
        <ele>573</ele>
        <time>2022-09-08T09:51:15Z</time>
      </trkpt>
      <trkpt lat="45.46482" lon="4.32125">
        <ele>573</ele>
        <time>2022-09-08T09:51:18Z</time>
      </trkpt>
      <trkpt lat="45.46439" lon="4.32107">
        <ele>572</ele>
        <time>2022-09-08T09:51:26Z</time>
      </trkpt>
      <trkpt lat="45.46416" lon="4.32093">
        <ele>571</ele>
        <time>2022-09-08T09:51:31Z</time>
      </trkpt>
      <trkpt lat="45.46292" lon="4.31996">
        <ele>567</ele>
        <time>2022-09-08T09:51:56Z</time>
      </trkpt>
      <trkpt lat="45.4628" lon="4.3198">
        <ele>567</ele>
        <time>2022-09-08T09:51:59Z</time>
      </trkpt>
      <trkpt lat="45.46257" lon="4.31938">
        <ele>565</ele>
        <time>2022-09-08T09:52:05Z</time>
      </trkpt>
      <trkpt lat="45.46245" lon="4.31911">
        <ele>565</ele>
        <time>2022-09-08T09:52:09Z</time>
      </trkpt>
      <trkpt lat="45.46219" lon="4.31841">
        <ele>566</ele>
        <time>2022-09-08T09:52:19Z</time>
      </trkpt>
      <trkpt lat="45.46177" lon="4.31717">
        <ele>565</ele>
        <time>2022-09-08T09:52:36Z</time>
      </trkpt>
      <trkpt lat="45.46162" lon="4.31643">
        <ele>561</ele>
        <time>2022-09-08T09:52:46Z</time>
      </trkpt>
      <trkpt lat="45.46158" lon="4.31594">
        <ele>559</ele>
        <time>2022-09-08T09:52:52Z</time>
      </trkpt>
      <trkpt lat="45.46138" lon="4.31557">
        <ele>560</ele>
        <time>2022-09-08T09:52:58Z</time>
      </trkpt>
      <trkpt lat="45.46121" lon="4.31538">
        <ele>562</ele>
        <time>2022-09-08T09:53:02Z</time>
      </trkpt>
      <trkpt lat="45.46111" lon="4.31475">
        <ele>563</ele>
        <time>2022-09-08T09:53:10Z</time>
      </trkpt>
      <trkpt lat="45.46089" lon="4.31404">
        <ele>566</ele>
        <time>2022-09-08T09:53:20Z</time>
      </trkpt>
      <trkpt lat="45.46066" lon="4.31349">
        <ele>566</ele>
        <time>2022-09-08T09:53:28Z</time>
      </trkpt>
      <trkpt lat="45.46039" lon="4.31328">
        <ele>569</ele>
        <time>2022-09-08T09:53:33Z</time>
      </trkpt>
      <trkpt lat="45.45982" lon="4.31315">
        <ele>575</ele>
        <time>2022-09-08T09:53:43Z</time>
      </trkpt>
      <trkpt lat="45.45926" lon="4.31282">
        <ele>578</ele>
        <time>2022-09-08T09:53:54Z</time>
      </trkpt>
      <trkpt lat="45.45874" lon="4.3124">
        <ele>582</ele>
        <time>2022-09-08T09:54:05Z</time>
      </trkpt>
      <trkpt lat="45.45816" lon="4.31161">
        <ele>581</ele>
        <time>2022-09-08T09:54:19Z</time>
      </trkpt>
      <trkpt lat="45.45757" lon="4.3109">
        <ele>581</ele>
        <time>2022-09-08T09:54:33Z</time>
      </trkpt>
      <trkpt lat="45.45722" lon="4.31065">
        <ele>582</ele>
        <time>2022-09-08T09:54:40Z</time>
      </trkpt>
      <trkpt lat="45.45693" lon="4.31064">
        <ele>583</ele>
        <time>2022-09-08T09:54:45Z</time>
      </trkpt>
      <trkpt lat="45.45653" lon="4.31074">
        <ele>583</ele>
        <time>2022-09-08T09:54:52Z</time>
      </trkpt>
      <trkpt lat="45.45633" lon="4.31015">
        <ele>583</ele>
        <time>2022-09-08T09:55:00Z</time>
      </trkpt>
      <trkpt lat="45.45578" lon="4.30898">
        <ele>591</ele>
        <time>2022-09-08T09:55:18Z</time>
      </trkpt>
      <trkpt lat="45.45542" lon="4.30813">
        <ele>593</ele>
        <time>2022-09-08T09:55:30Z</time>
      </trkpt>
      <trkpt lat="45.45522" lon="4.30778">
        <ele>592</ele>
        <time>2022-09-08T09:55:36Z</time>
      </trkpt>
      <trkpt lat="45.45469" lon="4.30667">
        <ele>585</ele>
        <time>2022-09-08T09:55:53Z</time>
      </trkpt>
      <trkpt lat="45.45421" lon="4.30538">
        <ele>574</ele>
        <time>2022-09-08T09:56:11Z</time>
      </trkpt>
      <trkpt lat="45.45365" lon="4.30407">
        <ele>567</ele>
        <time>2022-09-08T09:56:30Z</time>
      </trkpt>
      <trkpt lat="45.45341" lon="4.30323">
        <ele>565</ele>
        <time>2022-09-08T09:56:41Z</time>
      </trkpt>
      <trkpt lat="45.45316" lon="4.30203">
        <ele>565</ele>
        <time>2022-09-08T09:56:57Z</time>
      </trkpt>
      <trkpt lat="45.45326" lon="4.30168">
        <ele>566</ele>
        <time>2022-09-08T09:57:02Z</time>
      </trkpt>
      <trkpt lat="45.45364" lon="4.30067">
        <ele>563</ele>
        <time>2022-09-08T09:57:16Z</time>
      </trkpt>
      <trkpt lat="45.45373" lon="4.30029">
        <ele>564</ele>
        <time>2022-09-08T09:57:21Z</time>
      </trkpt>
      <trkpt lat="45.45374" lon="4.29991">
        <ele>564</ele>
        <time>2022-09-08T09:57:26Z</time>
      </trkpt>
      <trkpt lat="45.45372" lon="4.29932">
        <ele>564</ele>
        <time>2022-09-08T09:57:33Z</time>
      </trkpt>
      <trkpt lat="45.45342" lon="4.29661">
        <ele>558</ele>
        <time>2022-09-08T09:58:07Z</time>
      </trkpt>
      <trkpt lat="45.45331" lon="4.29513">
        <ele>555</ele>
        <time>2022-09-08T09:58:26Z</time>
      </trkpt>
      <trkpt lat="45.45333" lon="4.29513">
        <ele>555</ele>
        <time>2022-09-08T09:58:26Z</time>
      </trkpt>
      <trkpt lat="45.4516" lon="4.2955">
        <ele>544</ele>
        <time>2022-09-08T09:58:57Z</time>
      </trkpt>
      <trkpt lat="45.45064" lon="4.29562">
        <ele>535</ele>
        <time>2022-09-08T09:59:15Z</time>
      </trkpt>
      <trkpt lat="45.4502" lon="4.29559">
        <ele>532</ele>
        <time>2022-09-08T09:59:22Z</time>
      </trkpt>
      <trkpt lat="45.44962" lon="4.29545">
        <ele>527</ele>
        <time>2022-09-08T09:59:33Z</time>
      </trkpt>
      <trkpt lat="45.4494" lon="4.29545">
        <ele>526</ele>
        <time>2022-09-08T09:59:37Z</time>
      </trkpt>
      <trkpt lat="45.4492" lon="4.29549">
        <ele>525</ele>
        <time>2022-09-08T09:59:40Z</time>
      </trkpt>
      <trkpt lat="45.449" lon="4.29557">
        <ele>525</ele>
        <time>2022-09-08T09:59:44Z</time>
      </trkpt>
      <trkpt lat="45.44883" lon="4.29568">
        <ele>525</ele>
        <time>2022-09-08T09:59:47Z</time>
      </trkpt>
      <trkpt lat="45.44873" lon="4.29587">
        <ele>525</ele>
        <time>2022-09-08T09:59:50Z</time>
      </trkpt>
      <trkpt lat="45.44867" lon="4.2961">
        <ele>525</ele>
        <time>2022-09-08T09:59:53Z</time>
      </trkpt>
      <trkpt lat="45.44866" lon="4.29637">
        <ele>524</ele>
        <time>2022-09-08T09:59:57Z</time>
      </trkpt>
      <trkpt lat="45.44873" lon="4.29664">
        <ele>524</ele>
        <time>2022-09-08T10:00:00Z</time>
      </trkpt>
      <trkpt lat="45.4491" lon="4.29725">
        <ele>521</ele>
        <time>2022-09-08T10:00:10Z</time>
      </trkpt>
      <trkpt lat="45.44917" lon="4.29752">
        <ele>519</ele>
        <time>2022-09-08T10:00:14Z</time>
      </trkpt>
      <trkpt lat="45.44919" lon="4.29777">
        <ele>520</ele>
        <time>2022-09-08T10:00:17Z</time>
      </trkpt>
      <trkpt lat="45.44907" lon="4.29826">
        <ele>518</ele>
        <time>2022-09-08T10:00:24Z</time>
      </trkpt>
      <trkpt lat="45.4488" lon="4.29884">
        <ele>514</ele>
        <time>2022-09-08T10:00:32Z</time>
      </trkpt>
      <trkpt lat="45.44834" lon="4.29942">
        <ele>507</ele>
        <time>2022-09-08T10:00:43Z</time>
      </trkpt>
      <trkpt lat="45.44826" lon="4.29964">
        <ele>507</ele>
        <time>2022-09-08T10:00:46Z</time>
      </trkpt>
      <trkpt lat="45.44825" lon="4.29991">
        <ele>507</ele>
        <time>2022-09-08T10:00:50Z</time>
      </trkpt>
      <trkpt lat="45.44829" lon="4.30092">
        <ele>505</ele>
        <time>2022-09-08T10:01:02Z</time>
      </trkpt>
      <trkpt lat="45.44821" lon="4.30133">
        <ele>504</ele>
        <time>2022-09-08T10:01:08Z</time>
      </trkpt>
      <trkpt lat="45.44794" lon="4.30212">
        <ele>502</ele>
        <time>2022-09-08T10:01:19Z</time>
      </trkpt>
      <trkpt lat="45.44773" lon="4.30233">
        <ele>499</ele>
        <time>2022-09-08T10:01:23Z</time>
      </trkpt>
      <trkpt lat="45.44759" lon="4.3024">
        <ele>498</ele>
        <time>2022-09-08T10:01:26Z</time>
      </trkpt>
      <trkpt lat="45.44745" lon="4.3024">
        <ele>496</ele>
        <time>2022-09-08T10:01:28Z</time>
      </trkpt>
      <trkpt lat="45.44734" lon="4.30237">
        <ele>495</ele>
        <time>2022-09-08T10:01:30Z</time>
      </trkpt>
      <trkpt lat="45.44723" lon="4.30231">
        <ele>495</ele>
        <time>2022-09-08T10:01:32Z</time>
      </trkpt>
      <trkpt lat="45.44709" lon="4.30218">
        <ele>494</ele>
        <time>2022-09-08T10:01:35Z</time>
      </trkpt>
      <trkpt lat="45.44675" lon="4.30141">
        <ele>492</ele>
        <time>2022-09-08T10:01:47Z</time>
      </trkpt>
      <trkpt lat="45.44647" lon="4.30117">
        <ele>493</ele>
        <time>2022-09-08T10:01:53Z</time>
      </trkpt>
      <trkpt lat="45.44627" lon="4.30112">
        <ele>494</ele>
        <time>2022-09-08T10:01:56Z</time>
      </trkpt>
      <trkpt lat="45.44609" lon="4.30088">
        <ele>497</ele>
        <time>2022-09-08T10:02:01Z</time>
      </trkpt>
      <trkpt lat="45.44537" lon="4.30062">
        <ele>505</ele>
        <time>2022-09-08T10:02:14Z</time>
      </trkpt>
      <trkpt lat="45.4451" lon="4.30045">
        <ele>508</ele>
        <time>2022-09-08T10:02:19Z</time>
      </trkpt>
      <trkpt lat="45.44471" lon="4.30006">
        <ele>514</ele>
        <time>2022-09-08T10:02:28Z</time>
      </trkpt>
      <trkpt lat="45.4445" lon="4.29992">
        <ele>516</ele>
        <time>2022-09-08T10:02:32Z</time>
      </trkpt>
      <trkpt lat="45.44377" lon="4.29965">
        <ele>523</ele>
        <time>2022-09-08T10:02:45Z</time>
      </trkpt>
      <trkpt lat="45.44348" lon="4.29964">
        <ele>526</ele>
        <time>2022-09-08T10:02:50Z</time>
      </trkpt>
      <trkpt lat="45.44266" lon="4.29967">
        <ele>534</ele>
        <time>2022-09-08T10:03:05Z</time>
      </trkpt>
      <trkpt lat="45.44252" lon="4.29972">
        <ele>535</ele>
        <time>2022-09-08T10:03:07Z</time>
      </trkpt>
      <trkpt lat="45.44227" lon="4.2999">
        <ele>536</ele>
        <time>2022-09-08T10:03:12Z</time>
      </trkpt>
      <trkpt lat="45.44171" lon="4.30008">
        <ele>541</ele>
        <time>2022-09-08T10:03:23Z</time>
      </trkpt>
      <trkpt lat="45.44116" lon="4.30013">
        <ele>546</ele>
        <time>2022-09-08T10:03:32Z</time>
      </trkpt>
      <trkpt lat="45.44062" lon="4.30014">
        <ele>549</ele>
        <time>2022-09-08T10:03:42Z</time>
      </trkpt>
      <trkpt lat="45.44029" lon="4.30009">
        <ele>551</ele>
        <time>2022-09-08T10:03:48Z</time>
      </trkpt>
      <trkpt lat="45.44007" lon="4.30001">
        <ele>554</ele>
        <time>2022-09-08T10:03:52Z</time>
      </trkpt>
      <trkpt lat="45.43917" lon="4.29956">
        <ele>562</ele>
        <time>2022-09-08T10:04:09Z</time>
      </trkpt>
      <trkpt lat="45.4387" lon="4.29922">
        <ele>565</ele>
        <time>2022-09-08T10:04:18Z</time>
      </trkpt>
      <trkpt lat="45.43837" lon="4.29877">
        <ele>567</ele>
        <time>2022-09-08T10:04:26Z</time>
      </trkpt>
      <trkpt lat="45.43778" lon="4.29785">
        <ele>569</ele>
        <time>2022-09-08T10:04:42Z</time>
      </trkpt>
      <trkpt lat="45.43746" lon="4.29756">
        <ele>569</ele>
        <time>2022-09-08T10:04:49Z</time>
      </trkpt>
      <trkpt lat="45.43697" lon="4.29727">
        <ele>569</ele>
        <time>2022-09-08T10:04:58Z</time>
      </trkpt>
      <trkpt lat="45.43666" lon="4.297">
        <ele>569</ele>
        <time>2022-09-08T10:05:05Z</time>
      </trkpt>
      <trkpt lat="45.43601" lon="4.29672">
        <ele>571</ele>
        <time>2022-09-08T10:05:17Z</time>
      </trkpt>
      <trkpt lat="45.43567" lon="4.29652">
        <ele>573</ele>
        <time>2022-09-08T10:05:23Z</time>
      </trkpt>
      <trkpt lat="45.43548" lon="4.2963">
        <ele>575</ele>
        <time>2022-09-08T10:05:28Z</time>
      </trkpt>
      <trkpt lat="45.43519" lon="4.29584">
        <ele>577</ele>
        <time>2022-09-08T10:05:35Z</time>
      </trkpt>
      <trkpt lat="45.435" lon="4.29566">
        <ele>578</ele>
        <time>2022-09-08T10:05:39Z</time>
      </trkpt>
      <trkpt lat="45.43473" lon="4.29562">
        <ele>579</ele>
        <time>2022-09-08T10:05:44Z</time>
      </trkpt>
      <trkpt lat="45.43444" lon="4.2957">
        <ele>581</ele>
        <time>2022-09-08T10:05:50Z</time>
      </trkpt>
      <trkpt lat="45.43417" lon="4.29572">
        <ele>583</ele>
        <time>2022-09-08T10:05:54Z</time>
      </trkpt>
      <trkpt lat="45.43412" lon="4.29571">
        <ele>582</ele>
        <time>2022-09-08T10:05:55Z</time>
      </trkpt>
      <trkpt lat="45.43406" lon="4.29559">
        <ele>582</ele>
        <time>2022-09-08T10:05:57Z</time>
      </trkpt>
      <trkpt lat="45.43396" lon="4.29555">
        <ele>582</ele>
        <time>2022-09-08T10:05:59Z</time>
      </trkpt>
      <trkpt lat="45.43386" lon="4.29559">
        <ele>582</ele>
        <time>2022-09-08T10:06:01Z</time>
      </trkpt>
      <trkpt lat="45.43382" lon="4.29564">
        <ele>582</ele>
        <time>2022-09-08T10:06:02Z</time>
      </trkpt>
      <trkpt lat="45.43361" lon="4.29563">
        <ele>582</ele>
        <time>2022-09-08T10:06:05Z</time>
      </trkpt>
      <trkpt lat="45.43241" lon="4.29538">
        <ele>579</ele>
        <time>2022-09-08T10:06:27Z</time>
      </trkpt>
      <trkpt lat="45.43147" lon="4.29502">
        <ele>580</ele>
        <time>2022-09-08T10:06:44Z</time>
      </trkpt>
      <trkpt lat="45.43135" lon="4.29495">
        <ele>580</ele>
        <time>2022-09-08T10:06:47Z</time>
      </trkpt>
      <trkpt lat="45.43021" lon="4.29478">
        <ele>575</ele>
        <time>2022-09-08T10:07:07Z</time>
      </trkpt>
      <trkpt lat="45.42983" lon="4.29495">
        <ele>575</ele>
        <time>2022-09-08T10:07:14Z</time>
      </trkpt>
      <trkpt lat="45.42968" lon="4.29507">
        <ele>575</ele>
        <time>2022-09-08T10:07:17Z</time>
      </trkpt>
      <trkpt lat="45.42935" lon="4.29527">
        <ele>575</ele>
        <time>2022-09-08T10:07:24Z</time>
      </trkpt>
      <trkpt lat="45.42923" lon="4.2953">
        <ele>574</ele>
        <time>2022-09-08T10:07:26Z</time>
      </trkpt>
      <trkpt lat="45.42903" lon="4.29526">
        <ele>574</ele>
        <time>2022-09-08T10:07:29Z</time>
      </trkpt>
      <trkpt lat="45.42849" lon="4.29501">
        <ele>575</ele>
        <time>2022-09-08T10:07:39Z</time>
      </trkpt>
      <trkpt lat="45.42813" lon="4.29489">
        <ele>576</ele>
        <time>2022-09-08T10:07:46Z</time>
      </trkpt>
      <trkpt lat="45.4259" lon="4.29474">
        <ele>582</ele>
        <time>2022-09-08T10:08:26Z</time>
      </trkpt>
      <trkpt lat="45.42458" lon="4.29479">
        <ele>584</ele>
        <time>2022-09-08T10:08:49Z</time>
      </trkpt>
      <trkpt lat="45.42434" lon="4.29484">
        <ele>585</ele>
        <time>2022-09-08T10:08:54Z</time>
      </trkpt>
      <trkpt lat="45.42349" lon="4.29562">
        <ele>585</ele>
        <time>2022-09-08T10:09:12Z</time>
      </trkpt>
      <trkpt lat="45.4225" lon="4.29695">
        <ele>582</ele>
        <time>2022-09-08T10:09:36Z</time>
      </trkpt>
      <trkpt lat="45.42139" lon="4.29798">
        <ele>575</ele>
        <time>2022-09-08T10:09:59Z</time>
      </trkpt>
      <trkpt lat="45.42018" lon="4.29949">
        <ele>568</ele>
        <time>2022-09-08T10:10:28Z</time>
      </trkpt>
      <trkpt lat="45.41976" lon="4.2999">
        <ele>567</ele>
        <time>2022-09-08T10:10:37Z</time>
      </trkpt>
      <trkpt lat="45.41796" lon="4.30104">
        <ele>558</ele>
        <time>2022-09-08T10:11:12Z</time>
      </trkpt>
      <trkpt lat="45.41774" lon="4.30112">
        <ele>558</ele>
        <time>2022-09-08T10:11:16Z</time>
      </trkpt>
      <trkpt lat="45.4176" lon="4.30114">
        <ele>557</ele>
        <time>2022-09-08T10:11:19Z</time>
      </trkpt>
      <trkpt lat="45.41741" lon="4.30112">
        <ele>557</ele>
        <time>2022-09-08T10:11:22Z</time>
      </trkpt>
      <trkpt lat="45.41732" lon="4.30109">
        <ele>556</ele>
        <time>2022-09-08T10:11:24Z</time>
      </trkpt>
      <trkpt lat="45.41688" lon="4.30084">
        <ele>554</ele>
        <time>2022-09-08T10:11:32Z</time>
      </trkpt>
      <trkpt lat="45.41665" lon="4.30075">
        <ele>552</ele>
        <time>2022-09-08T10:11:36Z</time>
      </trkpt>
      <trkpt lat="45.41616" lon="4.30065">
        <ele>554</ele>
        <time>2022-09-08T10:11:45Z</time>
      </trkpt>
      <trkpt lat="45.41597" lon="4.30056">
        <ele>555</ele>
        <time>2022-09-08T10:11:49Z</time>
      </trkpt>
      <trkpt lat="45.41592" lon="4.30049">
        <ele>555</ele>
        <time>2022-09-08T10:11:50Z</time>
      </trkpt>
      <trkpt lat="45.4155" lon="4.2995">
        <ele>562</ele>
        <time>2022-09-08T10:12:04Z</time>
      </trkpt>
      <trkpt lat="45.41513" lon="4.29662">
        <ele>564</ele>
        <time>2022-09-08T10:12:41Z</time>
      </trkpt>
      <trkpt lat="45.41503" lon="4.29645">
        <ele>566</ele>
        <time>2022-09-08T10:12:44Z</time>
      </trkpt>
      <trkpt lat="45.41493" lon="4.29641">
        <ele>567</ele>
        <time>2022-09-08T10:12:46Z</time>
      </trkpt>
      <trkpt lat="45.41483" lon="4.29642">
        <ele>567</ele>
        <time>2022-09-08T10:12:47Z</time>
      </trkpt>
      <trkpt lat="45.41476" lon="4.2963">
        <ele>567</ele>
        <time>2022-09-08T10:12:49Z</time>
      </trkpt>
      <trkpt lat="45.41466" lon="4.29625">
        <ele>567</ele>
        <time>2022-09-08T10:12:51Z</time>
      </trkpt>
      <trkpt lat="45.41454" lon="4.29631">
        <ele>567</ele>
        <time>2022-09-08T10:12:53Z</time>
      </trkpt>
      <trkpt lat="45.4145" lon="4.29638">
        <ele>567</ele>
        <time>2022-09-08T10:12:55Z</time>
      </trkpt>
      <trkpt lat="45.41438" lon="4.29636">
        <ele>567</ele>
        <time>2022-09-08T10:12:57Z</time>
      </trkpt>
      <trkpt lat="45.41424" lon="4.29622">
        <ele>567</ele>
        <time>2022-09-08T10:13:00Z</time>
      </trkpt>
      <trkpt lat="45.4141" lon="4.29613">
        <ele>567</ele>
        <time>2022-09-08T10:13:02Z</time>
      </trkpt>
      <trkpt lat="45.41392" lon="4.29608">
        <ele>565</ele>
        <time>2022-09-08T10:13:06Z</time>
      </trkpt>
      <trkpt lat="45.41368" lon="4.29614">
        <ele>564</ele>
        <time>2022-09-08T10:13:10Z</time>
      </trkpt>
      <trkpt lat="45.41356" lon="4.29622">
        <ele>563</ele>
        <time>2022-09-08T10:13:12Z</time>
      </trkpt>
      <trkpt lat="45.41326" lon="4.29652">
        <ele>563</ele>
        <time>2022-09-08T10:13:19Z</time>
      </trkpt>
      <trkpt lat="45.41307" lon="4.29662">
        <ele>563</ele>
        <time>2022-09-08T10:13:23Z</time>
      </trkpt>
      <trkpt lat="45.41288" lon="4.29663">
        <ele>561</ele>
        <time>2022-09-08T10:13:26Z</time>
      </trkpt>
      <trkpt lat="45.41276" lon="4.2966">
        <ele>560</ele>
        <time>2022-09-08T10:13:28Z</time>
      </trkpt>
      <trkpt lat="45.412" lon="4.29627">
        <ele>553</ele>
        <time>2022-09-08T10:13:42Z</time>
      </trkpt>
      <trkpt lat="45.41125" lon="4.29611">
        <ele>549</ele>
        <time>2022-09-08T10:13:56Z</time>
      </trkpt>
      <trkpt lat="45.41099" lon="4.29603">
        <ele>548</ele>
        <time>2022-09-08T10:14:00Z</time>
      </trkpt>
      <trkpt lat="45.41084" lon="4.29591">
        <ele>547</ele>
        <time>2022-09-08T10:14:04Z</time>
      </trkpt>
      <trkpt lat="45.41046" lon="4.29541">
        <ele>545</ele>
        <time>2022-09-08T10:14:13Z</time>
      </trkpt>
      <trkpt lat="45.41027" lon="4.29507">
        <ele>544</ele>
        <time>2022-09-08T10:14:18Z</time>
      </trkpt>
      <trkpt lat="45.41003" lon="4.29482">
        <ele>545</ele>
        <time>2022-09-08T10:14:23Z</time>
      </trkpt>
      <trkpt lat="45.40934" lon="4.29333">
        <ele>543</ele>
        <time>2022-09-08T10:14:46Z</time>
      </trkpt>
      <trkpt lat="45.40907" lon="4.29294">
        <ele>542</ele>
        <time>2022-09-08T10:14:53Z</time>
      </trkpt>
      <trkpt lat="45.40868" lon="4.29229">
        <ele>541</ele>
        <time>2022-09-08T10:15:03Z</time>
      </trkpt>
      <trkpt lat="45.40834" lon="4.29141">
        <ele>541</ele>
        <time>2022-09-08T10:15:16Z</time>
      </trkpt>
      <trkpt lat="45.40821" lon="4.29113">
        <ele>540</ele>
        <time>2022-09-08T10:15:20Z</time>
      </trkpt>
      <trkpt lat="45.40759" lon="4.29037">
        <ele>540</ele>
        <time>2022-09-08T10:15:35Z</time>
      </trkpt>
      <trkpt lat="45.40743" lon="4.28982">
        <ele>538</ele>
        <time>2022-09-08T10:15:42Z</time>
      </trkpt>
      <trkpt lat="45.4074" lon="4.28958">
        <ele>537</ele>
        <time>2022-09-08T10:15:45Z</time>
      </trkpt>
      <trkpt lat="45.40741" lon="4.28921">
        <ele>533</ele>
        <time>2022-09-08T10:15:50Z</time>
      </trkpt>
      <trkpt lat="45.40754" lon="4.2886">
        <ele>526</ele>
        <time>2022-09-08T10:15:58Z</time>
      </trkpt>
      <trkpt lat="45.40754" lon="4.28846">
        <ele>525</ele>
        <time>2022-09-08T10:15:59Z</time>
      </trkpt>
      <trkpt lat="45.40748" lon="4.28827">
        <ele>525</ele>
        <time>2022-09-08T10:16:02Z</time>
      </trkpt>
      <trkpt lat="45.40704" lon="4.28768">
        <ele>524</ele>
        <time>2022-09-08T10:16:13Z</time>
      </trkpt>
      <trkpt lat="45.40676" lon="4.28721">
        <ele>521</ele>
        <time>2022-09-08T10:16:20Z</time>
      </trkpt>
      <trkpt lat="45.4063" lon="4.2867">
        <ele>523</ele>
        <time>2022-09-08T10:16:31Z</time>
      </trkpt>
      <trkpt lat="45.40626" lon="4.2866">
        <ele>523</ele>
        <time>2022-09-08T10:16:32Z</time>
      </trkpt>
      <trkpt lat="45.40625" lon="4.28643">
        <ele>523</ele>
        <time>2022-09-08T10:16:34Z</time>
      </trkpt>
      <trkpt lat="45.40632" lon="4.28633">
        <ele>521</ele>
        <time>2022-09-08T10:16:36Z</time>
      </trkpt>
      <trkpt lat="45.40637" lon="4.28619">
        <ele>519</ele>
        <time>2022-09-08T10:16:38Z</time>
      </trkpt>
      <trkpt lat="45.40639" lon="4.28575">
        <ele>516</ele>
        <time>2022-09-08T10:16:44Z</time>
      </trkpt>
      <trkpt lat="45.40636" lon="4.28536">
        <ele>514</ele>
        <time>2022-09-08T10:16:49Z</time>
      </trkpt>
      <trkpt lat="45.40647" lon="4.28495">
        <ele>509</ele>
        <time>2022-09-08T10:16:54Z</time>
      </trkpt>
      <trkpt lat="45.40659" lon="4.28471">
        <ele>505</ele>
        <time>2022-09-08T10:16:58Z</time>
      </trkpt>
      <trkpt lat="45.4072" lon="4.28383">
        <ele>493</ele>
        <time>2022-09-08T10:17:13Z</time>
      </trkpt>
      <trkpt lat="45.40759" lon="4.28333">
        <ele>488</ele>
        <time>2022-09-08T10:17:22Z</time>
      </trkpt>
      <trkpt lat="45.40791" lon="4.2828">
        <ele>485</ele>
        <time>2022-09-08T10:17:31Z</time>
      </trkpt>
      <trkpt lat="45.4081" lon="4.28235">
        <ele>484</ele>
        <time>2022-09-08T10:17:38Z</time>
      </trkpt>
      <trkpt lat="45.4081" lon="4.28191">
        <ele>483</ele>
        <time>2022-09-08T10:17:43Z</time>
      </trkpt>
      <trkpt lat="45.40848" lon="4.2816">
        <ele>482</ele>
        <time>2022-09-08T10:17:51Z</time>
      </trkpt>
      <trkpt lat="45.40867" lon="4.2814">
        <ele>482</ele>
        <time>2022-09-08T10:17:55Z</time>
      </trkpt>
      <trkpt lat="45.40874" lon="4.28123">
        <ele>482</ele>
        <time>2022-09-08T10:17:58Z</time>
      </trkpt>
      <trkpt lat="45.4088" lon="4.28081">
        <ele>482</ele>
        <time>2022-09-08T10:18:03Z</time>
      </trkpt>
      <trkpt lat="45.40877" lon="4.28001">
        <ele>485</ele>
        <time>2022-09-08T10:18:13Z</time>
      </trkpt>
      <trkpt lat="45.40861" lon="4.27935">
        <ele>482</ele>
        <time>2022-09-08T10:18:22Z</time>
      </trkpt>
      <trkpt lat="45.40844" lon="4.27901">
        <ele>480</ele>
        <time>2022-09-08T10:18:27Z</time>
      </trkpt>
      <trkpt lat="45.40836" lon="4.27878">
        <ele>479</ele>
        <time>2022-09-08T10:18:30Z</time>
      </trkpt>
      <trkpt lat="45.40826" lon="4.27826">
        <ele>480</ele>
        <time>2022-09-08T10:18:37Z</time>
      </trkpt>
      <trkpt lat="45.40813" lon="4.2778">
        <ele>479</ele>
        <time>2022-09-08T10:18:43Z</time>
      </trkpt>
      <trkpt lat="45.40746" lon="4.27569">
        <ele>473</ele>
        <time>2022-09-08T10:19:12Z</time>
      </trkpt>
      <trkpt lat="45.40714" lon="4.27479">
        <ele>476</ele>
        <time>2022-09-08T10:19:25Z</time>
      </trkpt>
      <trkpt lat="45.40688" lon="4.27419">
        <ele>474</ele>
        <time>2022-09-08T10:19:33Z</time>
      </trkpt>
      <trkpt lat="45.40639" lon="4.27341">
        <ele>474</ele>
        <time>2022-09-08T10:19:47Z</time>
      </trkpt>
      <trkpt lat="45.40612" lon="4.27252">
        <ele>471</ele>
        <time>2022-09-08T10:19:59Z</time>
      </trkpt>
      <trkpt lat="45.40584" lon="4.27186">
        <ele>466</ele>
        <time>2022-09-08T10:20:08Z</time>
      </trkpt>
      <trkpt lat="45.4061" lon="4.27134">
        <ele>467</ele>
        <time>2022-09-08T10:20:16Z</time>
      </trkpt>
      <trkpt lat="45.40637" lon="4.27115">
        <ele>469</ele>
        <time>2022-09-08T10:20:22Z</time>
      </trkpt>
      <trkpt lat="45.4063" lon="4.26858">
        <ele>459</ele>
        <time>2022-09-08T10:20:54Z</time>
      </trkpt>
      <trkpt lat="45.40626" lon="4.26812">
        <ele>457</ele>
        <time>2022-09-08T10:21:00Z</time>
      </trkpt>
      <trkpt lat="45.40629" lon="4.26801">
        <ele>457</ele>
        <time>2022-09-08T10:21:01Z</time>
      </trkpt>
      <trkpt lat="45.40627" lon="4.26794">
        <ele>457</ele>
        <time>2022-09-08T10:21:02Z</time>
      </trkpt>
      <trkpt lat="45.40628" lon="4.26776">
        <ele>457</ele>
        <time>2022-09-08T10:21:04Z</time>
      </trkpt>
      <trkpt lat="45.40636" lon="4.26723">
        <ele>457</ele>
        <time>2022-09-08T10:21:11Z</time>
      </trkpt>
      <trkpt lat="45.40651" lon="4.26658">
        <ele>459</ele>
        <time>2022-09-08T10:21:20Z</time>
      </trkpt>
      <trkpt lat="45.40654" lon="4.26624">
        <ele>460</ele>
        <time>2022-09-08T10:21:24Z</time>
      </trkpt>
      <trkpt lat="45.40652" lon="4.26582">
        <ele>462</ele>
        <time>2022-09-08T10:21:29Z</time>
      </trkpt>
      <trkpt lat="45.40645" lon="4.26534">
        <ele>463</ele>
        <time>2022-09-08T10:21:35Z</time>
      </trkpt>
      <trkpt lat="45.40624" lon="4.26472">
        <ele>465.3</ele>
        <extensions>
          <visugpx:TrkExtension xmlns:visugpx="https://www.visugpx.com/editgpx/">
            <visugpx:node>2</visugpx:node>
            </visugpx:TrkExtension>
        </extensions>
      </trkpt>
      <trkpt lat="45.40624" lon="4.26472">
        <ele>465.4</ele>
      </trkpt>
      <trkpt lat="45.40616" lon="4.26451">
        <ele>466.1</ele>
      </trkpt>
      <trkpt lat="45.40589" lon="4.26376">
        <ele>468.4</ele>
      </trkpt>
      <trkpt lat="45.40585" lon="4.26351">
        <ele>468.6</ele>
      </trkpt>
      <trkpt lat="45.40585" lon="4.2634">
        <ele>469</ele>
      </trkpt>
      <trkpt lat="45.40587" lon="4.26321">
        <ele>470</ele>
      </trkpt>
      <trkpt lat="45.40594" lon="4.26296">
        <ele>472.1</ele>
      </trkpt>
      <trkpt lat="45.40598" lon="4.2628">
        <ele>473.5</ele>
      </trkpt>
      <trkpt lat="45.40609" lon="4.26243">
        <ele>472.9</ele>
      </trkpt>
      <trkpt lat="45.40614" lon="4.26224">
        <ele>473.2</ele>
      </trkpt>
      <trkpt lat="45.40628" lon="4.26174">
        <ele>472.7</ele>
        <extensions>
          <visugpx:TrkExtension xmlns:visugpx="https://www.visugpx.com/editgpx/">
            <visugpx:node>5</visugpx:node>
            </visugpx:TrkExtension>
        </extensions>
      </trkpt>
      <trkpt lat="45.40638" lon="4.26135">
        <ele>470.9</ele>
      </trkpt>
      <trkpt lat="45.40643" lon="4.26119">
        <ele>471.2</ele>
      </trkpt>
      <trkpt lat="45.40646" lon="4.26111">
        <ele>471.2</ele>
      </trkpt>
      <trkpt lat="45.40649" lon="4.26097">
        <ele>469.7</ele>
      </trkpt>
      <trkpt lat="45.40655" lon="4.26077">
        <ele>468.4</ele>
      </trkpt>
      <trkpt lat="45.40665" lon="4.26049">
        <ele>467.4</ele>
      </trkpt>
      <trkpt lat="45.40672" lon="4.26036">
        <ele>466.2</ele>
      </trkpt>
      <trkpt lat="45.40679" lon="4.26023">
        <ele>464.3</ele>
      </trkpt>
      <trkpt lat="45.40708" lon="4.25987">
        <ele>461.6</ele>
      </trkpt>
      <trkpt lat="45.4072" lon="4.25967">
        <ele>459.6</ele>
      </trkpt>
      <trkpt lat="45.40727" lon="4.25954">
        <ele>458.7</ele>
      </trkpt>
      <trkpt lat="45.4073" lon="4.25942">
        <ele>457.7</ele>
      </trkpt>
      <trkpt lat="45.40733" lon="4.25929">
        <ele>456.4</ele>
      </trkpt>
      <trkpt lat="45.40736" lon="4.25901">
        <ele>454.4</ele>
      </trkpt>
      <trkpt lat="45.40736" lon="4.25883">
        <ele>453.3</ele>
      </trkpt>
      <trkpt lat="45.40735" lon="4.25865">
        <ele>452.5</ele>
      </trkpt>
      <trkpt lat="45.40733" lon="4.25844">
        <ele>451.6</ele>
      </trkpt>
      <trkpt lat="45.40733" lon="4.2584">
        <ele>451.5</ele>
      </trkpt>
      <trkpt lat="45.40734" lon="4.2584">
        <ele>451.7</ele>
        <extensions>
          <visugpx:TrkExtension xmlns:visugpx="https://www.visugpx.com/editgpx/">
            <visugpx:node>3</visugpx:node>
            </visugpx:TrkExtension>
        </extensions>
      </trkpt>
      <trkpt lat="45.40788" lon="4.25624">
        <ele>448</ele>
        <time>2022-09-08T10:23:48Z</time>
      </trkpt>
      <trkpt lat="45.40795" lon="4.25594">
        <ele>449</ele>
        <time>2022-09-08T10:23:52Z</time>
      </trkpt>
      <trkpt lat="45.40812" lon="4.25492">
        <ele>440</ele>
        <time>2022-09-08T10:24:05Z</time>
      </trkpt>
      <trkpt lat="45.40823" lon="4.25455">
        <ele>436</ele>
        <time>2022-09-08T10:24:10Z</time>
      </trkpt>
      <trkpt lat="45.40858" lon="4.25387">
        <ele>438</ele>
        <time>2022-09-08T10:24:21Z</time>
      </trkpt>
      <trkpt lat="45.4086" lon="4.25344">
        <ele>437</ele>
        <time>2022-09-08T10:24:26Z</time>
      </trkpt>
      <trkpt lat="45.40884" lon="4.25305">
        <ele>440</ele>
        <time>2022-09-08T10:24:32Z</time>
      </trkpt>
      <trkpt lat="45.40892" lon="4.25287">
        <ele>440</ele>
        <time>2022-09-08T10:24:35Z</time>
      </trkpt>
      <trkpt lat="45.40905" lon="4.25233">
        <ele>439</ele>
        <time>2022-09-08T10:24:42Z</time>
      </trkpt>
      <trkpt lat="45.40908" lon="4.25195">
        <ele>438</ele>
        <time>2022-09-08T10:24:47Z</time>
      </trkpt>
      <trkpt lat="45.40905" lon="4.25174">
        <ele>438</ele>
        <time>2022-09-08T10:24:50Z</time>
      </trkpt>
      <trkpt lat="45.40896" lon="4.25122">
        <ele>440</ele>
        <time>2022-09-08T10:24:56Z</time>
      </trkpt>
      <trkpt lat="45.40888" lon="4.25094">
        <ele>443</ele>
        <time>2022-09-08T10:25:00Z</time>
      </trkpt>
      <trkpt lat="45.40865" lon="4.24962">
        <ele>438</ele>
        <time>2022-09-08T10:25:17Z</time>
      </trkpt>
      <trkpt lat="45.40877" lon="4.2495">
        <ele>434</ele>
        <time>2022-09-08T10:25:20Z</time>
      </trkpt>
      <trkpt lat="45.40879" lon="4.24936">
        <ele>432</ele>
        <time>2022-09-08T10:25:21Z</time>
      </trkpt>
      <trkpt lat="45.40875" lon="4.24923">
        <ele>430</ele>
        <time>2022-09-08T10:25:23Z</time>
      </trkpt>
      <trkpt lat="45.40866" lon="4.24916">
        <ele>430</ele>
        <time>2022-09-08T10:25:25Z</time>
      </trkpt>
      <trkpt lat="45.40861" lon="4.24916">
        <ele>430</ele>
        <time>2022-09-08T10:25:26Z</time>
      </trkpt>
      <trkpt lat="45.40852" lon="4.24711">
        <ele>422</ele>
        <time>2022-09-08T10:25:52Z</time>
      </trkpt>
      <trkpt lat="45.40848" lon="4.24668">
        <ele>423</ele>
        <time>2022-09-08T10:25:57Z</time>
      </trkpt>
      <trkpt lat="45.40839" lon="4.24612">
        <ele>425</ele>
        <time>2022-09-08T10:26:04Z</time>
      </trkpt>
      <trkpt lat="45.40829" lon="4.24578">
        <ele>427</ele>
        <time>2022-09-08T10:26:09Z</time>
      </trkpt>
      <trkpt lat="45.40837" lon="4.24567">
        <ele>427</ele>
        <time>2022-09-08T10:26:11Z</time>
      </trkpt>
      <trkpt lat="45.40838" lon="4.24544">
        <ele>427</ele>
        <time>2022-09-08T10:26:14Z</time>
      </trkpt>
      <trkpt lat="45.40779" lon="4.242">
        <ele>448</ele>
        <time>2022-09-08T10:26:58Z</time>
      </trkpt>
      <trkpt lat="45.40771" lon="4.24126">
        <ele>455</ele>
        <time>2022-09-08T10:27:07Z</time>
      </trkpt>
      <trkpt lat="45.40767" lon="4.23981">
        <ele>460</ele>
        <time>2022-09-08T10:27:25Z</time>
      </trkpt>
      <trkpt lat="45.40774" lon="4.23927">
        <ele>460</ele>
        <time>2022-09-08T10:27:32Z</time>
      </trkpt>
      <trkpt lat="45.40787" lon="4.2388">
        <ele>463</ele>
        <time>2022-09-08T10:27:39Z</time>
      </trkpt>
      <trkpt lat="45.40803" lon="4.23837">
        <ele>464</ele>
        <time>2022-09-08T10:27:45Z</time>
      </trkpt>
      <trkpt lat="45.40833" lon="4.23774">
        <ele>467</ele>
        <time>2022-09-08T10:27:54Z</time>
      </trkpt>
      <trkpt lat="45.40845" lon="4.23755">
        <ele>469</ele>
        <time>2022-09-08T10:27:57Z</time>
      </trkpt>
      <trkpt lat="45.40879" lon="4.23717">
        <ele>473</ele>
        <time>2022-09-08T10:28:05Z</time>
      </trkpt>
      <trkpt lat="45.40972" lon="4.23655">
        <ele>473</ele>
        <time>2022-09-08T10:28:23Z</time>
      </trkpt>
      <trkpt lat="45.4101" lon="4.23644">
        <ele>472</ele>
        <time>2022-09-08T10:28:30Z</time>
      </trkpt>
      <trkpt lat="45.41033" lon="4.23643">
        <ele>472</ele>
        <time>2022-09-08T10:28:34Z</time>
      </trkpt>
      <trkpt lat="45.41066" lon="4.23646">
        <ele>471</ele>
        <time>2022-09-08T10:28:40Z</time>
      </trkpt>
      <trkpt lat="45.41157" lon="4.23663">
        <ele>473</ele>
        <time>2022-09-08T10:28:57Z</time>
      </trkpt>
      <trkpt lat="45.41172" lon="4.2367">
        <ele>474</ele>
        <time>2022-09-08T10:28:59Z</time>
      </trkpt>
      <trkpt lat="45.41183" lon="4.2368">
        <ele>474</ele>
        <time>2022-09-08T10:29:02Z</time>
      </trkpt>
      <trkpt lat="45.41207" lon="4.23713">
        <ele>468</ele>
        <time>2022-09-08T10:29:08Z</time>
      </trkpt>
      <trkpt lat="45.41219" lon="4.23725">
        <ele>466</ele>
        <time>2022-09-08T10:29:10Z</time>
      </trkpt>
      <trkpt lat="45.41237" lon="4.23727">
        <ele>472</ele>
        <time>2022-09-08T10:29:13Z</time>
      </trkpt>
      <trkpt lat="45.41248" lon="4.23725">
        <ele>476</ele>
        <time>2022-09-08T10:29:15Z</time>
      </trkpt>
      <trkpt lat="45.41268" lon="4.2373">
        <ele>476</ele>
        <time>2022-09-08T10:29:19Z</time>
      </trkpt>
      <trkpt lat="45.41299" lon="4.23761">
        <ele>465</ele>
        <time>2022-09-08T10:29:26Z</time>
      </trkpt>
      <trkpt lat="45.41308" lon="4.23766">
        <ele>464</ele>
        <time>2022-09-08T10:29:27Z</time>
      </trkpt>
      <trkpt lat="45.4132" lon="4.23767">
        <ele>465</ele>
        <time>2022-09-08T10:29:30Z</time>
      </trkpt>
      <trkpt lat="45.4133" lon="4.23764">
        <ele>467</ele>
        <time>2022-09-08T10:29:31Z</time>
      </trkpt>
      <trkpt lat="45.41338" lon="4.23754">
        <ele>470</ele>
        <time>2022-09-08T10:29:33Z</time>
      </trkpt>
      <trkpt lat="45.41384" lon="4.23662">
        <ele>494</ele>
        <time>2022-09-08T10:29:47Z</time>
      </trkpt>
      <trkpt lat="45.41422" lon="4.23608">
        <ele>500</ele>
        <time>2022-09-08T10:29:57Z</time>
      </trkpt>
      <trkpt lat="45.4143" lon="4.23601">
        <ele>503</ele>
        <time>2022-09-08T10:29:59Z</time>
      </trkpt>
      <trkpt lat="45.41438" lon="4.23598">
        <ele>504</ele>
        <time>2022-09-08T10:30:00Z</time>
      </trkpt>
      <trkpt lat="45.41445" lon="4.23599">
        <ele>505</ele>
        <time>2022-09-08T10:30:01Z</time>
      </trkpt>
      <trkpt lat="45.41456" lon="4.23609">
        <ele>505</ele>
        <time>2022-09-08T10:30:04Z</time>
      </trkpt>
      <trkpt lat="45.41461" lon="4.23621">
        <ele>504</ele>
        <time>2022-09-08T10:30:05Z</time>
      </trkpt>
      <trkpt lat="45.41463" lon="4.23636">
        <ele>503</ele>
        <time>2022-09-08T10:30:07Z</time>
      </trkpt>
      <trkpt lat="45.41452" lon="4.23689">
        <ele>494</ele>
        <time>2022-09-08T10:30:14Z</time>
      </trkpt>
      <trkpt lat="45.4145" lon="4.23719">
        <ele>490</ele>
        <time>2022-09-08T10:30:18Z</time>
      </trkpt>
      <trkpt lat="45.41483" lon="4.23901">
        <ele>486</ele>
        <time>2022-09-08T10:30:41Z</time>
      </trkpt>
      <trkpt lat="45.41504" lon="4.23953">
        <ele>488</ele>
        <time>2022-09-08T10:30:49Z</time>
      </trkpt>
      <trkpt lat="45.41536" lon="4.24">
        <ele>496</ele>
        <time>2022-09-08T10:30:57Z</time>
      </trkpt>
      <trkpt lat="45.41545" lon="4.24034">
        <ele>496</ele>
        <time>2022-09-08T10:31:02Z</time>
      </trkpt>
      <trkpt lat="45.4155" lon="4.24069">
        <ele>492</ele>
        <time>2022-09-08T10:31:06Z</time>
      </trkpt>
      <trkpt lat="45.41556" lon="4.24088">
        <ele>492</ele>
        <time>2022-09-08T10:31:09Z</time>
      </trkpt>
      <trkpt lat="45.41595" lon="4.24149">
        <ele>499</ele>
        <time>2022-09-08T10:31:19Z</time>
      </trkpt>
      <trkpt lat="45.41603" lon="4.24165">
        <ele>499</ele>
        <time>2022-09-08T10:31:22Z</time>
      </trkpt>
      <trkpt lat="45.41621" lon="4.24215">
        <ele>497</ele>
        <time>2022-09-08T10:31:29Z</time>
      </trkpt>
      <trkpt lat="45.41642" lon="4.2425">
        <ele>498</ele>
        <time>2022-09-08T10:31:34Z</time>
      </trkpt>
      <trkpt lat="45.41674" lon="4.24285">
        <ele>501</ele>
        <time>2022-09-08T10:31:41Z</time>
      </trkpt>
      <trkpt lat="45.41781" lon="4.24352">
        <ele>504</ele>
        <time>2022-09-08T10:32:02Z</time>
      </trkpt>
      <trkpt lat="45.41801" lon="4.24359">
        <ele>505</ele>
        <time>2022-09-08T10:32:06Z</time>
      </trkpt>
      <trkpt lat="45.41868" lon="4.24374">
        <ele>510</ele>
        <time>2022-09-08T10:32:18Z</time>
      </trkpt>
      <trkpt lat="45.41881" lon="4.24381">
        <ele>511</ele>
        <time>2022-09-08T10:32:20Z</time>
      </trkpt>
      <trkpt lat="45.41919" lon="4.24426">
        <ele>511</ele>
        <time>2022-09-08T10:32:29Z</time>
      </trkpt>
      <trkpt lat="45.41927" lon="4.24431">
        <ele>510</ele>
        <time>2022-09-08T10:32:31Z</time>
      </trkpt>
      <trkpt lat="45.41939" lon="4.2443">
        <ele>510</ele>
        <time>2022-09-08T10:32:33Z</time>
      </trkpt>
      <trkpt lat="45.41956" lon="4.24423">
        <ele>510</ele>
        <time>2022-09-08T10:32:36Z</time>
      </trkpt>
      <trkpt lat="45.41963" lon="4.24416">
        <ele>510</ele>
        <time>2022-09-08T10:32:38Z</time>
      </trkpt>
      <trkpt lat="45.41972" lon="4.24392">
        <ele>511</ele>
        <time>2022-09-08T10:32:41Z</time>
      </trkpt>
      <trkpt lat="45.41973" lon="4.24374">
        <ele>513</ele>
        <time>2022-09-08T10:32:43Z</time>
      </trkpt>
      <trkpt lat="45.41969" lon="4.24352">
        <ele>514</ele>
        <time>2022-09-08T10:32:46Z</time>
      </trkpt>
      <trkpt lat="45.4194" lon="4.24259">
        <ele>521</ele>
        <time>2022-09-08T10:32:59Z</time>
      </trkpt>
      <trkpt lat="45.41935" lon="4.24217">
        <ele>526</ele>
        <time>2022-09-08T10:33:04Z</time>
      </trkpt>
      <trkpt lat="45.41936" lon="4.24201">
        <ele>527</ele>
        <time>2022-09-08T10:33:06Z</time>
      </trkpt>
      <trkpt lat="45.41958" lon="4.24121">
        <ele>529</ele>
        <time>2022-09-08T10:33:17Z</time>
      </trkpt>
      <trkpt lat="45.41966" lon="4.24024">
        <ele>541</ele>
        <time>2022-09-08T10:33:29Z</time>
      </trkpt>
      <trkpt lat="45.41972" lon="4.24002">
        <ele>543</ele>
        <time>2022-09-08T10:33:32Z</time>
      </trkpt>
      <trkpt lat="45.4198" lon="4.2399">
        <ele>543</ele>
        <time>2022-09-08T10:33:34Z</time>
      </trkpt>
      <trkpt lat="45.41989" lon="4.23985">
        <ele>541</ele>
        <time>2022-09-08T10:33:36Z</time>
      </trkpt>
      <trkpt lat="45.41999" lon="4.23984">
        <ele>539</ele>
        <time>2022-09-08T10:33:38Z</time>
      </trkpt>
      <trkpt lat="45.4203" lon="4.23996">
        <ele>534</ele>
        <time>2022-09-08T10:33:43Z</time>
      </trkpt>
      <trkpt lat="45.42043" lon="4.23995">
        <ele>534</ele>
        <time>2022-09-08T10:33:46Z</time>
      </trkpt>
      <trkpt lat="45.42053" lon="4.23992">
        <ele>534</ele>
        <time>2022-09-08T10:33:47Z</time>
      </trkpt>
      <trkpt lat="45.42073" lon="4.23973">
        <ele>538</ele>
        <time>2022-09-08T10:33:52Z</time>
      </trkpt>
      <trkpt lat="45.42081" lon="4.23959">
        <ele>540</ele>
        <time>2022-09-08T10:33:54Z</time>
      </trkpt>
      <trkpt lat="45.42085" lon="4.23942">
        <ele>543</ele>
        <time>2022-09-08T10:33:56Z</time>
      </trkpt>
      <trkpt lat="45.42087" lon="4.23908">
        <ele>549</ele>
        <time>2022-09-08T10:34:00Z</time>
      </trkpt>
      <trkpt lat="45.42085" lon="4.23864">
        <ele>556</ele>
        <time>2022-09-08T10:34:06Z</time>
      </trkpt>
      <trkpt lat="45.42087" lon="4.23848">
        <ele>558</ele>
        <time>2022-09-08T10:34:08Z</time>
      </trkpt>
      <trkpt lat="45.4209" lon="4.23836">
        <ele>559</ele>
        <time>2022-09-08T10:34:10Z</time>
      </trkpt>
      <trkpt lat="45.42097" lon="4.23828">
        <ele>560</ele>
        <time>2022-09-08T10:34:11Z</time>
      </trkpt>
      <trkpt lat="45.42108" lon="4.23822">
        <ele>561</ele>
        <time>2022-09-08T10:34:13Z</time>
      </trkpt>
      <trkpt lat="45.42117" lon="4.23824">
        <ele>560</ele>
        <time>2022-09-08T10:34:15Z</time>
      </trkpt>
      <trkpt lat="45.42128" lon="4.23832">
        <ele>559</ele>
        <time>2022-09-08T10:34:17Z</time>
      </trkpt>
      <trkpt lat="45.42161" lon="4.23896">
        <ele>547</ele>
        <time>2022-09-08T10:34:27Z</time>
      </trkpt>
      <trkpt lat="45.4218" lon="4.23925">
        <ele>544</ele>
        <time>2022-09-08T10:34:32Z</time>
      </trkpt>
      <trkpt lat="45.42199" lon="4.23946">
        <ele>545</ele>
        <time>2022-09-08T10:34:36Z</time>
      </trkpt>
      <trkpt lat="45.42279" lon="4.24017">
        <ele>545</ele>
        <time>2022-09-08T10:34:53Z</time>
      </trkpt>
      <trkpt lat="45.42299" lon="4.24021">
        <ele>547</ele>
        <time>2022-09-08T10:34:57Z</time>
      </trkpt>
      <trkpt lat="45.42313" lon="4.2402">
        <ele>549</ele>
        <time>2022-09-08T10:34:59Z</time>
      </trkpt>
      <trkpt lat="45.42352" lon="4.24005">
        <ele>556</ele>
        <time>2022-09-08T10:35:06Z</time>
      </trkpt>
      <trkpt lat="45.4239" lon="4.23984">
        <ele>562</ele>
        <time>2022-09-08T10:35:14Z</time>
      </trkpt>
      <trkpt lat="45.42397" lon="4.23983">
        <ele>563</ele>
        <time>2022-09-08T10:35:15Z</time>
      </trkpt>
      <trkpt lat="45.42406" lon="4.23985">
        <ele>563</ele>
        <time>2022-09-08T10:35:16Z</time>
      </trkpt>
      <trkpt lat="45.42416" lon="4.23993">
        <ele>562</ele>
        <time>2022-09-08T10:35:18Z</time>
      </trkpt>
      <trkpt lat="45.42456" lon="4.24051">
        <ele>556</ele>
        <time>2022-09-08T10:35:29Z</time>
      </trkpt>
      <trkpt lat="45.42478" lon="4.24061">
        <ele>556</ele>
        <time>2022-09-08T10:35:33Z</time>
      </trkpt>
      <trkpt lat="45.42489" lon="4.24061">
        <ele>558</ele>
        <time>2022-09-08T10:35:35Z</time>
      </trkpt>
      <trkpt lat="45.42501" lon="4.24056">
        <ele>560</ele>
        <time>2022-09-08T10:35:37Z</time>
      </trkpt>
      <trkpt lat="45.42549" lon="4.24025">
        <ele>568</ele>
        <time>2022-09-08T10:35:46Z</time>
      </trkpt>
      <trkpt lat="45.42561" lon="4.24022">
        <ele>569</ele>
        <time>2022-09-08T10:35:48Z</time>
      </trkpt>
      <trkpt lat="45.4257" lon="4.24023">
        <ele>570</ele>
        <time>2022-09-08T10:35:50Z</time>
      </trkpt>
      <trkpt lat="45.42578" lon="4.24027">
        <ele>569</ele>
        <time>2022-09-08T10:35:52Z</time>
      </trkpt>
      <trkpt lat="45.42597" lon="4.2405">
        <ele>568</ele>
        <time>2022-09-08T10:35:56Z</time>
      </trkpt>
      <trkpt lat="45.42631" lon="4.24128">
        <ele>566</ele>
        <time>2022-09-08T10:36:07Z</time>
      </trkpt>
      <trkpt lat="45.42651" lon="4.24153">
        <ele>567</ele>
        <time>2022-09-08T10:36:12Z</time>
      </trkpt>
      <trkpt lat="45.42677" lon="4.2416">
        <ele>569</ele>
        <time>2022-09-08T10:36:17Z</time>
      </trkpt>
      <trkpt lat="45.42791" lon="4.24149">
        <ele>582</ele>
        <time>2022-09-08T10:36:37Z</time>
      </trkpt>
      <trkpt lat="45.42824" lon="4.24149">
        <ele>586</ele>
        <time>2022-09-08T10:36:43Z</time>
      </trkpt>
      <trkpt lat="45.42847" lon="4.24153">
        <ele>588</ele>
        <time>2022-09-08T10:36:47Z</time>
      </trkpt>
      <trkpt lat="45.42864" lon="4.2416">
        <ele>589</ele>
        <time>2022-09-08T10:36:50Z</time>
      </trkpt>
      <trkpt lat="45.42873" lon="4.24168">
        <ele>588</ele>
        <time>2022-09-08T10:36:52Z</time>
      </trkpt>
      <trkpt lat="45.42891" lon="4.24186">
        <ele>587</ele>
        <time>2022-09-08T10:36:56Z</time>
      </trkpt>
      <trkpt lat="45.42926" lon="4.24231">
        <ele>583</ele>
        <time>2022-09-08T10:37:05Z</time>
      </trkpt>
      <trkpt lat="45.42937" lon="4.24241">
        <ele>581</ele>
        <time>2022-09-08T10:37:07Z</time>
      </trkpt>
      <trkpt lat="45.42948" lon="4.24246">
        <ele>581</ele>
        <time>2022-09-08T10:37:09Z</time>
      </trkpt>
      <trkpt lat="45.42966" lon="4.24247">
        <ele>583</ele>
        <time>2022-09-08T10:37:12Z</time>
      </trkpt>
      <trkpt lat="45.42978" lon="4.24244">
        <ele>585</ele>
        <time>2022-09-08T10:37:14Z</time>
      </trkpt>
      <trkpt lat="45.43006" lon="4.24229">
        <ele>590</ele>
        <time>2022-09-08T10:37:20Z</time>
      </trkpt>
      <trkpt lat="45.43091" lon="4.24168">
        <ele>592</ele>
        <time>2022-09-08T10:37:37Z</time>
      </trkpt>
      <trkpt lat="45.43101" lon="4.24155">
        <ele>589</ele>
        <time>2022-09-08T10:37:39Z</time>
      </trkpt>
      <trkpt lat="45.43104" lon="4.24148">
        <ele>588</ele>
        <time>2022-09-08T10:37:40Z</time>
      </trkpt>
      <trkpt lat="45.43105" lon="4.24129">
        <ele>587</ele>
        <time>2022-09-08T10:37:42Z</time>
      </trkpt>
      <trkpt lat="45.43098" lon="4.24111">
        <ele>588</ele>
        <time>2022-09-08T10:37:45Z</time>
      </trkpt>
      <trkpt lat="45.4303" lon="4.24028">
        <ele>598</ele>
        <time>2022-09-08T10:38:01Z</time>
      </trkpt>
      <trkpt lat="45.43017" lon="4.24007">
        <ele>600</ele>
        <time>2022-09-08T10:38:04Z</time>
      </trkpt>
      <trkpt lat="45.43012" lon="4.23989">
        <ele>600</ele>
        <time>2022-09-08T10:38:07Z</time>
      </trkpt>
      <trkpt lat="45.42991" lon="4.23858">
        <ele>599</ele>
        <time>2022-09-08T10:38:24Z</time>
      </trkpt>
      <trkpt lat="45.42978" lon="4.23823">
        <ele>599</ele>
        <time>2022-09-08T10:38:29Z</time>
      </trkpt>
      <trkpt lat="45.42963" lon="4.23791">
        <ele>600</ele>
        <time>2022-09-08T10:38:33Z</time>
      </trkpt>
      <trkpt lat="45.42938" lon="4.23722">
        <ele>600</ele>
        <time>2022-09-08T10:38:43Z</time>
      </trkpt>
      <trkpt lat="45.42923" lon="4.237">
        <ele>603</ele>
        <time>2022-09-08T10:38:47Z</time>
      </trkpt>
      <trkpt lat="45.42914" lon="4.23677">
        <ele>604</ele>
        <time>2022-09-08T10:38:50Z</time>
      </trkpt>
      <trkpt lat="45.42914" lon="4.23662">
        <ele>603</ele>
        <time>2022-09-08T10:38:52Z</time>
      </trkpt>
      <trkpt lat="45.4293" lon="4.23615">
        <ele>599</ele>
        <time>2022-09-08T10:38:59Z</time>
      </trkpt>
      <trkpt lat="45.42931" lon="4.23588">
        <ele>600</ele>
        <time>2022-09-08T10:39:02Z</time>
      </trkpt>
      <trkpt lat="45.42928" lon="4.23571">
        <ele>600</ele>
        <time>2022-09-08T10:39:04Z</time>
      </trkpt>
      <trkpt lat="45.42914" lon="4.23529">
        <ele>600</ele>
        <time>2022-09-08T10:39:10Z</time>
      </trkpt>
      <trkpt lat="45.4288" lon="4.23451">
        <ele>609</ele>
        <time>2022-09-08T10:39:21Z</time>
      </trkpt>
      <trkpt lat="45.42876" lon="4.23431">
        <ele>609</ele>
        <time>2022-09-08T10:39:24Z</time>
      </trkpt>
      <trkpt lat="45.42879" lon="4.23378">
        <ele>606</ele>
        <time>2022-09-08T10:39:31Z</time>
      </trkpt>
      <trkpt lat="45.42875" lon="4.23324">
        <ele>609</ele>
        <time>2022-09-08T10:39:37Z</time>
      </trkpt>
      <trkpt lat="45.42889" lon="4.23245">
        <ele>604</ele>
        <time>2022-09-08T10:39:48Z</time>
      </trkpt>
      <trkpt lat="45.42887" lon="4.2322">
        <ele>605</ele>
        <time>2022-09-08T10:39:51Z</time>
      </trkpt>
      <trkpt lat="45.42881" lon="4.23201">
        <ele>607</ele>
        <time>2022-09-08T10:39:53Z</time>
      </trkpt>
      <trkpt lat="45.42852" lon="4.23164">
        <ele>618</ele>
        <time>2022-09-08T10:40:00Z</time>
      </trkpt>
      <trkpt lat="45.42845" lon="4.2315">
        <ele>620</ele>
        <time>2022-09-08T10:40:02Z</time>
      </trkpt>
      <trkpt lat="45.42842" lon="4.23135">
        <ele>620</ele>
        <time>2022-09-08T10:40:04Z</time>
      </trkpt>
      <trkpt lat="45.42842" lon="4.23121">
        <ele>619</ele>
        <time>2022-09-08T10:40:06Z</time>
      </trkpt>
      <trkpt lat="45.42845" lon="4.23108">
        <ele>618</ele>
        <time>2022-09-08T10:40:08Z</time>
      </trkpt>
      <trkpt lat="45.42854" lon="4.23091">
        <ele>617</ele>
        <time>2022-09-08T10:40:10Z</time>
      </trkpt>
      <trkpt lat="45.42858" lon="4.23088">
        <ele>616</ele>
        <time>2022-09-08T10:40:11Z</time>
      </trkpt>
      <trkpt lat="45.42866" lon="4.23086">
        <ele>616</ele>
        <time>2022-09-08T10:40:13Z</time>
      </trkpt>
      <trkpt lat="45.42887" lon="4.23089">
        <ele>614</ele>
        <time>2022-09-08T10:40:16Z</time>
      </trkpt>
      <trkpt lat="45.4298" lon="4.23124">
        <ele>612</ele>
        <time>2022-09-08T10:40:34Z</time>
      </trkpt>
      <trkpt lat="45.43006" lon="4.23137">
        <ele>611</ele>
        <time>2022-09-08T10:40:38Z</time>
      </trkpt>
      <trkpt lat="45.4303" lon="4.23167">
        <ele>608</ele>
        <time>2022-09-08T10:40:44Z</time>
      </trkpt>
      <trkpt lat="45.43043" lon="4.23216">
        <ele>601</ele>
        <time>2022-09-08T10:40:51Z</time>
      </trkpt>
      <trkpt lat="45.43049" lon="4.23227">
        <ele>600</ele>
        <time>2022-09-08T10:40:52Z</time>
      </trkpt>
      <trkpt lat="45.43058" lon="4.23237">
        <ele>601</ele>
        <time>2022-09-08T10:40:54Z</time>
      </trkpt>
      <trkpt lat="45.43082" lon="4.23253">
        <ele>605</ele>
        <time>2022-09-08T10:40:59Z</time>
      </trkpt>
      <trkpt lat="45.43122" lon="4.23274">
        <ele>608</ele>
        <time>2022-09-08T10:41:07Z</time>
      </trkpt>
      <trkpt lat="45.43197" lon="4.23307">
        <ele>611</ele>
        <time>2022-09-08T10:41:21Z</time>
      </trkpt>
      <trkpt lat="45.43237" lon="4.23332">
        <ele>608</ele>
        <time>2022-09-08T10:41:29Z</time>
      </trkpt>
      <trkpt lat="45.43253" lon="4.23336">
        <ele>609</ele>
        <time>2022-09-08T10:41:31Z</time>
      </trkpt>
      <trkpt lat="45.43262" lon="4.23335">
        <ele>609</ele>
        <time>2022-09-08T10:41:33Z</time>
      </trkpt>
      <trkpt lat="45.43284" lon="4.23321">
        <ele>615</ele>
        <time>2022-09-08T10:41:37Z</time>
      </trkpt>
      <trkpt lat="45.43321" lon="4.2329">
        <ele>626</ele>
        <time>2022-09-08T10:41:45Z</time>
      </trkpt>
      <trkpt lat="45.43331" lon="4.23289">
        <ele>627</ele>
        <time>2022-09-08T10:41:47Z</time>
      </trkpt>
      <trkpt lat="45.4334" lon="4.23291">
        <ele>627</ele>
        <time>2022-09-08T10:41:48Z</time>
      </trkpt>
      <trkpt lat="45.43356" lon="4.23309">
        <ele>624</ele>
        <time>2022-09-08T10:41:52Z</time>
      </trkpt>
      <trkpt lat="45.43373" lon="4.23341">
        <ele>617</ele>
        <time>2022-09-08T10:41:57Z</time>
      </trkpt>
      <trkpt lat="45.43381" lon="4.23348">
        <ele>618</ele>
        <time>2022-09-08T10:41:59Z</time>
      </trkpt>
      <trkpt lat="45.43416" lon="4.23363">
        <ele>624</ele>
        <time>2022-09-08T10:42:05Z</time>
      </trkpt>
      <trkpt lat="45.43427" lon="4.23372">
        <ele>626</ele>
        <time>2022-09-08T10:42:07Z</time>
      </trkpt>
      <trkpt lat="45.43432" lon="4.23384">
        <ele>625</ele>
        <time>2022-09-08T10:42:09Z</time>
      </trkpt>
      <trkpt lat="45.43434" lon="4.23398">
        <ele>623</ele>
        <time>2022-09-08T10:42:11Z</time>
      </trkpt>
      <trkpt lat="45.43434" lon="4.23455">
        <ele>615</ele>
        <time>2022-09-08T10:42:18Z</time>
      </trkpt>
      <trkpt lat="45.43437" lon="4.23475">
        <ele>614</ele>
        <time>2022-09-08T10:42:21Z</time>
      </trkpt>
      <trkpt lat="45.43448" lon="4.23499">
        <ele>613</ele>
        <time>2022-09-08T10:42:24Z</time>
      </trkpt>
      <trkpt lat="45.4346" lon="4.23508">
        <ele>614</ele>
        <time>2022-09-08T10:42:27Z</time>
      </trkpt>
      <trkpt lat="45.4353" lon="4.23524">
        <ele>622</ele>
        <time>2022-09-08T10:42:39Z</time>
      </trkpt>
      <trkpt lat="45.43541" lon="4.23531">
        <ele>621</ele>
        <time>2022-09-08T10:42:41Z</time>
      </trkpt>
      <trkpt lat="45.4356" lon="4.23555">
        <ele>618</ele>
        <time>2022-09-08T10:42:46Z</time>
      </trkpt>
      <trkpt lat="45.43579" lon="4.2357">
        <ele>618</ele>
        <time>2022-09-08T10:42:50Z</time>
      </trkpt>
      <trkpt lat="45.43586" lon="4.2357">
        <ele>619</ele>
        <time>2022-09-08T10:42:51Z</time>
      </trkpt>
      <trkpt lat="45.43604" lon="4.23559">
        <ele>621</ele>
        <time>2022-09-08T10:42:54Z</time>
      </trkpt>
      <trkpt lat="45.43613" lon="4.23546">
        <ele>625</ele>
        <time>2022-09-08T10:42:57Z</time>
      </trkpt>
      <trkpt lat="45.4363" lon="4.23509">
        <ele>636</ele>
        <time>2022-09-08T10:43:02Z</time>
      </trkpt>
      <trkpt lat="45.43645" lon="4.235">
        <ele>638</ele>
        <time>2022-09-08T10:43:05Z</time>
      </trkpt>
      <trkpt lat="45.43662" lon="4.23504">
        <ele>638</ele>
        <time>2022-09-08T10:43:08Z</time>
      </trkpt>
      <trkpt lat="45.4375" lon="4.23592">
        <ele>630</ele>
        <time>2022-09-08T10:43:27Z</time>
      </trkpt>
      <trkpt lat="45.43787" lon="4.23611">
        <ele>634</ele>
        <time>2022-09-08T10:43:34Z</time>
      </trkpt>
      <trkpt lat="45.43815" lon="4.23634">
        <ele>633</ele>
        <time>2022-09-08T10:43:40Z</time>
      </trkpt>
      <trkpt lat="45.43835" lon="4.23644">
        <ele>634</ele>
        <time>2022-09-08T10:43:44Z</time>
      </trkpt>
      <trkpt lat="45.4395" lon="4.23663">
        <ele>638</ele>
        <time>2022-09-08T10:44:04Z</time>
      </trkpt>
      <trkpt lat="45.43993" lon="4.23675">
        <ele>637</ele>
        <time>2022-09-08T10:44:12Z</time>
      </trkpt>
      <trkpt lat="45.4409" lon="4.23727">
        <ele>633</ele>
        <time>2022-09-08T10:44:31Z</time>
      </trkpt>
      <trkpt lat="45.44139" lon="4.23744">
        <ele>633</ele>
        <time>2022-09-08T10:44:40Z</time>
      </trkpt>
      <trkpt lat="45.44179" lon="4.23754">
        <ele>634</ele>
        <time>2022-09-08T10:44:47Z</time>
      </trkpt>
      <trkpt lat="45.44223" lon="4.23753">
        <ele>633</ele>
        <time>2022-09-08T10:44:55Z</time>
      </trkpt>
      <trkpt lat="45.44294" lon="4.23757">
        <ele>630</ele>
        <time>2022-09-08T10:45:07Z</time>
      </trkpt>
      <trkpt lat="45.44323" lon="4.23755">
        <ele>628</ele>
        <time>2022-09-08T10:45:13Z</time>
      </trkpt>
      <trkpt lat="45.44346" lon="4.2375">
        <ele>627</ele>
        <time>2022-09-08T10:45:17Z</time>
      </trkpt>
      <trkpt lat="45.44367" lon="4.23742">
        <ele>625</ele>
        <time>2022-09-08T10:45:21Z</time>
      </trkpt>
      <trkpt lat="45.44385" lon="4.23732">
        <ele>625</ele>
        <time>2022-09-08T10:45:24Z</time>
      </trkpt>
      <trkpt lat="45.44404" lon="4.23718">
        <ele>624</ele>
        <time>2022-09-08T10:45:28Z</time>
      </trkpt>
      <trkpt lat="45.44443" lon="4.2367">
        <ele>623</ele>
        <time>2022-09-08T10:45:37Z</time>
      </trkpt>
      <trkpt lat="45.44466" lon="4.23646">
        <ele>623</ele>
        <time>2022-09-08T10:45:42Z</time>
      </trkpt>
      <trkpt lat="45.44491" lon="4.23627">
        <ele>622</ele>
        <time>2022-09-08T10:45:47Z</time>
      </trkpt>
      <trkpt lat="45.44531" lon="4.236">
        <ele>621</ele>
        <time>2022-09-08T10:45:55Z</time>
      </trkpt>
      <trkpt lat="45.44611" lon="4.23561">
        <ele>617</ele>
        <time>2022-09-08T10:46:10Z</time>
      </trkpt>
      <trkpt lat="45.44785" lon="4.23457">
        <ele>615</ele>
        <time>2022-09-08T10:46:44Z</time>
      </trkpt>
      <trkpt lat="45.44803" lon="4.23441">
        <ele>614</ele>
        <time>2022-09-08T10:46:47Z</time>
      </trkpt>
      <trkpt lat="45.44854" lon="4.23368">
        <ele>611</ele>
        <time>2022-09-08T10:47:00Z</time>
      </trkpt>
      <trkpt lat="45.44844" lon="4.23358">
        <ele>611</ele>
        <time>2022-09-08T10:47:02Z</time>
      </trkpt>
      <trkpt lat="45.44839" lon="4.23358">
        <ele>612</ele>
        <time>2022-09-08T10:47:03Z</time>
      </trkpt>
      <trkpt lat="45.44806" lon="4.2338">
        <ele>614</ele>
        <time>2022-09-08T10:47:10Z</time>
      </trkpt>
      <trkpt lat="45.44791" lon="4.23386">
        <ele>615</ele>
        <time>2022-09-08T10:47:13Z</time>
      </trkpt>
      <trkpt lat="45.44768" lon="4.23386">
        <ele>616</ele>
        <time>2022-09-08T10:47:17Z</time>
      </trkpt>
      <trkpt lat="45.44565" lon="4.23354">
        <ele>632</ele>
        <time>2022-09-08T10:47:53Z</time>
      </trkpt>
      <trkpt lat="45.44487" lon="4.23334">
        <ele>640</ele>
        <time>2022-09-08T10:48:07Z</time>
      </trkpt>
      <trkpt lat="45.44331" lon="4.23288">
        <ele>652</ele>
        <time>2022-09-08T10:48:35Z</time>
      </trkpt>
      <trkpt lat="45.44302" lon="4.23284">
        <ele>656</ele>
        <time>2022-09-08T10:48:41Z</time>
      </trkpt>
      <trkpt lat="45.44265" lon="4.23288">
        <ele>662</ele>
        <time>2022-09-08T10:48:47Z</time>
      </trkpt>
      <trkpt lat="45.44221" lon="4.23289">
        <ele>668</ele>
        <time>2022-09-08T10:48:55Z</time>
      </trkpt>
      <trkpt lat="45.44173" lon="4.23262">
        <ele>675</ele>
        <time>2022-09-08T10:49:04Z</time>
      </trkpt>
      <trkpt lat="45.44082" lon="4.23216">
        <ele>684</ele>
        <time>2022-09-08T10:49:21Z</time>
      </trkpt>
      <trkpt lat="45.43992" lon="4.2323">
        <ele>692</ele>
        <time>2022-09-08T10:49:37Z</time>
      </trkpt>
      <trkpt lat="45.4396" lon="4.2322">
        <ele>693</ele>
        <time>2022-09-08T10:49:43Z</time>
      </trkpt>
      <trkpt lat="45.43911" lon="4.23189">
        <ele>696</ele>
        <time>2022-09-08T10:49:53Z</time>
      </trkpt>
      <trkpt lat="45.43858" lon="4.23142">
        <ele>701</ele>
        <time>2022-09-08T10:50:04Z</time>
      </trkpt>
      <trkpt lat="45.43815" lon="4.23119">
        <ele>702</ele>
        <time>2022-09-08T10:50:12Z</time>
      </trkpt>
      <trkpt lat="45.43748" lon="4.2307">
        <ele>700</ele>
        <time>2022-09-08T10:50:26Z</time>
      </trkpt>
      <trkpt lat="45.43687" lon="4.23007">
        <ele>703</ele>
        <time>2022-09-08T10:50:39Z</time>
      </trkpt>
      <trkpt lat="45.43652" lon="4.22987">
        <ele>704</ele>
        <time>2022-09-08T10:50:46Z</time>
      </trkpt>
      <trkpt lat="45.43615" lon="4.22944">
        <ele>705</ele>
        <time>2022-09-08T10:50:54Z</time>
      </trkpt>
      <trkpt lat="45.43586" lon="4.22889">
        <ele>703</ele>
        <time>2022-09-08T10:51:03Z</time>
      </trkpt>
      <trkpt lat="45.43553" lon="4.2284">
        <ele>702</ele>
        <time>2022-09-08T10:51:11Z</time>
      </trkpt>
      <trkpt lat="45.43518" lon="4.22819">
        <ele>703</ele>
        <time>2022-09-08T10:51:18Z</time>
      </trkpt>
      <trkpt lat="45.43436" lon="4.22781">
        <ele>705</ele>
        <time>2022-09-08T10:51:33Z</time>
      </trkpt>
      <trkpt lat="45.43403" lon="4.22759">
        <ele>707</ele>
        <time>2022-09-08T10:51:40Z</time>
      </trkpt>
      <trkpt lat="45.43317" lon="4.22663">
        <ele>718</ele>
        <time>2022-09-08T10:51:59Z</time>
      </trkpt>
      <trkpt lat="45.4329" lon="4.22623">
        <ele>724</ele>
        <time>2022-09-08T10:52:06Z</time>
      </trkpt>
      <trkpt lat="45.43257" lon="4.22551">
        <ele>729</ele>
        <time>2022-09-08T10:52:17Z</time>
      </trkpt>
      <trkpt lat="45.43161" lon="4.22405">
        <ele>732</ele>
        <time>2022-09-08T10:52:42Z</time>
      </trkpt>
      <trkpt lat="45.43158" lon="4.22295">
        <ele>728</ele>
        <time>2022-09-08T10:52:56Z</time>
      </trkpt>
      <trkpt lat="45.43103" lon="4.22155">
        <ele>727</ele>
        <time>2022-09-08T10:53:16Z</time>
      </trkpt>
      <trkpt lat="45.43089" lon="4.22073">
        <ele>727</ele>
        <time>2022-09-08T10:53:26Z</time>
      </trkpt>
      <trkpt lat="45.43077" lon="4.21935">
        <ele>724</ele>
        <time>2022-09-08T10:53:44Z</time>
      </trkpt>
      <trkpt lat="45.43043" lon="4.21854">
        <ele>720</ele>
        <time>2022-09-08T10:53:55Z</time>
      </trkpt>
      <trkpt lat="45.43021" lon="4.2183">
        <ele>719</ele>
        <time>2022-09-08T10:54:00Z</time>
      </trkpt>
      <trkpt lat="45.43026" lon="4.21828">
        <ele>719</ele>
        <time>2022-09-08T10:54:01Z</time>
      </trkpt>
      <trkpt lat="45.42994" lon="4.21841">
        <ele>719</ele>
        <time>2022-09-08T10:54:07Z</time>
      </trkpt>
      <trkpt lat="45.42975" lon="4.21843">
        <ele>719</ele>
        <time>2022-09-08T10:54:11Z</time>
      </trkpt>
      <trkpt lat="45.4296" lon="4.2184">
        <ele>720</ele>
        <time>2022-09-08T10:54:13Z</time>
      </trkpt>
      <trkpt lat="45.42927" lon="4.21813">
        <ele>720</ele>
        <time>2022-09-08T10:54:20Z</time>
      </trkpt>
      <trkpt lat="45.42888" lon="4.21773">
        <ele>721</ele>
        <time>2022-09-08T10:54:29Z</time>
      </trkpt>
      <trkpt lat="45.42842" lon="4.21718">
        <ele>722</ele>
        <time>2022-09-08T10:54:39Z</time>
      </trkpt>
      <trkpt lat="45.42796" lon="4.21673">
        <ele>724</ele>
        <time>2022-09-08T10:54:49Z</time>
      </trkpt>
      <trkpt lat="45.42703" lon="4.21619">
        <ele>727</ele>
        <time>2022-09-08T10:55:07Z</time>
      </trkpt>
      <trkpt lat="45.42661" lon="4.21581">
        <ele>727</ele>
        <time>2022-09-08T10:55:16Z</time>
      </trkpt>
      <trkpt lat="45.42621" lon="4.21523">
        <ele>727</ele>
        <time>2022-09-08T10:55:26Z</time>
      </trkpt>
      <trkpt lat="45.42583" lon="4.21477">
        <ele>727</ele>
        <time>2022-09-08T10:55:35Z</time>
      </trkpt>
      <trkpt lat="45.42546" lon="4.21453">
        <ele>727</ele>
        <time>2022-09-08T10:55:42Z</time>
      </trkpt>
      <trkpt lat="45.42512" lon="4.21447">
        <ele>727</ele>
        <time>2022-09-08T10:55:48Z</time>
      </trkpt>
      <trkpt lat="45.42425" lon="4.21423">
        <ele>729</ele>
        <time>2022-09-08T10:56:04Z</time>
      </trkpt>
      <trkpt lat="45.42388" lon="4.21425">
        <ele>731</ele>
        <time>2022-09-08T10:56:11Z</time>
      </trkpt>
      <trkpt lat="45.42359" lon="4.21434">
        <ele>733</ele>
        <time>2022-09-08T10:56:16Z</time>
      </trkpt>
      <trkpt lat="45.42319" lon="4.21451">
        <ele>735</ele>
        <time>2022-09-08T10:56:23Z</time>
      </trkpt>
      <trkpt lat="45.42282" lon="4.21456">
        <ele>737</ele>
        <time>2022-09-08T10:56:30Z</time>
      </trkpt>
      <trkpt lat="45.42247" lon="4.21446">
        <ele>738</ele>
        <time>2022-09-08T10:56:36Z</time>
      </trkpt>
      <trkpt lat="45.42207" lon="4.21449">
        <ele>739</ele>
        <time>2022-09-08T10:56:43Z</time>
      </trkpt>
      <trkpt lat="45.42154" lon="4.21495">
        <ele>740</ele>
        <time>2022-09-08T10:56:54Z</time>
      </trkpt>
      <trkpt lat="45.42124" lon="4.21504">
        <ele>740</ele>
        <time>2022-09-08T10:57:00Z</time>
      </trkpt>
      <trkpt lat="45.42082" lon="4.21495">
        <ele>740</ele>
        <time>2022-09-08T10:57:07Z</time>
      </trkpt>
      <trkpt lat="45.42037" lon="4.21482">
        <ele>740</ele>
        <time>2022-09-08T10:57:16Z</time>
      </trkpt>
      <trkpt lat="45.41971" lon="4.21452">
        <ele>740</ele>
        <time>2022-09-08T10:57:28Z</time>
      </trkpt>
      <trkpt lat="45.4194" lon="4.21441">
        <ele>741</ele>
        <time>2022-09-08T10:57:34Z</time>
      </trkpt>
      <trkpt lat="45.4188" lon="4.21449">
        <ele>742</ele>
        <time>2022-09-08T10:57:44Z</time>
      </trkpt>
      <trkpt lat="45.41812" lon="4.21452">
        <ele>744</ele>
        <time>2022-09-08T10:57:56Z</time>
      </trkpt>
      <trkpt lat="45.41757" lon="4.21462">
        <ele>747</ele>
        <time>2022-09-08T10:58:06Z</time>
      </trkpt>
      <trkpt lat="45.4163" lon="4.21491">
        <ele>759</ele>
        <time>2022-09-08T10:58:29Z</time>
      </trkpt>
      <trkpt lat="45.4159" lon="4.21503">
        <ele>763</ele>
        <time>2022-09-08T10:58:36Z</time>
      </trkpt>
      <trkpt lat="45.41562" lon="4.21503">
        <ele>765</ele>
        <time>2022-09-08T10:58:41Z</time>
      </trkpt>
      <trkpt lat="45.41541" lon="4.21496">
        <ele>765</ele>
        <time>2022-09-08T10:58:45Z</time>
      </trkpt>
      <trkpt lat="45.4153" lon="4.21486">
        <ele>766</ele>
        <time>2022-09-08T10:58:48Z</time>
      </trkpt>
      <trkpt lat="45.41517" lon="4.21448">
        <ele>766</ele>
        <time>2022-09-08T10:58:53Z</time>
      </trkpt>
      <trkpt lat="45.41514" lon="4.21374">
        <ele>764</ele>
        <time>2022-09-08T10:59:02Z</time>
      </trkpt>
      <trkpt lat="45.41504" lon="4.2131">
        <ele>763</ele>
        <time>2022-09-08T10:59:10Z</time>
      </trkpt>
      <trkpt lat="45.41503" lon="4.21252">
        <ele>762</ele>
        <time>2022-09-08T10:59:18Z</time>
      </trkpt>
      <trkpt lat="45.41498" lon="4.21236">
        <ele>761</ele>
        <time>2022-09-08T10:59:20Z</time>
      </trkpt>
      <trkpt lat="45.4148" lon="4.2122">
        <ele>761</ele>
        <time>2022-09-08T10:59:24Z</time>
      </trkpt>
      <trkpt lat="45.41456" lon="4.21206">
        <ele>760</ele>
        <time>2022-09-08T10:59:28Z</time>
      </trkpt>
      <trkpt lat="45.41419" lon="4.21196">
        <ele>759</ele>
        <time>2022-09-08T10:59:35Z</time>
      </trkpt>
      <trkpt lat="45.41388" lon="4.2118">
        <ele>758</ele>
        <time>2022-09-08T10:59:41Z</time>
      </trkpt>
      <trkpt lat="45.41331" lon="4.21137">
        <ele>754</ele>
        <time>2022-09-08T10:59:52Z</time>
      </trkpt>
      <trkpt lat="45.41318" lon="4.2112">
        <ele>754</ele>
        <time>2022-09-08T10:59:55Z</time>
      </trkpt>
      <trkpt lat="45.41287" lon="4.2106">
        <ele>753</ele>
        <time>2022-09-08T11:00:05Z</time>
      </trkpt>
      <trkpt lat="45.41267" lon="4.21008">
        <ele>754</ele>
        <time>2022-09-08T11:00:12Z</time>
      </trkpt>
      <trkpt lat="45.41249" lon="4.20947">
        <ele>754</ele>
        <time>2022-09-08T11:00:20Z</time>
      </trkpt>
      <trkpt lat="45.41234" lon="4.20921">
        <ele>753</ele>
        <time>2022-09-08T11:00:25Z</time>
      </trkpt>
      <trkpt lat="45.41224" lon="4.20908">
        <ele>753</ele>
        <time>2022-09-08T11:00:27Z</time>
      </trkpt>
      <trkpt lat="45.41155" lon="4.20861">
        <ele>754</ele>
        <time>2022-09-08T11:00:41Z</time>
      </trkpt>
      <trkpt lat="45.41115" lon="4.20828">
        <ele>753</ele>
        <time>2022-09-08T11:00:49Z</time>
      </trkpt>
      <trkpt lat="45.41059" lon="4.20764">
        <ele>751</ele>
        <time>2022-09-08T11:01:02Z</time>
      </trkpt>
      <trkpt lat="45.41035" lon="4.20726">
        <ele>751</ele>
        <time>2022-09-08T11:01:08Z</time>
      </trkpt>
      <trkpt lat="45.41024" lon="4.20722">
        <ele>751</ele>
        <time>2022-09-08T11:01:10Z</time>
      </trkpt>
      <trkpt lat="45.40998" lon="4.20734">
        <ele>750</ele>
        <time>2022-09-08T11:01:15Z</time>
      </trkpt>
      <trkpt lat="45.40981" lon="4.20748">
        <ele>750</ele>
        <time>2022-09-08T11:01:18Z</time>
      </trkpt>
      <trkpt lat="45.40945" lon="4.2059">
        <ele>754</ele>
        <time>2022-09-08T11:01:39Z</time>
      </trkpt>
      <trkpt lat="45.40832" lon="4.20137">
        <ele>764</ele>
        <time>2022-09-08T11:02:39Z</time>
      </trkpt>
      <trkpt lat="45.40827" lon="4.20084">
        <ele>765</ele>
        <time>2022-09-08T11:02:46Z</time>
      </trkpt>
      <trkpt lat="45.40822" lon="4.19848">
        <ele>774</ele>
        <time>2022-09-08T11:03:15Z</time>
      </trkpt>
      <trkpt lat="45.40816" lon="4.19765">
        <ele>776</ele>
        <time>2022-09-08T11:03:26Z</time>
      </trkpt>
      <trkpt lat="45.40805" lon="4.19692">
        <ele>777</ele>
        <time>2022-09-08T11:03:35Z</time>
      </trkpt>
      <trkpt lat="45.40795" lon="4.19657">
        <ele>777</ele>
        <time>2022-09-08T11:03:40Z</time>
      </trkpt>
      <trkpt lat="45.40781" lon="4.19616">
        <ele>776</ele>
        <time>2022-09-08T11:03:45Z</time>
      </trkpt>
      <trkpt lat="45.40741" lon="4.19542">
        <ele>775</ele>
        <time>2022-09-08T11:03:57Z</time>
      </trkpt>
      <trkpt lat="45.40473" lon="4.19163">
        <ele>777</ele>
        <time>2022-09-08T11:05:04Z</time>
      </trkpt>
      <trkpt lat="45.40453" lon="4.1913">
        <ele>778</ele>
        <time>2022-09-08T11:05:10Z</time>
      </trkpt>
      <trkpt lat="45.40436" lon="4.19093">
        <ele>779</ele>
        <time>2022-09-08T11:05:15Z</time>
      </trkpt>
      <trkpt lat="45.40348" lon="4.18831">
        <ele>785</ele>
        <time>2022-09-08T11:05:52Z</time>
      </trkpt>
      <trkpt lat="45.40337" lon="4.18771">
        <ele>787</ele>
        <time>2022-09-08T11:05:59Z</time>
      </trkpt>
      <trkpt lat="45.40335" lon="4.18692">
        <ele>789</ele>
        <time>2022-09-08T11:06:09Z</time>
      </trkpt>
      <trkpt lat="45.4034" lon="4.18351">
        <ele>795</ele>
        <time>2022-09-08T11:06:52Z</time>
      </trkpt>
      <trkpt lat="45.40335" lon="4.18315">
        <ele>795</ele>
        <time>2022-09-08T11:06:56Z</time>
      </trkpt>
      <trkpt lat="45.4032" lon="4.18262">
        <ele>794</ele>
        <time>2022-09-08T11:07:03Z</time>
      </trkpt>
      <trkpt lat="45.4031" lon="4.1824">
        <ele>794</ele>
        <time>2022-09-08T11:07:07Z</time>
      </trkpt>
      <trkpt lat="45.40299" lon="4.18222">
        <ele>793</ele>
        <time>2022-09-08T11:07:10Z</time>
      </trkpt>
      <trkpt lat="45.4029" lon="4.18212">
        <ele>793</ele>
        <time>2022-09-08T11:07:12Z</time>
      </trkpt>
      <trkpt lat="45.40279" lon="4.18208">
        <ele>792</ele>
        <time>2022-09-08T11:07:14Z</time>
      </trkpt>
      <trkpt lat="45.40247" lon="4.18205">
        <ele>792</ele>
        <time>2022-09-08T11:07:20Z</time>
      </trkpt>
      <trkpt lat="45.40191" lon="4.18213">
        <ele>792</ele>
        <time>2022-09-08T11:07:30Z</time>
      </trkpt>
      <trkpt lat="45.40181" lon="4.1821">
        <ele>791</ele>
        <time>2022-09-08T11:07:31Z</time>
      </trkpt>
      <trkpt lat="45.40148" lon="4.1819">
        <ele>789</ele>
        <time>2022-09-08T11:07:38Z</time>
      </trkpt>
      <trkpt lat="45.40148" lon="4.18173">
        <ele>788</ele>
        <time>2022-09-08T11:07:40Z</time>
      </trkpt>
      <trkpt lat="45.40115" lon="4.18092">
        <ele>781</ele>
        <time>2022-09-08T11:07:52Z</time>
      </trkpt>
      <trkpt lat="45.40107" lon="4.18083">
        <ele>781</ele>
        <time>2022-09-08T11:07:53Z</time>
      </trkpt>
      <trkpt lat="45.40074" lon="4.18065">
        <ele>781</ele>
        <time>2022-09-08T11:08:00Z</time>
      </trkpt>
      <trkpt lat="45.40065" lon="4.18056">
        <ele>781</ele>
        <time>2022-09-08T11:08:02Z</time>
      </trkpt>
      <trkpt lat="45.4004" lon="4.18">
        <ele>781</ele>
        <time>2022-09-08T11:08:10Z</time>
      </trkpt>
      <trkpt lat="45.40045" lon="4.17967">
        <ele>780</ele>
        <time>2022-09-08T11:08:14Z</time>
      </trkpt>
      <trkpt lat="45.40067" lon="4.17894">
        <ele>778</ele>
        <time>2022-09-08T11:08:24Z</time>
      </trkpt>
      <trkpt lat="45.40079" lon="4.17826">
        <ele>775</ele>
        <time>2022-09-08T11:08:33Z</time>
      </trkpt>
      <trkpt lat="45.40088" lon="4.17709">
        <ele>774</ele>
        <time>2022-09-08T11:08:47Z</time>
      </trkpt>
      <trkpt lat="45.40086" lon="4.17653">
        <ele>772</ele>
        <time>2022-09-08T11:08:55Z</time>
      </trkpt>
      <trkpt lat="45.40082" lon="4.17636">
        <ele>771</ele>
        <time>2022-09-08T11:08:57Z</time>
      </trkpt>
      <trkpt lat="45.40077" lon="4.17622">
        <ele>770</ele>
        <time>2022-09-08T11:08:59Z</time>
      </trkpt>
      <trkpt lat="45.4007" lon="4.17613">
        <ele>770</ele>
        <time>2022-09-08T11:09:00Z</time>
      </trkpt>
      <trkpt lat="45.39995" lon="4.1754">
        <ele>769</ele>
        <time>2022-09-08T11:09:17Z</time>
      </trkpt>
      <trkpt lat="45.39979" lon="4.17527">
        <ele>768</ele>
        <time>2022-09-08T11:09:20Z</time>
      </trkpt>
      <trkpt lat="45.39967" lon="4.17521">
        <ele>768</ele>
        <time>2022-09-08T11:09:22Z</time>
      </trkpt>
      <trkpt lat="45.39924" lon="4.17512">
        <ele>768</ele>
        <time>2022-09-08T11:09:30Z</time>
      </trkpt>
      <trkpt lat="45.39909" lon="4.17504">
        <ele>768</ele>
        <time>2022-09-08T11:09:33Z</time>
      </trkpt>
      <trkpt lat="45.39898" lon="4.17494">
        <ele>768</ele>
        <time>2022-09-08T11:09:35Z</time>
      </trkpt>
      <trkpt lat="45.39892" lon="4.17477">
        <ele>769</ele>
        <time>2022-09-08T11:09:37Z</time>
      </trkpt>
      <trkpt lat="45.39888" lon="4.17447">
        <ele>770</ele>
        <time>2022-09-08T11:09:41Z</time>
      </trkpt>
      <trkpt lat="45.3989" lon="4.17428">
        <ele>771</ele>
        <time>2022-09-08T11:09:44Z</time>
      </trkpt>
      <trkpt lat="45.39902" lon="4.17389">
        <ele>771</ele>
        <time>2022-09-08T11:09:49Z</time>
      </trkpt>
      <trkpt lat="45.39916" lon="4.17357">
        <ele>771</ele>
        <time>2022-09-08T11:09:54Z</time>
      </trkpt>
      <trkpt lat="45.39969" lon="4.1726">
        <ele>770</ele>
        <time>2022-09-08T11:10:09Z</time>
      </trkpt>
      <trkpt lat="45.39978" lon="4.17238">
        <ele>769</ele>
        <time>2022-09-08T11:10:12Z</time>
      </trkpt>
      <trkpt lat="45.39981" lon="4.17222">
        <ele>769</ele>
        <time>2022-09-08T11:10:14Z</time>
      </trkpt>
      <trkpt lat="45.39983" lon="4.17202">
        <ele>769</ele>
        <time>2022-09-08T11:10:17Z</time>
      </trkpt>
      <trkpt lat="45.39975" lon="4.1713">
        <ele>772</ele>
        <time>2022-09-08T11:10:26Z</time>
      </trkpt>
      <trkpt lat="45.39976" lon="4.17112">
        <ele>773</ele>
        <time>2022-09-08T11:10:28Z</time>
      </trkpt>
      <trkpt lat="45.39991" lon="4.17041">
        <ele>772</ele>
        <time>2022-09-08T11:10:37Z</time>
      </trkpt>
      <trkpt lat="45.40006" lon="4.16869">
        <ele>773</ele>
        <time>2022-09-08T11:10:59Z</time>
      </trkpt>
      <trkpt lat="45.4" lon="4.16679">
        <ele>768</ele>
        <time>2022-09-08T11:11:23Z</time>
      </trkpt>
      <trkpt lat="45.40016" lon="4.16359">
        <ele>766</ele>
        <time>2022-09-08T11:12:03Z</time>
      </trkpt>
      <trkpt lat="45.40016" lon="4.16324">
        <ele>765</ele>
        <time>2022-09-08T11:12:07Z</time>
      </trkpt>
      <trkpt lat="45.40013" lon="4.16298">
        <ele>764</ele>
        <time>2022-09-08T11:12:11Z</time>
      </trkpt>
      <trkpt lat="45.39995" lon="4.16218">
        <ele>760</ele>
        <time>2022-09-08T11:12:21Z</time>
      </trkpt>
      <trkpt lat="45.39971" lon="4.16151">
        <ele>757</ele>
        <time>2022-09-08T11:12:30Z</time>
      </trkpt>
      <trkpt lat="45.39954" lon="4.1612">
        <ele>756</ele>
        <time>2022-09-08T11:12:35Z</time>
      </trkpt>
      <trkpt lat="45.39911" lon="4.16063">
        <ele>752</ele>
        <time>2022-09-08T11:12:46Z</time>
      </trkpt>
      <trkpt lat="45.39888" lon="4.16044">
        <ele>750</ele>
        <time>2022-09-08T11:12:51Z</time>
      </trkpt>
      <trkpt lat="45.39857" lon="4.16025">
        <ele>748</ele>
        <time>2022-09-08T11:12:57Z</time>
      </trkpt>
      <trkpt lat="45.39769" lon="4.1599">
        <ele>745</ele>
        <time>2022-09-08T11:13:13Z</time>
      </trkpt>
      <trkpt lat="45.39746" lon="4.15965">
        <ele>742</ele>
        <time>2022-09-08T11:13:18Z</time>
      </trkpt>
      <trkpt lat="45.39733" lon="4.15942">
        <ele>740</ele>
        <time>2022-09-08T11:13:22Z</time>
      </trkpt>
      <trkpt lat="45.39722" lon="4.15908">
        <ele>738</ele>
        <time>2022-09-08T11:13:26Z</time>
      </trkpt>
      <trkpt lat="45.3972" lon="4.15892">
        <ele>737</ele>
        <time>2022-09-08T11:13:28Z</time>
      </trkpt>
      <trkpt lat="45.39721" lon="4.15847">
        <ele>735</ele>
        <time>2022-09-08T11:13:34Z</time>
      </trkpt>
      <trkpt lat="45.39726" lon="4.1581">
        <ele>734</ele>
        <time>2022-09-08T11:13:39Z</time>
      </trkpt>
      <trkpt lat="45.39744" lon="4.15745">
        <ele>735</ele>
        <time>2022-09-08T11:13:47Z</time>
      </trkpt>
      <trkpt lat="45.39769" lon="4.15713">
        <ele>736</ele>
        <time>2022-09-08T11:13:53Z</time>
      </trkpt>
      <trkpt lat="45.39832" lon="4.15654">
        <ele>741</ele>
        <time>2022-09-08T11:14:07Z</time>
      </trkpt>
      <trkpt lat="45.39848" lon="4.15635">
        <ele>742</ele>
        <time>2022-09-08T11:14:10Z</time>
      </trkpt>
      <trkpt lat="45.39863" lon="4.15611">
        <ele>742</ele>
        <time>2022-09-08T11:14:15Z</time>
      </trkpt>
      <trkpt lat="45.39881" lon="4.15571">
        <ele>742</ele>
        <time>2022-09-08T11:14:20Z</time>
      </trkpt>
      <trkpt lat="45.39934" lon="4.1541">
        <ele>746</ele>
        <time>2022-09-08T11:14:43Z</time>
      </trkpt>
      <trkpt lat="45.39954" lon="4.15344">
        <ele>745</ele>
        <time>2022-09-08T11:14:52Z</time>
      </trkpt>
      <trkpt lat="45.3996" lon="4.15315">
        <ele>745</ele>
        <time>2022-09-08T11:14:55Z</time>
      </trkpt>
      <trkpt lat="45.39962" lon="4.15281">
        <ele>745</ele>
        <time>2022-09-08T11:15:00Z</time>
      </trkpt>
      <trkpt lat="45.3996" lon="4.15248">
        <ele>746</ele>
        <time>2022-09-08T11:15:04Z</time>
      </trkpt>
      <trkpt lat="45.39938" lon="4.15112">
        <ele>748</ele>
        <time>2022-09-08T11:15:21Z</time>
      </trkpt>
      <trkpt lat="45.39922" lon="4.15037">
        <ele>749</ele>
        <time>2022-09-08T11:15:31Z</time>
      </trkpt>
      <trkpt lat="45.39888" lon="4.14928">
        <ele>748</ele>
        <time>2022-09-08T11:15:46Z</time>
      </trkpt>
      <trkpt lat="45.39884" lon="4.14894">
        <ele>748</ele>
        <time>2022-09-08T11:15:50Z</time>
      </trkpt>
      <trkpt lat="45.39886" lon="4.14863">
        <ele>748</ele>
        <time>2022-09-08T11:15:54Z</time>
      </trkpt>
      <trkpt lat="45.39906" lon="4.14797">
        <ele>746</ele>
        <time>2022-09-08T11:16:03Z</time>
      </trkpt>
      <trkpt lat="45.39925" lon="4.14744">
        <ele>745</ele>
        <time>2022-09-08T11:16:11Z</time>
      </trkpt>
      <trkpt lat="45.3994" lon="4.14716">
        <ele>745</ele>
        <time>2022-09-08T11:16:15Z</time>
      </trkpt>
      <trkpt lat="45.39956" lon="4.14694">
        <ele>745</ele>
        <time>2022-09-08T11:16:19Z</time>
      </trkpt>
      <trkpt lat="45.39973" lon="4.14676">
        <ele>744</ele>
        <time>2022-09-08T11:16:23Z</time>
      </trkpt>
      <trkpt lat="45.40021" lon="4.1465">
        <ele>743</ele>
        <time>2022-09-08T11:16:32Z</time>
      </trkpt>
      <trkpt lat="45.40064" lon="4.1463">
        <ele>742</ele>
        <time>2022-09-08T11:16:40Z</time>
      </trkpt>
      <trkpt lat="45.40109" lon="4.14614">
        <ele>741</ele>
        <time>2022-09-08T11:16:48Z</time>
      </trkpt>
      <trkpt lat="45.40188" lon="4.14568">
        <ele>740</ele>
        <time>2022-09-08T11:17:03Z</time>
      </trkpt>
      <trkpt lat="45.40289" lon="4.14523">
        <ele>732</ele>
        <time>2022-09-08T11:17:22Z</time>
      </trkpt>
      <trkpt lat="45.40333" lon="4.14512">
        <ele>726</ele>
        <time>2022-09-08T11:17:30Z</time>
      </trkpt>
      <trkpt lat="45.40346" lon="4.14504">
        <ele>725</ele>
        <time>2022-09-08T11:17:33Z</time>
      </trkpt>
      <trkpt lat="45.40373" lon="4.14481">
        <ele>721</ele>
        <time>2022-09-08T11:17:38Z</time>
      </trkpt>
      <trkpt lat="45.40388" lon="4.14465">
        <ele>719</ele>
        <time>2022-09-08T11:17:42Z</time>
      </trkpt>
      <trkpt lat="45.40398" lon="4.14446">
        <ele>718</ele>
        <time>2022-09-08T11:17:45Z</time>
      </trkpt>
      <trkpt lat="45.40403" lon="4.14406">
        <ele>717</ele>
        <time>2022-09-08T11:17:50Z</time>
      </trkpt>
      <trkpt lat="45.40391" lon="4.14282">
        <ele>713</ele>
        <time>2022-09-08T11:18:05Z</time>
      </trkpt>
      <trkpt lat="45.40375" lon="4.14221">
        <ele>711</ele>
        <time>2022-09-08T11:18:13Z</time>
      </trkpt>
      <trkpt lat="45.4036" lon="4.14197">
        <ele>711</ele>
        <time>2022-09-08T11:18:17Z</time>
      </trkpt>
      <trkpt lat="45.40342" lon="4.14181">
        <ele>711</ele>
        <time>2022-09-08T11:18:21Z</time>
      </trkpt>
      <trkpt lat="45.40259" lon="4.14127">
        <ele>707</ele>
        <time>2022-09-08T11:18:37Z</time>
      </trkpt>
      <trkpt lat="45.40238" lon="4.14111">
        <ele>706</ele>
        <time>2022-09-08T11:18:42Z</time>
      </trkpt>
      <trkpt lat="45.40231" lon="4.14102">
        <ele>706</ele>
        <time>2022-09-08T11:18:43Z</time>
      </trkpt>
      <trkpt lat="45.40229" lon="4.14085">
        <ele>704</ele>
        <time>2022-09-08T11:18:45Z</time>
      </trkpt>
      <trkpt lat="45.40233" lon="4.14076">
        <ele>704</ele>
        <time>2022-09-08T11:18:47Z</time>
      </trkpt>
      <trkpt lat="45.40241" lon="4.14068">
        <ele>704</ele>
        <time>2022-09-08T11:18:49Z</time>
      </trkpt>
      <trkpt lat="45.40265" lon="4.1406">
        <ele>704</ele>
        <time>2022-09-08T11:18:53Z</time>
      </trkpt>
      <trkpt lat="45.40332" lon="4.14051">
        <ele>700</ele>
        <time>2022-09-08T11:19:05Z</time>
      </trkpt>
      <trkpt lat="45.40358" lon="4.14043">
        <ele>698</ele>
        <time>2022-09-08T11:19:10Z</time>
      </trkpt>
      <trkpt lat="45.40397" lon="4.14014">
        <ele>694</ele>
        <time>2022-09-08T11:19:17Z</time>
      </trkpt>
      <trkpt lat="45.40407" lon="4.14002">
        <ele>692</ele>
        <time>2022-09-08T11:19:20Z</time>
      </trkpt>
      <trkpt lat="45.40423" lon="4.13975">
        <ele>691</ele>
        <time>2022-09-08T11:19:24Z</time>
      </trkpt>
      <trkpt lat="45.40462" lon="4.1387">
        <ele>694</ele>
        <time>2022-09-08T11:19:39Z</time>
      </trkpt>
      <trkpt lat="45.40473" lon="4.13855">
        <ele>695</ele>
        <time>2022-09-08T11:19:42Z</time>
      </trkpt>
      <trkpt lat="45.40485" lon="4.13845">
        <ele>696</ele>
        <time>2022-09-08T11:19:44Z</time>
      </trkpt>
      <trkpt lat="45.40498" lon="4.13838">
        <ele>697</ele>
        <time>2022-09-08T11:19:47Z</time>
      </trkpt>
      <trkpt lat="45.4052" lon="4.13833">
        <ele>698</ele>
        <time>2022-09-08T11:19:51Z</time>
      </trkpt>
      <trkpt lat="45.40593" lon="4.13844">
        <ele>703</ele>
        <time>2022-09-08T11:20:04Z</time>
      </trkpt>
      <trkpt lat="45.40603" lon="4.13844">
        <ele>704</ele>
        <time>2022-09-08T11:20:05Z</time>
      </trkpt>
      <trkpt lat="45.40613" lon="4.13835">
        <ele>706</ele>
        <time>2022-09-08T11:20:08Z</time>
      </trkpt>
      <trkpt lat="45.40616" lon="4.13827">
        <ele>707</ele>
        <time>2022-09-08T11:20:09Z</time>
      </trkpt>
      <trkpt lat="45.40616" lon="4.13811">
        <ele>707</ele>
        <time>2022-09-08T11:20:11Z</time>
      </trkpt>
      <trkpt lat="45.40575" lon="4.13732">
        <ele>707</ele>
        <time>2022-09-08T11:20:23Z</time>
      </trkpt>
      <trkpt lat="45.40568" lon="4.13702">
        <ele>708</ele>
        <time>2022-09-08T11:20:27Z</time>
      </trkpt>
      <trkpt lat="45.40569" lon="4.13684">
        <ele>709</ele>
        <time>2022-09-08T11:20:29Z</time>
      </trkpt>
      <trkpt lat="45.40627" lon="4.13517">
        <ele>721</ele>
        <time>2022-09-08T11:20:52Z</time>
      </trkpt>
      <trkpt lat="45.40641" lon="4.13463">
        <ele>724</ele>
        <time>2022-09-08T11:21:00Z</time>
      </trkpt>
      <trkpt lat="45.40651" lon="4.13407">
        <ele>726</ele>
        <time>2022-09-08T11:21:07Z</time>
      </trkpt>
      <trkpt lat="45.4066" lon="4.13373">
        <ele>727</ele>
        <time>2022-09-08T11:21:11Z</time>
      </trkpt>
      <trkpt lat="45.40682" lon="4.13312">
        <ele>727</ele>
        <time>2022-09-08T11:21:20Z</time>
      </trkpt>
      <trkpt lat="45.40715" lon="4.13246">
        <ele>727</ele>
        <time>2022-09-08T11:21:30Z</time>
      </trkpt>
      <trkpt lat="45.4073" lon="4.13209">
        <ele>726</ele>
        <time>2022-09-08T11:21:35Z</time>
      </trkpt>
      <trkpt lat="45.40754" lon="4.13123">
        <ele>724</ele>
        <time>2022-09-08T11:21:47Z</time>
      </trkpt>
      <trkpt lat="45.4076" lon="4.13036">
        <ele>722</ele>
        <time>2022-09-08T11:21:58Z</time>
      </trkpt>
      <trkpt lat="45.40758" lon="4.1288">
        <ele>720</ele>
        <time>2022-09-08T11:22:17Z</time>
      </trkpt>
      <trkpt lat="45.40758" lon="4.12936">
        <ele>721</ele>
        <time>2022-09-08T11:22:24Z</time>
      </trkpt>
      <trkpt lat="45.40795" lon="4.12946">
        <ele>721</ele>
        <time>2022-09-08T11:22:31Z</time>
      </trkpt>
      <trkpt lat="45.40831" lon="4.12949">
        <ele>720</ele>
        <time>2022-09-08T11:22:38Z</time>
      </trkpt>
      <trkpt lat="45.40868" lon="4.12949">
        <ele>722</ele>
        <time>2022-09-08T11:22:44Z</time>
      </trkpt>
      <trkpt lat="45.40896" lon="4.12954">
        <ele>723</ele>
        <time>2022-09-08T11:22:49Z</time>
      </trkpt>
      <trkpt lat="45.40995" lon="4.13005">
        <ele>724</ele>
        <time>2022-09-08T11:23:08Z</time>
      </trkpt>
      <trkpt lat="45.41058" lon="4.13051">
        <ele>724</ele>
        <time>2022-09-08T11:23:20Z</time>
      </trkpt>
      <trkpt lat="45.41135" lon="4.13094">
        <ele>724</ele>
        <time>2022-09-08T11:23:35Z</time>
      </trkpt>
      <trkpt lat="45.41199" lon="4.13144">
        <ele>722</ele>
        <time>2022-09-08T11:23:48Z</time>
      </trkpt>
      <trkpt lat="45.41219" lon="4.13156">
        <ele>722</ele>
        <time>2022-09-08T11:23:52Z</time>
      </trkpt>
      <trkpt lat="45.41233" lon="4.13158">
        <ele>721</ele>
        <time>2022-09-08T11:23:55Z</time>
      </trkpt>
      <trkpt lat="45.41319" lon="4.13142">
        <ele>719</ele>
        <time>2022-09-08T11:24:10Z</time>
      </trkpt>
      <trkpt lat="45.41409" lon="4.13131">
        <ele>716</ele>
        <time>2022-09-08T11:24:26Z</time>
      </trkpt>
      <trkpt lat="45.4143" lon="4.13137">
        <ele>715</ele>
        <time>2022-09-08T11:24:30Z</time>
      </trkpt>
      <trkpt lat="45.41486" lon="4.13134">
        <ele>714</ele>
        <time>2022-09-08T11:24:40Z</time>
      </trkpt>
      <trkpt lat="45.41526" lon="4.13149">
        <ele>712</ele>
        <time>2022-09-08T11:24:47Z</time>
      </trkpt>
      <trkpt lat="45.41547" lon="4.13154">
        <ele>711</ele>
        <time>2022-09-08T11:24:51Z</time>
      </trkpt>
      <trkpt lat="45.41553" lon="4.13159">
        <ele>711</ele>
        <time>2022-09-08T11:24:52Z</time>
      </trkpt>
      <trkpt lat="45.41558" lon="4.13183">
        <ele>710</ele>
        <time>2022-09-08T11:24:55Z</time>
      </trkpt>
      <trkpt lat="45.41554" lon="4.13239">
        <ele>709</ele>
        <time>2022-09-08T11:25:02Z</time>
      </trkpt>
      <trkpt lat="45.41556" lon="4.13257">
        <ele>708</ele>
        <time>2022-09-08T11:25:05Z</time>
      </trkpt>
      <trkpt lat="45.41561" lon="4.13273">
        <ele>707</ele>
        <time>2022-09-08T11:25:07Z</time>
      </trkpt>
      <trkpt lat="45.41575" lon="4.133">
        <ele>705</ele>
        <time>2022-09-08T11:25:11Z</time>
      </trkpt>
      <trkpt lat="45.416" lon="4.13319">
        <ele>702</ele>
        <time>2022-09-08T11:25:16Z</time>
      </trkpt>
      <trkpt lat="45.41643" lon="4.13331">
        <ele>699</ele>
        <time>2022-09-08T11:25:24Z</time>
      </trkpt>
      <trkpt lat="45.41677" lon="4.13349">
        <ele>698</ele>
        <time>2022-09-08T11:25:30Z</time>
      </trkpt>
      <trkpt lat="45.41695" lon="4.13366">
        <ele>698</ele>
        <time>2022-09-08T11:25:34Z</time>
      </trkpt>
      <trkpt lat="45.41717" lon="4.13397">
        <ele>698</ele>
        <time>2022-09-08T11:25:40Z</time>
      </trkpt>
      <trkpt lat="45.41732" lon="4.13443">
        <ele>698</ele>
        <time>2022-09-08T11:25:46Z</time>
      </trkpt>
      <trkpt lat="45.41768" lon="4.13652">
        <ele>696</ele>
        <time>2022-09-08T11:26:13Z</time>
      </trkpt>
      <trkpt lat="45.41776" lon="4.13739">
        <ele>694</ele>
        <time>2022-09-08T11:26:24Z</time>
      </trkpt>
      <trkpt lat="45.41839" lon="4.13861">
        <ele>688</ele>
        <time>2022-09-08T11:26:43Z</time>
      </trkpt>
      <trkpt lat="45.4186" lon="4.13919">
        <ele>686</ele>
        <time>2022-09-08T11:26:51Z</time>
      </trkpt>
      <trkpt lat="45.41883" lon="4.14048">
        <ele>684</ele>
        <time>2022-09-08T11:27:08Z</time>
      </trkpt>
      <trkpt lat="45.41898" lon="4.14193">
        <ele>684</ele>
        <time>2022-09-08T11:27:26Z</time>
      </trkpt>
      <trkpt lat="45.41912" lon="4.14244">
        <ele>684</ele>
        <time>2022-09-08T11:27:33Z</time>
      </trkpt>
      <trkpt lat="45.41948" lon="4.14334">
        <ele>684</ele>
        <time>2022-09-08T11:27:46Z</time>
      </trkpt>
      <trkpt lat="45.41976" lon="4.14389">
        <ele>685</ele>
        <time>2022-09-08T11:27:54Z</time>
      </trkpt>
      <trkpt lat="45.42123" lon="4.14594">
        <ele>681</ele>
        <time>2022-09-08T11:28:31Z</time>
      </trkpt>
      <trkpt lat="45.42167" lon="4.14643">
        <ele>679</ele>
        <time>2022-09-08T11:28:41Z</time>
      </trkpt>
      <trkpt lat="45.42253" lon="4.14768">
        <ele>677</ele>
        <time>2022-09-08T11:29:02Z</time>
      </trkpt>
      <trkpt lat="45.42267" lon="4.14791">
        <ele>678</ele>
        <time>2022-09-08T11:29:06Z</time>
      </trkpt>
      <trkpt lat="45.42312" lon="4.14894">
        <ele>679</ele>
        <time>2022-09-08T11:29:21Z</time>
      </trkpt>
      <trkpt lat="45.42327" lon="4.14942">
        <ele>679</ele>
        <time>2022-09-08T11:29:28Z</time>
      </trkpt>
      <trkpt lat="45.42381" lon="4.15264">
        <ele>684</ele>
        <time>2022-09-08T11:30:09Z</time>
      </trkpt>
      <trkpt lat="45.42411" lon="4.15383">
        <ele>686</ele>
        <time>2022-09-08T11:30:25Z</time>
      </trkpt>
      <trkpt lat="45.42495" lon="4.15804">
        <ele>676</ele>
        <time>2022-09-08T11:31:20Z</time>
      </trkpt>
      <trkpt lat="45.42533" lon="4.15917">
        <ele>673</ele>
        <time>2022-09-08T11:31:35Z</time>
      </trkpt>
      <trkpt lat="45.42544" lon="4.15946">
        <ele>672</ele>
        <time>2022-09-08T11:31:40Z</time>
      </trkpt>
      <trkpt lat="45.42555" lon="4.15966">
        <ele>672</ele>
        <time>2022-09-08T11:31:43Z</time>
      </trkpt>
      <trkpt lat="45.42631" lon="4.16046">
        <ele>672</ele>
        <time>2022-09-08T11:32:00Z</time>
      </trkpt>
      <trkpt lat="45.42674" lon="4.16065">
        <ele>672</ele>
        <time>2022-09-08T11:32:08Z</time>
      </trkpt>
      <trkpt lat="45.42713" lon="4.16076">
        <ele>672</ele>
        <time>2022-09-08T11:32:15Z</time>
      </trkpt>
      <trkpt lat="45.42763" lon="4.16099">
        <ele>673</ele>
        <time>2022-09-08T11:32:24Z</time>
      </trkpt>
      <trkpt lat="45.42874" lon="4.16173">
        <ele>671</ele>
        <time>2022-09-08T11:32:46Z</time>
      </trkpt>
      <trkpt lat="45.42887" lon="4.16177">
        <ele>671</ele>
        <time>2022-09-08T11:32:48Z</time>
      </trkpt>
      <trkpt lat="45.42954" lon="4.16169">
        <ele>670</ele>
        <time>2022-09-08T11:33:00Z</time>
      </trkpt>
      <trkpt lat="45.42967" lon="4.16173">
        <ele>670</ele>
        <time>2022-09-08T11:33:02Z</time>
      </trkpt>
      <trkpt lat="45.42981" lon="4.16182">
        <ele>669</ele>
        <time>2022-09-08T11:33:05Z</time>
      </trkpt>
      <trkpt lat="45.43018" lon="4.16215">
        <ele>669</ele>
        <time>2022-09-08T11:33:13Z</time>
      </trkpt>
      <trkpt lat="45.43022" lon="4.16224">
        <ele>669</ele>
        <time>2022-09-08T11:33:14Z</time>
      </trkpt>
      <trkpt lat="45.43031" lon="4.1622">
        <ele>669</ele>
        <time>2022-09-08T11:33:16Z</time>
      </trkpt>
      <trkpt lat="45.4311" lon="4.16208">
        <ele>669</ele>
        <time>2022-09-08T11:33:30Z</time>
      </trkpt>
      <trkpt lat="45.4313" lon="4.16198">
        <ele>671</ele>
        <time>2022-09-08T11:33:34Z</time>
      </trkpt>
      <trkpt lat="45.43142" lon="4.16186">
        <ele>671</ele>
        <time>2022-09-08T11:33:36Z</time>
      </trkpt>
      <trkpt lat="45.43191" lon="4.16097">
        <ele>671</ele>
        <time>2022-09-08T11:33:51Z</time>
      </trkpt>
      <trkpt lat="45.43224" lon="4.1602">
        <ele>673</ele>
        <time>2022-09-08T11:34:02Z</time>
      </trkpt>
      <trkpt lat="45.43243" lon="4.1594">
        <ele>671</ele>
        <time>2022-09-08T11:34:12Z</time>
      </trkpt>
      <trkpt lat="45.43284" lon="4.15853">
        <ele>668</ele>
        <time>2022-09-08T11:34:25Z</time>
      </trkpt>
      <trkpt lat="45.43292" lon="4.1584">
        <ele>668</ele>
        <time>2022-09-08T11:34:28Z</time>
      </trkpt>
      <trkpt lat="45.43301" lon="4.15831">
        <ele>668</ele>
        <time>2022-09-08T11:34:30Z</time>
      </trkpt>
      <trkpt lat="45.43346" lon="4.15797">
        <ele>667</ele>
        <time>2022-09-08T11:34:39Z</time>
      </trkpt>
      <trkpt lat="45.43364" lon="4.15796">
        <ele>666</ele>
        <time>2022-09-08T11:34:42Z</time>
      </trkpt>
      <trkpt lat="45.43372" lon="4.158">
        <ele>666</ele>
        <time>2022-09-08T11:34:43Z</time>
      </trkpt>
      <trkpt lat="45.4338" lon="4.15809">
        <ele>666</ele>
        <time>2022-09-08T11:34:45Z</time>
      </trkpt>
      <trkpt lat="45.43385" lon="4.1582">
        <ele>666</ele>
        <time>2022-09-08T11:34:47Z</time>
      </trkpt>
      <trkpt lat="45.43392" lon="4.15855">
        <ele>667</ele>
        <time>2022-09-08T11:34:51Z</time>
      </trkpt>
      <trkpt lat="45.43404" lon="4.15883">
        <ele>667</ele>
        <time>2022-09-08T11:34:55Z</time>
      </trkpt>
      <trkpt lat="45.43414" lon="4.15896">
        <ele>666</ele>
        <time>2022-09-08T11:34:58Z</time>
      </trkpt>
      <trkpt lat="45.43432" lon="4.15909">
        <ele>664</ele>
        <time>2022-09-08T11:35:01Z</time>
      </trkpt>
      <trkpt lat="45.43469" lon="4.15944">
        <ele>662</ele>
        <time>2022-09-08T11:35:09Z</time>
      </trkpt>
      <trkpt lat="45.43499" lon="4.15984">
        <ele>663</ele>
        <time>2022-09-08T11:35:17Z</time>
      </trkpt>
      <trkpt lat="45.43509" lon="4.15992">
        <ele>664</ele>
        <time>2022-09-08T11:35:19Z</time>
      </trkpt>
      <trkpt lat="45.43518" lon="4.15995">
        <ele>663</ele>
        <time>2022-09-08T11:35:20Z</time>
      </trkpt>
      <trkpt lat="45.43529" lon="4.15997">
        <ele>663</ele>
        <time>2022-09-08T11:35:22Z</time>
      </trkpt>
      <trkpt lat="45.4354" lon="4.15995">
        <ele>662</ele>
        <time>2022-09-08T11:35:24Z</time>
      </trkpt>
      <trkpt lat="45.43635" lon="4.15939">
        <ele>655</ele>
        <time>2022-09-08T11:35:43Z</time>
      </trkpt>
      <trkpt lat="45.43693" lon="4.15887">
        <ele>652</ele>
        <time>2022-09-08T11:35:55Z</time>
      </trkpt>
      <trkpt lat="45.43731" lon="4.15849">
        <ele>651</ele>
        <time>2022-09-08T11:36:03Z</time>
      </trkpt>
      <trkpt lat="45.43789" lon="4.15783">
        <ele>649</ele>
        <time>2022-09-08T11:36:16Z</time>
      </trkpt>
      <trkpt lat="45.43823" lon="4.15731">
        <ele>649</ele>
        <time>2022-09-08T11:36:25Z</time>
      </trkpt>
      <trkpt lat="45.43849" lon="4.15712">
        <ele>648</ele>
        <time>2022-09-08T11:36:30Z</time>
      </trkpt>
      <trkpt lat="45.43878" lon="4.15704">
        <ele>646</ele>
        <time>2022-09-08T11:36:36Z</time>
      </trkpt>
      <trkpt lat="45.439" lon="4.15685">
        <ele>646</ele>
        <time>2022-09-08T11:36:40Z</time>
      </trkpt>
      <trkpt lat="45.43926" lon="4.15626">
        <ele>643</ele>
        <time>2022-09-08T11:36:49Z</time>
      </trkpt>
      <trkpt lat="45.4394" lon="4.15608">
        <ele>643</ele>
        <time>2022-09-08T11:36:52Z</time>
      </trkpt>
      <trkpt lat="45.4395" lon="4.15603">
        <ele>643</ele>
        <time>2022-09-08T11:36:54Z</time>
      </trkpt>
      <trkpt lat="45.43959" lon="4.15602">
        <ele>644.3</ele>
        <extensions>
          <visugpx:TrkExtension xmlns:visugpx="https://www.visugpx.com/editgpx/">
            <visugpx:node>6</visugpx:node>
            </visugpx:TrkExtension>
        </extensions>
      </trkpt>
      <trkpt lat="45.43958" lon="4.15601">
        <ele>644.3</ele>
      </trkpt>
      <trkpt lat="45.43962" lon="4.15601">
        <ele>644.2</ele>
      </trkpt>
      <trkpt lat="45.44002" lon="4.15598">
        <ele>643.5</ele>
      </trkpt>
      <trkpt lat="45.44025" lon="4.15598">
        <ele>643.5</ele>
      </trkpt>
      <trkpt lat="45.44053" lon="4.15596">
        <ele>643.5</ele>
      </trkpt>
      <trkpt lat="45.44083" lon="4.15588">
        <ele>643</ele>
      </trkpt>
      <trkpt lat="45.44105" lon="4.15579">
        <ele>642.1</ele>
      </trkpt>
      <trkpt lat="45.44111" lon="4.15575">
        <ele>641.7</ele>
      </trkpt>
      <trkpt lat="45.44124" lon="4.15562">
        <ele>641.1</ele>
      </trkpt>
      <trkpt lat="45.44133" lon="4.15549">
        <ele>640.8</ele>
      </trkpt>
      <trkpt lat="45.44139" lon="4.15533">
        <ele>640.2</ele>
      </trkpt>
      <trkpt lat="45.44147" lon="4.15526">
        <ele>639.9</ele>
      </trkpt>
      <trkpt lat="45.44168" lon="4.15512">
        <ele>639.5</ele>
      </trkpt>
      <trkpt lat="45.4419" lon="4.15503">
        <ele>639.9</ele>
      </trkpt>
      <trkpt lat="45.44199" lon="4.155">
        <ele>640</ele>
      </trkpt>
      <trkpt lat="45.44213" lon="4.15498">
        <ele>640</ele>
      </trkpt>
      <trkpt lat="45.44221" lon="4.15496">
        <ele>640</ele>
      </trkpt>
      <trkpt lat="45.44227" lon="4.15491">
        <ele>640</ele>
      </trkpt>
      <trkpt lat="45.44246" lon="4.15479">
        <ele>640</ele>
      </trkpt>
      <trkpt lat="45.44254" lon="4.15478">
        <ele>640</ele>
      </trkpt>
      <trkpt lat="45.44261" lon="4.15486">
        <ele>640</ele>
      </trkpt>
      <trkpt lat="45.44271" lon="4.15499">
        <ele>640</ele>
      </trkpt>
      <trkpt lat="45.44284" lon="4.15506">
        <ele>639.6</ele>
      </trkpt>
      <trkpt lat="45.44298" lon="4.15508">
        <ele>639.2</ele>
      </trkpt>
      <trkpt lat="45.44309" lon="4.15509">
        <ele>639.1</ele>
      </trkpt>
      <trkpt lat="45.44357" lon="4.15497">
        <ele>639.9</ele>
      </trkpt>
      <trkpt lat="45.44368" lon="4.15494">
        <ele>639.5</ele>
      </trkpt>
      <trkpt lat="45.44383" lon="4.15484">
        <ele>638.6</ele>
      </trkpt>
      <trkpt lat="45.44389" lon="4.15482">
        <ele>638.3</ele>
      </trkpt>
      <trkpt lat="45.44394" lon="4.15481">
        <ele>638.2</ele>
      </trkpt>
      <trkpt lat="45.44406" lon="4.15478">
        <ele>637.7</ele>
      </trkpt>
      <trkpt lat="45.44427" lon="4.1548">
        <ele>636.7</ele>
      </trkpt>
      <trkpt lat="45.44442" lon="4.15481">
        <ele>635.5</ele>
      </trkpt>
      <trkpt lat="45.44488" lon="4.15483">
        <ele>633.2</ele>
      </trkpt>
      <trkpt lat="45.44506" lon="4.15483">
        <ele>632.5</ele>
      </trkpt>
      <trkpt lat="45.44525" lon="4.15478">
        <ele>631.3</ele>
      </trkpt>
      <trkpt lat="45.44548" lon="4.15471">
        <ele>630.9</ele>
      </trkpt>
      <trkpt lat="45.44565" lon="4.15464">
        <ele>630.5</ele>
      </trkpt>
      <trkpt lat="45.446" lon="4.15443">
        <ele>630</ele>
      </trkpt>
      <trkpt lat="45.44624" lon="4.15422">
        <ele>629.4</ele>
      </trkpt>
      <trkpt lat="45.44634" lon="4.15411">
        <ele>629.7</ele>
      </trkpt>
      <trkpt lat="45.44641" lon="4.15397">
        <ele>629.1</ele>
      </trkpt>
      <trkpt lat="45.44645" lon="4.15387">
        <ele>628.6</ele>
      </trkpt>
      <trkpt lat="45.44649" lon="4.15365">
        <ele>628</ele>
      </trkpt>
      <trkpt lat="45.44652" lon="4.15333">
        <ele>626.9</ele>
      </trkpt>
      <trkpt lat="45.44656" lon="4.15312">
        <ele>625.6</ele>
      </trkpt>
      <trkpt lat="45.44665" lon="4.15291">
        <ele>624.6</ele>
      </trkpt>
      <trkpt lat="45.44695" lon="4.15241">
        <ele>620.8</ele>
      </trkpt>
      <trkpt lat="45.44718" lon="4.15208">
        <ele>617.5</ele>
      </trkpt>
      <trkpt lat="45.44727" lon="4.152">
        <ele>616.5</ele>
      </trkpt>
      <trkpt lat="45.44749" lon="4.1519">
        <ele>616</ele>
      </trkpt>
      <trkpt lat="45.44853" lon="4.15164">
        <ele>605.4</ele>
      </trkpt>
      <trkpt lat="45.44881" lon="4.15156">
        <ele>602.5</ele>
      </trkpt>
      <trkpt lat="45.44901" lon="4.15142">
        <ele>600.2</ele>
      </trkpt>
      <trkpt lat="45.44922" lon="4.15116">
        <ele>597.8</ele>
      </trkpt>
      <trkpt lat="45.44933" lon="4.15106">
        <ele>597</ele>
      </trkpt>
      <trkpt lat="45.44944" lon="4.15102">
        <ele>597</ele>
      </trkpt>
      <trkpt lat="45.44956" lon="4.15099">
        <ele>595.3</ele>
      </trkpt>
      <trkpt lat="45.44971" lon="4.15101">
        <ele>594</ele>
      </trkpt>
      <trkpt lat="45.45012" lon="4.15109">
        <ele>591.2</ele>
      </trkpt>
      <trkpt lat="45.45032" lon="4.1511">
        <ele>589.4</ele>
      </trkpt>
      <trkpt lat="45.45042" lon="4.15109">
        <ele>588.5</ele>
      </trkpt>
      <trkpt lat="45.45048" lon="4.15108">
        <ele>587.8</ele>
      </trkpt>
      <trkpt lat="45.45064" lon="4.15105">
        <ele>586.9</ele>
      </trkpt>
      <trkpt lat="45.45086" lon="4.15096">
        <ele>584.8</ele>
      </trkpt>
      <trkpt lat="45.4515" lon="4.15066">
        <ele>577.8</ele>
      </trkpt>
      <trkpt lat="45.45172" lon="4.15061">
        <ele>576.1</ele>
      </trkpt>
      <trkpt lat="45.45213" lon="4.15065">
        <ele>572</ele>
      </trkpt>
      <trkpt lat="45.45225" lon="4.15061">
        <ele>570.9</ele>
      </trkpt>
      <trkpt lat="45.45232" lon="4.15056">
        <ele>571.4</ele>
      </trkpt>
      <trkpt lat="45.45239" lon="4.15047">
        <ele>571.1</ele>
      </trkpt>
      <trkpt lat="45.45243" lon="4.15034">
        <ele>569.5</ele>
      </trkpt>
      <trkpt lat="45.45246" lon="4.15019">
        <ele>567.8</ele>
      </trkpt>
      <trkpt lat="45.45245" lon="4.14964">
        <ele>563</ele>
      </trkpt>
      <trkpt lat="45.45248" lon="4.14954">
        <ele>562.5</ele>
      </trkpt>
      <trkpt lat="45.45248" lon="4.14951">
        <ele>562.3</ele>
      </trkpt>
      <trkpt lat="45.45254" lon="4.14936">
        <ele>561</ele>
      </trkpt>
      <trkpt lat="45.45263" lon="4.14924">
        <ele>559.9</ele>
      </trkpt>
      <trkpt lat="45.45274" lon="4.14914">
        <ele>559.2</ele>
      </trkpt>
      <trkpt lat="45.45312" lon="4.14892">
        <ele>555.5</ele>
      </trkpt>
      <trkpt lat="45.45388" lon="4.14859">
        <ele>548.7</ele>
      </trkpt>
      <trkpt lat="45.45402" lon="4.14851">
        <ele>548.5</ele>
      </trkpt>
      <trkpt lat="45.45408" lon="4.14845">
        <ele>548.1</ele>
      </trkpt>
      <trkpt lat="45.45433" lon="4.1481">
        <ele>546.6</ele>
      </trkpt>
      <trkpt lat="45.45441" lon="4.14802">
        <ele>547.8</ele>
      </trkpt>
      <trkpt lat="45.45454" lon="4.14789">
        <ele>548.4</ele>
      </trkpt>
      <trkpt lat="45.45466" lon="4.14781">
        <ele>549.3</ele>
      </trkpt>
      <trkpt lat="45.45476" lon="4.14778">
        <ele>550.4</ele>
      </trkpt>
      <trkpt lat="45.45488" lon="4.14777">
        <ele>551.7</ele>
      </trkpt>
      <trkpt lat="45.45505" lon="4.14779">
        <ele>553.4</ele>
      </trkpt>
      <trkpt lat="45.45531" lon="4.14788">
        <ele>554.7</ele>
      </trkpt>
      <trkpt lat="45.45547" lon="4.14796">
        <ele>556.1</ele>
      </trkpt>
      <trkpt lat="45.45555" lon="4.14805">
        <ele>556</ele>
      </trkpt>
      <trkpt lat="45.45561" lon="4.14814">
        <ele>556.9</ele>
      </trkpt>
      <trkpt lat="45.45566" lon="4.14828">
        <ele>557.3</ele>
      </trkpt>
      <trkpt lat="45.4557" lon="4.14848">
        <ele>558.2</ele>
      </trkpt>
      <trkpt lat="45.45573" lon="4.14901">
        <ele>559.2</ele>
      </trkpt>
      <trkpt lat="45.45577" lon="4.14918">
        <ele>559.9</ele>
      </trkpt>
      <trkpt lat="45.45583" lon="4.14933">
        <ele>561.9</ele>
      </trkpt>
      <trkpt lat="45.45592" lon="4.1495">
        <ele>563.5</ele>
      </trkpt>
      <trkpt lat="45.45607" lon="4.14968">
        <ele>564.6</ele>
      </trkpt>
      <trkpt lat="45.45631" lon="4.15006">
        <ele>563.2</ele>
      </trkpt>
      <trkpt lat="45.4566" lon="4.15058">
        <ele>569.1</ele>
      </trkpt>
      <trkpt lat="45.45671" lon="4.15082">
        <ele>572.1</ele>
      </trkpt>
      <trkpt lat="45.4569" lon="4.15132">
        <ele>576.3</ele>
      </trkpt>
      <trkpt lat="45.45698" lon="4.15146">
        <ele>577.6</ele>
      </trkpt>
      <trkpt lat="45.45707" lon="4.15156">
        <ele>577.8</ele>
      </trkpt>
      <trkpt lat="45.45719" lon="4.15164">
        <ele>578.8</ele>
      </trkpt>
      <trkpt lat="45.45736" lon="4.15168">
        <ele>580.2</ele>
      </trkpt>
      <trkpt lat="45.45805" lon="4.15177">
        <ele>585.5</ele>
      </trkpt>
      <trkpt lat="45.45827" lon="4.15184">
        <ele>586.5</ele>
      </trkpt>
      <trkpt lat="45.45849" lon="4.15205">
        <ele>587.5</ele>
      </trkpt>
      <trkpt lat="45.45879" lon="4.15241">
        <ele>589.3</ele>
      </trkpt>
      <trkpt lat="45.45887" lon="4.15249">
        <ele>589.9</ele>
      </trkpt>
      <trkpt lat="45.45896" lon="4.15255">
        <ele>590.4</ele>
      </trkpt>
      <trkpt lat="45.45928" lon="4.15271">
        <ele>591.4</ele>
      </trkpt>
      <trkpt lat="45.45941" lon="4.15273">
        <ele>591.9</ele>
      </trkpt>
      <trkpt lat="45.45946" lon="4.15272">
        <ele>592</ele>
      </trkpt>
      <trkpt lat="45.4595" lon="4.15269">
        <ele>592</ele>
      </trkpt>
      <trkpt lat="45.45954" lon="4.15276">
        <ele>592</ele>
      </trkpt>
      <trkpt lat="45.45958" lon="4.15281">
        <ele>592</ele>
      </trkpt>
      <trkpt lat="45.45977" lon="4.1529">
        <ele>592</ele>
      </trkpt>
      <trkpt lat="45.46006" lon="4.15305">
        <ele>592</ele>
      </trkpt>
      <trkpt lat="45.46028" lon="4.15313">
        <ele>592</ele>
      </trkpt>
      <trkpt lat="45.46046" lon="4.15317">
        <ele>592.7</ele>
      </trkpt>
      <trkpt lat="45.46057" lon="4.15323">
        <ele>593</ele>
      </trkpt>
      <trkpt lat="45.46137" lon="4.1539">
        <ele>594.1</ele>
      </trkpt>
      <trkpt lat="45.4616" lon="4.15415">
        <ele>595.2</ele>
      </trkpt>
      <trkpt lat="45.46179" lon="4.15449">
        <ele>595.9</ele>
      </trkpt>
      <trkpt lat="45.46186" lon="4.15462">
        <ele>595.6</ele>
      </trkpt>
      <trkpt lat="45.46202" lon="4.15498">
        <ele>594.1</ele>
      </trkpt>
      <trkpt lat="45.4621" lon="4.15528">
        <ele>592.4</ele>
      </trkpt>
      <trkpt lat="45.46225" lon="4.15634">
        <ele>586.3</ele>
      </trkpt>
      <trkpt lat="45.46227" lon="4.15641">
        <ele>585.9</ele>
        <extensions>
          <visugpx:TrkExtension xmlns:visugpx="https://www.visugpx.com/editgpx/">
            <visugpx:node>9</visugpx:node>
            </visugpx:TrkExtension>
        </extensions>
      </trkpt>
      <trkpt lat="45.46234" lon="4.15678">
        <ele>584.2</ele>
      </trkpt>
      <trkpt lat="45.46246" lon="4.15711">
        <ele>582.5</ele>
      </trkpt>
      <trkpt lat="45.46267" lon="4.1575">
        <ele>579.4</ele>
      </trkpt>
      <trkpt lat="45.46302" lon="4.15804">
        <ele>575.2</ele>
      </trkpt>
      <trkpt lat="45.46321" lon="4.15852">
        <ele>572.5</ele>
      </trkpt>
      <trkpt lat="45.46349" lon="4.15943">
        <ele>568.2</ele>
      </trkpt>
      <trkpt lat="45.46365" lon="4.16002">
        <ele>566.3</ele>
      </trkpt>
      <trkpt lat="45.46372" lon="4.16037">
        <ele>564.5</ele>
      </trkpt>
      <trkpt lat="45.4638" lon="4.16094">
        <ele>562.3</ele>
      </trkpt>
      <trkpt lat="45.46387" lon="4.16115">
        <ele>562.4</ele>
      </trkpt>
      <trkpt lat="45.46409" lon="4.16174">
        <ele>561.9</ele>
      </trkpt>
      <trkpt lat="45.4641" lon="4.16177">
        <ele>561.9</ele>
      </trkpt>
      <trkpt lat="45.46437" lon="4.16238">
        <ele>559.7</ele>
      </trkpt>
      <trkpt lat="45.46455" lon="4.16264">
        <ele>558.5</ele>
      </trkpt>
      <trkpt lat="45.46525" lon="4.16321">
        <ele>550.6</ele>
      </trkpt>
      <trkpt lat="45.46537" lon="4.16331">
        <ele>548.9</ele>
      </trkpt>
      <trkpt lat="45.46632" lon="4.16412">
        <ele>537.3</ele>
      </trkpt>
      <trkpt lat="45.46654" lon="4.16436">
        <ele>536</ele>
      </trkpt>
      <trkpt lat="45.46673" lon="4.16468">
        <ele>535</ele>
      </trkpt>
      <trkpt lat="45.46679" lon="4.16495">
        <ele>534.1</ele>
      </trkpt>
      <trkpt lat="45.46689" lon="4.16585">
        <ele>532.4</ele>
      </trkpt>
      <trkpt lat="45.46693" lon="4.16639">
        <ele>531.8</ele>
      </trkpt>
      <trkpt lat="45.46694" lon="4.16675">
        <ele>531</ele>
      </trkpt>
      <trkpt lat="45.46688" lon="4.16772">
        <ele>529.7</ele>
      </trkpt>
      <trkpt lat="45.46689" lon="4.16876">
        <ele>527.8</ele>
      </trkpt>
      <trkpt lat="45.4669" lon="4.16907">
        <ele>527.7</ele>
      </trkpt>
      <trkpt lat="45.46696" lon="4.16936">
        <ele>527.4</ele>
      </trkpt>
      <trkpt lat="45.46713" lon="4.16994">
        <ele>526.5</ele>
      </trkpt>
      <trkpt lat="45.46718" lon="4.1702">
        <ele>527.1</ele>
      </trkpt>
      <trkpt lat="45.46724" lon="4.17113">
        <ele>526.3</ele>
      </trkpt>
      <trkpt lat="45.4673" lon="4.17155">
        <ele>525.7</ele>
      </trkpt>
      <trkpt lat="45.46766" lon="4.17294">
        <ele>521.5</ele>
      </trkpt>
      <trkpt lat="45.46769" lon="4.17329">
        <ele>521.1</ele>
      </trkpt>
      <trkpt lat="45.46767" lon="4.17376">
        <ele>520.6</ele>
      </trkpt>
      <trkpt lat="45.46774" lon="4.17413">
        <ele>518.5</ele>
      </trkpt>
      <trkpt lat="45.46789" lon="4.17461">
        <ele>516.2</ele>
      </trkpt>
      <trkpt lat="45.46803" lon="4.1749">
        <ele>513.8</ele>
      </trkpt>
      <trkpt lat="45.46834" lon="4.17539">
        <ele>510.1</ele>
      </trkpt>
      <trkpt lat="45.46933" lon="4.17665">
        <ele>498.1</ele>
      </trkpt>
      <trkpt lat="45.46959" lon="4.17694">
        <ele>496</ele>
      </trkpt>
      <trkpt lat="45.46977" lon="4.1771">
        <ele>494.9</ele>
      </trkpt>
      <trkpt lat="45.46991" lon="4.17715">
        <ele>494.5</ele>
      </trkpt>
      <trkpt lat="45.47005" lon="4.17721">
        <ele>494.1</ele>
      </trkpt>
      <trkpt lat="45.47046" lon="4.17743">
        <ele>493.3</ele>
      </trkpt>
      <trkpt lat="45.4707" lon="4.17763">
        <ele>492.7</ele>
      </trkpt>
      <trkpt lat="45.47096" lon="4.17791">
        <ele>491.3</ele>
      </trkpt>
      <trkpt lat="45.47118" lon="4.17823">
        <ele>490</ele>
      </trkpt>
      <trkpt lat="45.47117" lon="4.17824">
        <ele>490.1</ele>
        <extensions>
          <visugpx:TrkExtension xmlns:visugpx="https://www.visugpx.com/editgpx/">
            <visugpx:node>7</visugpx:node>
            </visugpx:TrkExtension>
        </extensions>
      </trkpt>
      <trkpt lat="45.47121" lon="4.17828">
        <ele>488</ele>
        <time>2022-09-08T11:48:52Z</time>
      </trkpt>
      <trkpt lat="45.47154" lon="4.17883">
        <ele>485</ele>
        <time>2022-09-08T11:49:01Z</time>
      </trkpt>
      <trkpt lat="45.47181" lon="4.17939">
        <ele>483</ele>
        <time>2022-09-08T11:49:09Z</time>
      </trkpt>
      <trkpt lat="45.47208" lon="4.17977">
        <ele>481</ele>
        <time>2022-09-08T11:49:16Z</time>
      </trkpt>
      <trkpt lat="45.47258" lon="4.1804">
        <ele>479</ele>
        <time>2022-09-08T11:49:28Z</time>
      </trkpt>
      <trkpt lat="45.47309" lon="4.18093">
        <ele>476</ele>
        <time>2022-09-08T11:49:39Z</time>
      </trkpt>
      <trkpt lat="45.4735" lon="4.18141">
        <ele>472</ele>
        <time>2022-09-08T11:49:49Z</time>
      </trkpt>
      <trkpt lat="45.47367" lon="4.18164">
        <ele>470</ele>
        <time>2022-09-08T11:49:53Z</time>
      </trkpt>
      <trkpt lat="45.47453" lon="4.18312">
        <ele>463</ele>
        <time>2022-09-08T11:50:17Z</time>
      </trkpt>
      <trkpt lat="45.47487" lon="4.18359">
        <ele>461</ele>
        <time>2022-09-08T11:50:25Z</time>
      </trkpt>
      <trkpt lat="45.47534" lon="4.18417">
        <ele>461</ele>
        <time>2022-09-08T11:50:36Z</time>
      </trkpt>
      <trkpt lat="45.47577" lon="4.18465">
        <ele>462</ele>
        <time>2022-09-08T11:50:46Z</time>
      </trkpt>
      <trkpt lat="45.47604" lon="4.18501">
        <ele>462</ele>
        <time>2022-09-08T11:50:53Z</time>
      </trkpt>
      <trkpt lat="45.47723" lon="4.18705">
        <ele>455</ele>
        <time>2022-09-08T11:51:26Z</time>
      </trkpt>
      <trkpt lat="45.47865" lon="4.18881">
        <ele>452</ele>
        <time>2022-09-08T11:51:59Z</time>
      </trkpt>
      <trkpt lat="45.47896" lon="4.18914">
        <ele>453</ele>
        <time>2022-09-08T11:52:06Z</time>
      </trkpt>
      <trkpt lat="45.47949" lon="4.18963">
        <ele>451</ele>
        <time>2022-09-08T11:52:17Z</time>
      </trkpt>
      <trkpt lat="45.48046" lon="4.19068">
        <ele>445</ele>
        <time>2022-09-08T11:52:39Z</time>
      </trkpt>
      <trkpt lat="45.48105" lon="4.19144">
        <ele>442</ele>
        <time>2022-09-08T11:52:53Z</time>
      </trkpt>
      <trkpt lat="45.48124" lon="4.19178">
        <ele>439</ele>
        <time>2022-09-08T11:52:59Z</time>
      </trkpt>
      <trkpt lat="45.48145" lon="4.19231">
        <ele>436</ele>
        <time>2022-09-08T11:53:06Z</time>
      </trkpt>
      <trkpt lat="45.48151" lon="4.19255">
        <ele>435</ele>
        <time>2022-09-08T11:53:09Z</time>
      </trkpt>
      <trkpt lat="45.48158" lon="4.19315">
        <ele>431</ele>
        <time>2022-09-08T11:53:17Z</time>
      </trkpt>
      <trkpt lat="45.48162" lon="4.19329">
        <ele>430</ele>
        <time>2022-09-08T11:53:19Z</time>
      </trkpt>
      <trkpt lat="45.48168" lon="4.19337">
        <ele>429</ele>
        <time>2022-09-08T11:53:20Z</time>
      </trkpt>
      <trkpt lat="45.48179" lon="4.19338">
        <ele>428</ele>
        <time>2022-09-08T11:53:22Z</time>
      </trkpt>
      <trkpt lat="45.48228" lon="4.19316">
        <ele>427</ele>
        <time>2022-09-08T11:53:31Z</time>
      </trkpt>
      <trkpt lat="45.48296" lon="4.19296">
        <ele>424</ele>
        <time>2022-09-08T11:53:44Z</time>
      </trkpt>
      <trkpt lat="45.48421" lon="4.19264">
        <ele>419</ele>
        <time>2022-09-08T11:54:06Z</time>
      </trkpt>
      <trkpt lat="45.48453" lon="4.19252">
        <ele>417</ele>
        <time>2022-09-08T11:54:12Z</time>
      </trkpt>
      <trkpt lat="45.48479" lon="4.19224">
        <ele>415</ele>
        <time>2022-09-08T11:54:18Z</time>
      </trkpt>
      <trkpt lat="45.48501" lon="4.19188">
        <ele>414</ele>
        <time>2022-09-08T11:54:24Z</time>
      </trkpt>
      <trkpt lat="45.48538" lon="4.1915">
        <ele>415</ele>
        <time>2022-09-08T11:54:32Z</time>
      </trkpt>
      <trkpt lat="45.48573" lon="4.19141">
        <ele>414</ele>
        <time>2022-09-08T11:54:38Z</time>
      </trkpt>
      <trkpt lat="45.48604" lon="4.19124">
        <ele>415</ele>
        <time>2022-09-08T11:54:44Z</time>
      </trkpt>
      <trkpt lat="45.48662" lon="4.1908">
        <ele>414</ele>
        <time>2022-09-08T11:54:56Z</time>
      </trkpt>
      <trkpt lat="45.48694" lon="4.19052">
        <ele>414</ele>
        <time>2022-09-08T11:55:03Z</time>
      </trkpt>
      <trkpt lat="45.48724" lon="4.19022">
        <ele>414</ele>
        <time>2022-09-08T11:55:09Z</time>
      </trkpt>
      <trkpt lat="45.4875" lon="4.18989">
        <ele>413</ele>
        <time>2022-09-08T11:55:15Z</time>
      </trkpt>
      <trkpt lat="45.48868" lon="4.18813">
        <ele>415</ele>
        <time>2022-09-08T11:55:46Z</time>
      </trkpt>
      <trkpt lat="45.48889" lon="4.18765">
        <ele>415</ele>
        <time>2022-09-08T11:55:53Z</time>
      </trkpt>
      <trkpt lat="45.48948" lon="4.186">
        <ele>413</ele>
        <time>2022-09-08T11:56:16Z</time>
      </trkpt>
      <trkpt lat="45.49008" lon="4.18506">
        <ele>412</ele>
        <time>2022-09-08T11:56:32Z</time>
      </trkpt>
      <trkpt lat="45.49037" lon="4.18473">
        <ele>410</ele>
        <time>2022-09-08T11:56:38Z</time>
      </trkpt>
      <trkpt lat="45.4908" lon="4.18433">
        <ele>408</ele>
        <time>2022-09-08T11:56:48Z</time>
      </trkpt>
      <trkpt lat="45.49128" lon="4.18394">
        <ele>407</ele>
        <time>2022-09-08T11:56:57Z</time>
      </trkpt>
      <trkpt lat="45.49146" lon="4.18383">
        <ele>406</ele>
        <time>2022-09-08T11:57:01Z</time>
      </trkpt>
      <trkpt lat="45.49159" lon="4.18382">
        <ele>406</ele>
        <time>2022-09-08T11:57:03Z</time>
      </trkpt>
      <trkpt lat="45.49184" lon="4.18391">
        <ele>406</ele>
        <time>2022-09-08T11:57:08Z</time>
      </trkpt>
      <trkpt lat="45.49211" lon="4.18406">
        <ele>407</ele>
        <time>2022-09-08T11:57:13Z</time>
      </trkpt>
      <trkpt lat="45.49215" lon="4.18379">
        <ele>406</ele>
        <time>2022-09-08T11:57:16Z</time>
      </trkpt>
      <trkpt lat="45.4923" lon="4.18136">
        <ele>403</ele>
        <time>2022-09-08T11:57:47Z</time>
      </trkpt>
      <trkpt lat="45.49228" lon="4.18061">
        <ele>401</ele>
        <time>2022-09-08T11:57:56Z</time>
      </trkpt>
      <trkpt lat="45.49236" lon="4.18028">
        <ele>401</ele>
        <time>2022-09-08T11:58:00Z</time>
      </trkpt>
      <trkpt lat="45.4927" lon="4.17944">
        <ele>400</ele>
        <time>2022-09-08T11:58:13Z</time>
      </trkpt>
      <trkpt lat="45.49278" lon="4.17909">
        <ele>400</ele>
        <time>2022-09-08T11:58:17Z</time>
      </trkpt>
      <trkpt lat="45.49298" lon="4.17757">
        <ele>400</ele>
        <time>2022-09-08T11:58:36Z</time>
      </trkpt>
      <trkpt lat="45.49307" lon="4.17738">
        <ele>400</ele>
        <time>2022-09-08T11:58:39Z</time>
      </trkpt>
      <trkpt lat="45.49361" lon="4.17665">
        <ele>400</ele>
        <time>2022-09-08T11:58:53Z</time>
      </trkpt>
      <trkpt lat="45.49385" lon="4.17626">
        <ele>400</ele>
        <time>2022-09-08T11:58:59Z</time>
      </trkpt>
      <trkpt lat="45.49405" lon="4.17586">
        <ele>400</ele>
        <time>2022-09-08T11:59:05Z</time>
      </trkpt>
      <trkpt lat="45.49502" lon="4.17332">
        <ele>399</ele>
        <time>2022-09-08T11:59:41Z</time>
      </trkpt>
      <trkpt lat="45.49518" lon="4.173">
        <ele>398</ele>
        <time>2022-09-08T11:59:46Z</time>
      </trkpt>
      <trkpt lat="45.49542" lon="4.17277">
        <ele>397</ele>
        <time>2022-09-08T11:59:51Z</time>
      </trkpt>
      <trkpt lat="45.49547" lon="4.1728">
        <ele>397</ele>
        <time>2022-09-08T11:59:52Z</time>
      </trkpt>
      <trkpt lat="45.49552" lon="4.17301">
        <ele>397</ele>
        <time>2022-09-08T11:59:55Z</time>
      </trkpt>
      <trkpt lat="45.49581" lon="4.1749">
        <ele>397</ele>
        <time>2022-09-08T12:00:19Z</time>
      </trkpt>
      <trkpt lat="45.49584" lon="4.17633">
        <ele>398</ele>
        <time>2022-09-08T12:00:37Z</time>
      </trkpt>
      <trkpt lat="45.49579" lon="4.1774">
        <ele>398</ele>
        <time>2022-09-08T12:00:50Z</time>
      </trkpt>
      <trkpt lat="45.49505" lon="4.17958">
        <ele>402</ele>
        <time>2022-09-08T12:01:21Z</time>
      </trkpt>
      <trkpt lat="45.49499" lon="4.17999">
        <ele>402</ele>
        <time>2022-09-08T12:01:26Z</time>
      </trkpt>
      <trkpt lat="45.49502" lon="4.18052">
        <ele>404</ele>
        <time>2022-09-08T12:01:32Z</time>
      </trkpt>
      <trkpt lat="45.49511" lon="4.1809">
        <ele>405</ele>
        <time>2022-09-08T12:01:37Z</time>
      </trkpt>
      <trkpt lat="45.49549" lon="4.18138">
        <ele>407</ele>
        <time>2022-09-08T12:01:46Z</time>
      </trkpt>
      <trkpt lat="45.49575" lon="4.18187">
        <ele>409</ele>
        <time>2022-09-08T12:01:54Z</time>
      </trkpt>
      <trkpt lat="45.49625" lon="4.18331">
        <ele>412</ele>
        <time>2022-09-08T12:02:14Z</time>
      </trkpt>
      <trkpt lat="45.49698" lon="4.18492">
        <ele>414</ele>
        <time>2022-09-08T12:02:38Z</time>
      </trkpt>
      <trkpt lat="45.49712" lon="4.18507">
        <ele>414</ele>
        <time>2022-09-08T12:02:41Z</time>
      </trkpt>
      <trkpt lat="45.49785" lon="4.18566">
        <ele>413</ele>
        <time>2022-09-08T12:02:56Z</time>
      </trkpt>
      <trkpt lat="45.49804" lon="4.18588">
        <ele>412</ele>
        <time>2022-09-08T12:03:00Z</time>
      </trkpt>
      <trkpt lat="45.49804" lon="4.18594">
        <ele>412</ele>
        <time>2022-09-08T12:03:01Z</time>
      </trkpt>
      <trkpt lat="45.49809" lon="4.18607">
        <ele>412</ele>
        <time>2022-09-08T12:03:03Z</time>
      </trkpt>
      <trkpt lat="45.50004" lon="4.18977">
        <ele>411</ele>
        <time>2022-09-08T12:04:01Z</time>
      </trkpt>
      <trkpt lat="45.50237" lon="4.19432">
        <ele>405</ele>
        <time>2022-09-08T12:05:11Z</time>
      </trkpt>
      <trkpt lat="45.50251" lon="4.19472">
        <ele>403</ele>
        <time>2022-09-08T12:05:17Z</time>
      </trkpt>
      <trkpt lat="45.50253" lon="4.19516">
        <ele>401</ele>
        <time>2022-09-08T12:05:22Z</time>
      </trkpt>
      <trkpt lat="45.50244" lon="4.19552">
        <ele>400</ele>
        <time>2022-09-08T12:05:27Z</time>
      </trkpt>
      <trkpt lat="45.50235" lon="4.1957">
        <ele>399</ele>
        <time>2022-09-08T12:05:30Z</time>
      </trkpt>
      <trkpt lat="45.50217" lon="4.19595">
        <ele>399</ele>
        <time>2022-09-08T12:05:34Z</time>
      </trkpt>
      <trkpt lat="45.50095" lon="4.19715">
        <ele>397</ele>
        <time>2022-09-08T12:06:01Z</time>
      </trkpt>
      <trkpt lat="45.50058" lon="4.19743">
        <ele>396</ele>
        <time>2022-09-08T12:06:08Z</time>
      </trkpt>
      <trkpt lat="45.50048" lon="4.19754">
        <ele>395</ele>
        <time>2022-09-08T12:06:10Z</time>
      </trkpt>
      <trkpt lat="45.50042" lon="4.19763">
        <ele>395</ele>
        <time>2022-09-08T12:06:12Z</time>
      </trkpt>
      <trkpt lat="45.50032" lon="4.19808">
        <ele>394</ele>
        <time>2022-09-08T12:06:18Z</time>
      </trkpt>
      <trkpt lat="45.50022" lon="4.19885">
        <ele>391</ele>
        <time>2022-09-08T12:06:27Z</time>
      </trkpt>
      <trkpt lat="45.50001" lon="4.20127">
        <ele>387</ele>
        <time>2022-09-08T12:06:58Z</time>
      </trkpt>
      <trkpt lat="45.49992" lon="4.20304">
        <ele>386</ele>
        <time>2022-09-08T12:07:20Z</time>
      </trkpt>
      <trkpt lat="45.49999" lon="4.20646">
        <ele>385</ele>
        <time>2022-09-08T12:08:03Z</time>
      </trkpt>
      <trkpt lat="45.50004" lon="4.20724">
        <ele>384</ele>
        <time>2022-09-08T12:08:12Z</time>
      </trkpt>
      <trkpt lat="45.50016" lon="4.20795">
        <ele>382</ele>
        <time>2022-09-08T12:08:22Z</time>
      </trkpt>
      <trkpt lat="45.50017" lon="4.20845">
        <ele>381</ele>
        <time>2022-09-08T12:08:28Z</time>
      </trkpt>
      <trkpt lat="45.50005" lon="4.20964">
        <ele>383</ele>
        <time>2022-09-08T12:08:43Z</time>
      </trkpt>
      <trkpt lat="45.49922" lon="4.21578">
        <ele>384</ele>
        <time>2022-09-08T12:10:01Z</time>
      </trkpt>
      <trkpt lat="45.49896" lon="4.21871">
        <ele>384</ele>
        <time>2022-09-08T12:10:38Z</time>
      </trkpt>
      <trkpt lat="45.49865" lon="4.22157">
        <ele>385</ele>
        <time>2022-09-08T12:11:14Z</time>
      </trkpt>
      <trkpt lat="45.49841" lon="4.22355">
        <ele>386</ele>
        <time>2022-09-08T12:11:39Z</time>
      </trkpt>
      <trkpt lat="45.49824" lon="4.2247">
        <ele>385</ele>
        <time>2022-09-08T12:11:53Z</time>
      </trkpt>
      <trkpt lat="45.49821" lon="4.2257">
        <ele>384</ele>
        <time>2022-09-08T12:12:06Z</time>
      </trkpt>
      <trkpt lat="45.49822" lon="4.22623">
        <ele>386</ele>
        <time>2022-09-08T12:12:12Z</time>
      </trkpt>
      <trkpt lat="45.49834" lon="4.22753">
        <ele>386</ele>
        <time>2022-09-08T12:12:29Z</time>
      </trkpt>
      <trkpt lat="45.49845" lon="4.22998">
        <ele>387</ele>
        <time>2022-09-08T12:12:59Z</time>
      </trkpt>
      <trkpt lat="45.49835" lon="4.23132">
        <ele>389</ele>
        <time>2022-09-08T12:13:16Z</time>
      </trkpt>
      <trkpt lat="45.49837" lon="4.23187">
        <ele>389</ele>
        <time>2022-09-08T12:13:23Z</time>
      </trkpt>
      <trkpt lat="45.49846" lon="4.23295">
        <ele>389</ele>
        <time>2022-09-08T12:13:37Z</time>
      </trkpt>
      <trkpt lat="45.49885" lon="4.23572">
        <ele>390</ele>
        <time>2022-09-08T12:14:12Z</time>
      </trkpt>
      <trkpt lat="45.49898" lon="4.23628">
        <ele>390</ele>
        <time>2022-09-08T12:14:19Z</time>
      </trkpt>
      <trkpt lat="45.4991" lon="4.23666">
        <ele>390</ele>
        <time>2022-09-08T12:14:24Z</time>
      </trkpt>
      <trkpt lat="45.4995" lon="4.23769">
        <ele>390</ele>
        <time>2022-09-08T12:14:39Z</time>
      </trkpt>
      <trkpt lat="45.4996" lon="4.23811">
        <ele>390</ele>
        <time>2022-09-08T12:14:45Z</time>
      </trkpt>
      <trkpt lat="45.49975" lon="4.23913">
        <ele>390</ele>
        <time>2022-09-08T12:14:58Z</time>
      </trkpt>
      <trkpt lat="45.49993" lon="4.24008">
        <ele>390</ele>
        <time>2022-09-08T12:15:10Z</time>
      </trkpt>
      <trkpt lat="45.49992" lon="4.24023">
        <ele>390</ele>
        <time>2022-09-08T12:15:12Z</time>
      </trkpt>
      <trkpt lat="45.49939" lon="4.24051">
        <ele>391</ele>
        <time>2022-09-08T12:15:22Z</time>
      </trkpt>
      <trkpt lat="45.49906" lon="4.24077">
        <ele>391</ele>
        <time>2022-09-08T12:15:29Z</time>
      </trkpt>
      <trkpt lat="45.49894" lon="4.24094">
        <ele>392</ele>
        <time>2022-09-08T12:15:32Z</time>
      </trkpt>
      <trkpt lat="45.49881" lon="4.24181">
        <ele>392</ele>
        <time>2022-09-08T12:15:43Z</time>
      </trkpt>
      <trkpt lat="45.49882" lon="4.24228">
        <ele>392</ele>
        <time>2022-09-08T12:15:49Z</time>
      </trkpt>
      <trkpt lat="45.49888" lon="4.24282">
        <ele>391</ele>
        <time>2022-09-08T12:15:55Z</time>
      </trkpt>
      <trkpt lat="45.49886" lon="4.24268">
        <ele>391</ele>
        <time>2022-09-08T12:15:57Z</time>
      </trkpt>
      <trkpt lat="45.49876" lon="4.24271">
        <ele>391</ele>
        <time>2022-09-08T12:15:59Z</time>
      </trkpt>
      <trkpt lat="45.49786" lon="4.24333">
        <ele>393</ele>
        <time>2022-09-08T12:16:17Z</time>
      </trkpt>
      <trkpt lat="45.49715" lon="4.24392">
        <ele>394</ele>
        <time>2022-09-08T12:16:31Z</time>
      </trkpt>
      <trkpt lat="45.49575" lon="4.24451">
        <ele>393</ele>
        <time>2022-09-08T12:16:57Z</time>
      </trkpt>
      <trkpt lat="45.49549" lon="4.24454">
        <ele>393</ele>
        <time>2022-09-08T12:17:02Z</time>
      </trkpt>
      <trkpt lat="45.49529" lon="4.2445">
        <ele>393</ele>
        <time>2022-09-08T12:17:06Z</time>
      </trkpt>
      <trkpt lat="45.4937" lon="4.24377">
        <ele>393</ele>
        <time>2022-09-08T12:17:35Z</time>
      </trkpt>
      <trkpt lat="45.49122" lon="4.24346">
        <ele>395</ele>
        <time>2022-09-08T12:18:20Z</time>
      </trkpt>
      <trkpt lat="45.49007" lon="4.24348">
        <ele>399</ele>
        <time>2022-09-08T12:18:40Z</time>
      </trkpt>
      <trkpt lat="45.48932" lon="4.24346">
        <ele>403</ele>
        <time>2022-09-08T12:18:53Z</time>
      </trkpt>
      <trkpt lat="45.48805" lon="4.24335">
        <ele>408</ele>
        <time>2022-09-08T12:19:16Z</time>
      </trkpt>
      <trkpt lat="45.48748" lon="4.24323">
        <ele>412</ele>
        <time>2022-09-08T12:19:26Z</time>
      </trkpt>
      <trkpt lat="45.48705" lon="4.2431">
        <ele>415</ele>
        <time>2022-09-08T12:19:34Z</time>
      </trkpt>
      <trkpt lat="45.48682" lon="4.24299">
        <ele>417</ele>
        <time>2022-09-08T12:19:38Z</time>
      </trkpt>
      <trkpt lat="45.48633" lon="4.24267">
        <ele>420</ele>
        <time>2022-09-08T12:19:48Z</time>
      </trkpt>
      <trkpt lat="45.48605" lon="4.24252">
        <ele>422</ele>
        <time>2022-09-08T12:19:53Z</time>
      </trkpt>
      <trkpt lat="45.4856" lon="4.24235">
        <ele>424</ele>
        <time>2022-09-08T12:20:02Z</time>
      </trkpt>
      <trkpt lat="45.48361" lon="4.24194">
        <ele>429</ele>
        <time>2022-09-08T12:20:37Z</time>
      </trkpt>
      <trkpt lat="45.48198" lon="4.24145">
        <ele>434</ele>
        <time>2022-09-08T12:21:07Z</time>
      </trkpt>
      <trkpt lat="45.48183" lon="4.24131">
        <ele>435</ele>
        <time>2022-09-08T12:21:10Z</time>
      </trkpt>
      <trkpt lat="45.48153" lon="4.24094">
        <ele>436</ele>
        <time>2022-09-08T12:21:17Z</time>
      </trkpt>
      <trkpt lat="45.48137" lon="4.24084">
        <ele>437</ele>
        <time>2022-09-08T12:21:20Z</time>
      </trkpt>
      <trkpt lat="45.48093" lon="4.24067">
        <ele>439</ele>
        <time>2022-09-08T12:21:29Z</time>
      </trkpt>
      <trkpt lat="45.48061" lon="4.24058">
        <ele>439</ele>
        <time>2022-09-08T12:21:34Z</time>
      </trkpt>
      <trkpt lat="45.48001" lon="4.24071">
        <ele>439</ele>
        <time>2022-09-08T12:21:45Z</time>
      </trkpt>
      <trkpt lat="45.47941" lon="4.24094">
        <ele>440</ele>
        <time>2022-09-08T12:21:56Z</time>
      </trkpt>
      <trkpt lat="45.47888" lon="4.24125">
        <ele>441</ele>
        <time>2022-09-08T12:22:06Z</time>
      </trkpt>
      <trkpt lat="45.47866" lon="4.24146">
        <ele>441</ele>
        <time>2022-09-08T12:22:11Z</time>
      </trkpt>
      <trkpt lat="45.47837" lon="4.24181">
        <ele>441</ele>
        <time>2022-09-08T12:22:18Z</time>
      </trkpt>
      <trkpt lat="45.47821" lon="4.24191">
        <ele>442</ele>
        <time>2022-09-08T12:22:21Z</time>
      </trkpt>
      <trkpt lat="45.47806" lon="4.24197">
        <ele>443</ele>
        <time>2022-09-08T12:22:24Z</time>
      </trkpt>
      <trkpt lat="45.47697" lon="4.24197">
        <ele>451</ele>
        <time>2022-09-08T12:22:43Z</time>
      </trkpt>
      <trkpt lat="45.47635" lon="4.242">
        <ele>454</ele>
        <time>2022-09-08T12:22:54Z</time>
      </trkpt>
      <trkpt lat="45.47447" lon="4.24241">
        <ele>457</ele>
        <time>2022-09-08T12:23:28Z</time>
      </trkpt>
      <trkpt lat="45.47427" lon="4.24239">
        <ele>458</ele>
        <time>2022-09-08T12:23:32Z</time>
      </trkpt>
      <trkpt lat="45.4741" lon="4.24233">
        <ele>460</ele>
        <time>2022-09-08T12:23:35Z</time>
      </trkpt>
      <trkpt lat="45.47387" lon="4.24214">
        <ele>463</ele>
        <time>2022-09-08T12:23:39Z</time>
      </trkpt>
      <trkpt lat="45.47392" lon="4.24219">
        <ele>462</ele>
        <time>2022-09-08T12:23:40Z</time>
      </trkpt>
      <trkpt lat="45.47389" lon="4.24226">
        <ele>461</ele>
        <time>2022-09-08T12:23:42Z</time>
      </trkpt>
      <trkpt lat="45.47366" lon="4.24242">
        <ele>460</ele>
        <time>2022-09-08T12:23:46Z</time>
      </trkpt>
      <trkpt lat="45.47162" lon="4.2436">
        <ele>448</ele>
        <time>2022-09-08T12:24:25Z</time>
      </trkpt>
      <trkpt lat="45.4714" lon="4.24367">
        <ele>446</ele>
        <time>2022-09-08T12:24:29Z</time>
      </trkpt>
      <trkpt lat="45.47123" lon="4.24367">
        <ele>445</ele>
        <time>2022-09-08T12:24:32Z</time>
      </trkpt>
      <trkpt lat="45.47106" lon="4.2436">
        <ele>445</ele>
        <time>2022-09-08T12:24:35Z</time>
      </trkpt>
      <trkpt lat="45.47088" lon="4.2434">
        <ele>446</ele>
        <time>2022-09-08T12:24:39Z</time>
      </trkpt>
      <trkpt lat="45.47027" lon="4.24246">
        <ele>442</ele>
        <time>2022-09-08T12:24:55Z</time>
      </trkpt>
      <trkpt lat="45.46915" lon="4.2419">
        <ele>429</ele>
        <time>2022-09-08T12:25:17Z</time>
      </trkpt>
      <trkpt lat="45.46872" lon="4.24144">
        <ele>429</ele>
        <time>2022-09-08T12:25:26Z</time>
      </trkpt>
      <trkpt lat="45.46839" lon="4.24116">
        <ele>424</ele>
        <time>2022-09-08T12:25:33Z</time>
      </trkpt>
      <trkpt lat="45.46824" lon="4.24098">
        <ele>425</ele>
        <time>2022-09-08T12:25:36Z</time>
      </trkpt>
      <trkpt lat="45.46809" lon="4.24065">
        <ele>429</ele>
        <time>2022-09-08T12:25:41Z</time>
      </trkpt>
      <trkpt lat="45.46798" lon="4.24055">
        <ele>431</ele>
        <time>2022-09-08T12:25:44Z</time>
      </trkpt>
      <trkpt lat="45.46788" lon="4.24058">
        <ele>431</ele>
        <time>2022-09-08T12:25:46Z</time>
      </trkpt>
      <trkpt lat="45.4678" lon="4.24066">
        <ele>431</ele>
        <time>2022-09-08T12:25:47Z</time>
      </trkpt>
      <trkpt lat="45.46776" lon="4.24083">
        <ele>431</ele>
        <time>2022-09-08T12:25:49Z</time>
      </trkpt>
      <trkpt lat="45.46779" lon="4.24105">
        <ele>432</ele>
        <time>2022-09-08T12:25:52Z</time>
      </trkpt>
      <trkpt lat="45.46809" lon="4.24223">
        <ele>430</ele>
        <time>2022-09-08T12:26:08Z</time>
      </trkpt>
      <trkpt lat="45.46822" lon="4.24246">
        <ele>427</ele>
        <time>2022-09-08T12:26:12Z</time>
      </trkpt>
      <trkpt lat="45.46861" lon="4.24303">
        <ele>422</ele>
        <time>2022-09-08T12:26:22Z</time>
      </trkpt>
      <trkpt lat="45.46882" lon="4.24382">
        <ele>418</ele>
        <time>2022-09-08T12:26:32Z</time>
      </trkpt>
      <trkpt lat="45.46885" lon="4.24396">
        <ele>417</ele>
        <time>2022-09-08T12:26:34Z</time>
      </trkpt>
      <trkpt lat="45.46885" lon="4.24411">
        <ele>417</ele>
        <time>2022-09-08T12:26:36Z</time>
      </trkpt>
      <trkpt lat="45.4688" lon="4.24428">
        <ele>417</ele>
        <time>2022-09-08T12:26:38Z</time>
      </trkpt>
      <trkpt lat="45.46873" lon="4.24438">
        <ele>418</ele>
        <time>2022-09-08T12:26:40Z</time>
      </trkpt>
      <trkpt lat="45.46863" lon="4.24446">
        <ele>419</ele>
        <time>2022-09-08T12:26:42Z</time>
      </trkpt>
      <trkpt lat="45.46837" lon="4.24458">
        <ele>421</ele>
        <time>2022-09-08T12:26:47Z</time>
      </trkpt>
      <trkpt lat="45.46825" lon="4.24468">
        <ele>422</ele>
        <time>2022-09-08T12:26:49Z</time>
      </trkpt>
      <trkpt lat="45.46818" lon="4.24481">
        <ele>423</ele>
        <time>2022-09-08T12:26:51Z</time>
      </trkpt>
      <trkpt lat="45.46813" lon="4.24493">
        <ele>424</ele>
        <time>2022-09-08T12:26:53Z</time>
      </trkpt>
      <trkpt lat="45.46814" lon="4.24518">
        <ele>423</ele>
        <time>2022-09-08T12:26:56Z</time>
      </trkpt>
      <trkpt lat="45.46824" lon="4.2457">
        <ele>420</ele>
        <time>2022-09-08T12:27:03Z</time>
      </trkpt>
      <trkpt lat="45.46821" lon="4.24588">
        <ele>420</ele>
        <time>2022-09-08T12:27:05Z</time>
      </trkpt>
      <trkpt lat="45.46815" lon="4.24605">
        <ele>417</ele>
        <time>2022-09-08T12:27:08Z</time>
      </trkpt>
      <trkpt lat="45.4676" lon="4.24693">
        <ele>415</ele>
        <time>2022-09-08T12:27:22Z</time>
      </trkpt>
      <trkpt lat="45.46715" lon="4.24743">
        <ele>412</ele>
        <time>2022-09-08T12:27:32Z</time>
      </trkpt>
      <trkpt lat="45.46701" lon="4.24767">
        <ele>412</ele>
        <time>2022-09-08T12:27:36Z</time>
      </trkpt>
      <trkpt lat="45.46693" lon="4.24792">
        <ele>413</ele>
        <time>2022-09-08T12:27:40Z</time>
      </trkpt>
      <trkpt lat="45.4669" lon="4.24821">
        <ele>413</ele>
        <time>2022-09-08T12:27:43Z</time>
      </trkpt>
      <trkpt lat="45.46693" lon="4.24847">
        <ele>413</ele>
        <time>2022-09-08T12:27:47Z</time>
      </trkpt>
      <trkpt lat="45.46701" lon="4.24876">
        <ele>414</ele>
        <time>2022-09-08T12:27:51Z</time>
      </trkpt>
      <trkpt lat="45.46715" lon="4.24899">
        <ele>415</ele>
        <time>2022-09-08T12:27:54Z</time>
      </trkpt>
      <trkpt lat="45.46748" lon="4.24934">
        <ele>420</ele>
        <time>2022-09-08T12:28:02Z</time>
      </trkpt>
      <trkpt lat="45.46734" lon="4.24936">
        <ele>421</ele>
        <time>2022-09-08T12:28:04Z</time>
      </trkpt>
      <trkpt lat="45.46729" lon="4.2494">
        <ele>423</ele>
        <time>2022-09-08T12:28:05Z</time>
      </trkpt>
      <trkpt lat="45.4673" lon="4.24944">
        <ele>424</ele>
        <time>2022-09-08T12:28:06Z</time>
      </trkpt>
      <trkpt lat="45.46737" lon="4.24951">
        <ele>426</ele>
        <time>2022-09-08T12:28:07Z</time>
      </trkpt>
      <trkpt lat="45.46743" lon="4.24981">
        <ele>435</ele>
        <time>2022-09-08T12:28:11Z</time>
      </trkpt>
      <trkpt lat="45.4676" lon="4.24997">
        <ele>441</ele>
        <time>2022-09-08T12:28:15Z</time>
      </trkpt>
      <trkpt lat="45.46745" lon="4.25019">
        <ele>446</ele>
        <time>2022-09-08T12:28:19Z</time>
      </trkpt>
      <trkpt lat="45.46752" lon="4.25035">
        <ele>450</ele>
        <time>2022-09-08T12:28:21Z</time>
      </trkpt>
      <trkpt lat="45.46742" lon="4.25056">
        <ele>454</ele>
        <time>2022-09-08T12:28:24Z</time>
      </trkpt>
      <trkpt lat="45.46733" lon="4.25063">
        <ele>455</ele>
        <time>2022-09-08T12:28:26Z</time>
      </trkpt>
      <trkpt lat="45.46702" lon="4.25102">
        <ele>457</ele>
        <time>2022-09-08T12:28:33Z</time>
      </trkpt>
      <trkpt lat="45.46688" lon="4.25128">
        <ele>459</ele>
        <time>2022-09-08T12:28:37Z</time>
      </trkpt>
      <trkpt lat="45.46665" lon="4.25157">
        <ele>460</ele>
        <time>2022-09-08T12:28:43Z</time>
      </trkpt>
      <trkpt lat="45.46661" lon="4.25169">
        <ele>461</ele>
        <time>2022-09-08T12:28:45Z</time>
      </trkpt>
      <trkpt lat="45.4667" lon="4.25199">
        <ele>462</ele>
        <time>2022-09-08T12:28:49Z</time>
      </trkpt>
      <trkpt lat="45.4668" lon="4.25213">
        <ele>464</ele>
        <time>2022-09-08T12:28:51Z</time>
      </trkpt>
      <trkpt lat="45.46693" lon="4.25223">
        <ele>466</ele>
        <time>2022-09-08T12:28:54Z</time>
      </trkpt>
      <trkpt lat="45.46696" lon="4.25238">
        <ele>466</ele>
        <time>2022-09-08T12:28:56Z</time>
      </trkpt>
      <trkpt lat="45.46726" lon="4.25317">
        <ele>469</ele>
        <time>2022-09-08T12:29:07Z</time>
      </trkpt>
      <trkpt lat="45.46737" lon="4.25338">
        <ele>470</ele>
        <time>2022-09-08T12:29:10Z</time>
      </trkpt>
      <trkpt lat="45.46751" lon="4.25355">
        <ele>471</ele>
        <time>2022-09-08T12:29:13Z</time>
      </trkpt>
      <trkpt lat="45.46806" lon="4.25404">
        <ele>475</ele>
        <time>2022-09-08T12:29:25Z</time>
      </trkpt>
      <trkpt lat="45.46818" lon="4.25411">
        <ele>477</ele>
        <time>2022-09-08T12:29:27Z</time>
      </trkpt>
      <trkpt lat="45.46878" lon="4.25424">
        <ele>482</ele>
        <time>2022-09-08T12:29:38Z</time>
      </trkpt>
      <trkpt lat="45.46962" lon="4.25446">
        <ele>484</ele>
        <time>2022-09-08T12:29:53Z</time>
      </trkpt>
      <trkpt lat="45.47006" lon="4.25465">
        <ele>485</ele>
        <time>2022-09-08T12:30:01Z</time>
      </trkpt>
      <trkpt lat="45.47109" lon="4.25526">
        <ele>487</ele>
        <time>2022-09-08T12:30:21Z</time>
      </trkpt>
      <trkpt lat="45.4714" lon="4.25551">
        <ele>487</ele>
        <time>2022-09-08T12:30:28Z</time>
      </trkpt>
      <trkpt lat="45.47161" lon="4.25572">
        <ele>488</ele>
        <time>2022-09-08T12:30:32Z</time>
      </trkpt>
      <trkpt lat="45.47185" lon="4.25605">
        <ele>488</ele>
        <time>2022-09-08T12:30:38Z</time>
      </trkpt>
      <trkpt lat="45.47217" lon="4.25669">
        <ele>489</ele>
        <time>2022-09-08T12:30:48Z</time>
      </trkpt>
      <trkpt lat="45.47235" lon="4.25738">
        <ele>491</ele>
        <time>2022-09-08T12:30:57Z</time>
      </trkpt>
      <trkpt lat="45.47256" lon="4.25869">
        <ele>497</ele>
        <time>2022-09-08T12:31:14Z</time>
      </trkpt>
      <trkpt lat="45.47253" lon="4.25944">
        <ele>499</ele>
        <time>2022-09-08T12:31:23Z</time>
      </trkpt>
      <trkpt lat="45.47241" lon="4.25982">
        <ele>500</ele>
        <time>2022-09-08T12:31:28Z</time>
      </trkpt>
      <trkpt lat="45.47216" lon="4.26014">
        <ele>500</ele>
        <time>2022-09-08T12:31:34Z</time>
      </trkpt>
      <trkpt lat="45.47129" lon="4.26051">
        <ele>502</ele>
        <time>2022-09-08T12:31:51Z</time>
      </trkpt>
      <trkpt lat="45.47103" lon="4.2607">
        <ele>503</ele>
        <time>2022-09-08T12:31:56Z</time>
      </trkpt>
      <trkpt lat="45.47084" lon="4.26099">
        <ele>504</ele>
        <time>2022-09-08T12:32:01Z</time>
      </trkpt>
      <trkpt lat="45.47074" lon="4.2612">
        <ele>504</ele>
        <time>2022-09-08T12:32:04Z</time>
      </trkpt>
      <trkpt lat="45.4706" lon="4.26169">
        <ele>507</ele>
        <time>2022-09-08T12:32:11Z</time>
      </trkpt>
      <trkpt lat="45.47058" lon="4.26203">
        <ele>508</ele>
        <time>2022-09-08T12:32:15Z</time>
      </trkpt>
      <trkpt lat="45.47062" lon="4.26246">
        <ele>509</ele>
        <time>2022-09-08T12:32:20Z</time>
      </trkpt>
      <trkpt lat="45.47109" lon="4.2635">
        <ele>509</ele>
        <time>2022-09-08T12:32:36Z</time>
      </trkpt>
      <trkpt lat="45.47125" lon="4.26395">
        <ele>510</ele>
        <time>2022-09-08T12:32:42Z</time>
      </trkpt>
      <trkpt lat="45.47121" lon="4.26439">
        <ele>511</ele>
        <time>2022-09-08T12:32:47Z</time>
      </trkpt>
      <trkpt lat="45.47107" lon="4.26485">
        <ele>513</ele>
        <time>2022-09-08T12:32:54Z</time>
      </trkpt>
      <trkpt lat="45.47045" lon="4.26543">
        <ele>519</ele>
        <time>2022-09-08T12:33:07Z</time>
      </trkpt>
      <trkpt lat="45.47022" lon="4.26576">
        <ele>520</ele>
        <time>2022-09-08T12:33:13Z</time>
      </trkpt>
      <trkpt lat="45.47004" lon="4.26618">
        <ele>522</ele>
        <time>2022-09-08T12:33:19Z</time>
      </trkpt>
      <trkpt lat="45.46994" lon="4.26667">
        <ele>523</ele>
        <time>2022-09-08T12:33:25Z</time>
      </trkpt>
      <trkpt lat="45.46985" lon="4.26729">
        <ele>524</ele>
        <time>2022-09-08T12:33:33Z</time>
      </trkpt>
      <trkpt lat="45.46982" lon="4.26779">
        <ele>525</ele>
        <time>2022-09-08T12:33:39Z</time>
      </trkpt>
      <trkpt lat="45.46988" lon="4.26821">
        <ele>528</ele>
        <time>2022-09-08T12:33:45Z</time>
      </trkpt>
      <trkpt lat="45.47002" lon="4.26864">
        <ele>531</ele>
        <time>2022-09-08T12:33:51Z</time>
      </trkpt>
      <trkpt lat="45.47023" lon="4.269">
        <ele>532</ele>
        <time>2022-09-08T12:33:56Z</time>
      </trkpt>
      <trkpt lat="45.47143" lon="4.27042">
        <ele>535</ele>
        <time>2022-09-08T12:34:24Z</time>
      </trkpt>
      <trkpt lat="45.4716" lon="4.27079">
        <ele>537</ele>
        <time>2022-09-08T12:34:30Z</time>
      </trkpt>
      <trkpt lat="45.47168" lon="4.27114">
        <ele>538</ele>
        <time>2022-09-08T12:34:34Z</time>
      </trkpt>
      <trkpt lat="45.47175" lon="4.27203">
        <ele>541</ele>
        <time>2022-09-08T12:34:46Z</time>
      </trkpt>
      <trkpt lat="45.47186" lon="4.27243">
        <ele>542</ele>
        <time>2022-09-08T12:34:51Z</time>
      </trkpt>
      <trkpt lat="45.47239" lon="4.27314">
        <ele>542</ele>
        <time>2022-09-08T12:35:04Z</time>
      </trkpt>
      <trkpt lat="45.47267" lon="4.27361">
        <ele>541</ele>
        <time>2022-09-08T12:35:12Z</time>
      </trkpt>
      <trkpt lat="45.47268" lon="4.27416">
        <ele>542</ele>
        <time>2022-09-08T12:35:18Z</time>
      </trkpt>
      <trkpt lat="45.47262" lon="4.27485">
        <ele>542</ele>
        <time>2022-09-08T12:35:27Z</time>
      </trkpt>
      <trkpt lat="45.47251" lon="4.27546">
        <ele>543</ele>
        <time>2022-09-08T12:35:35Z</time>
      </trkpt>
      <trkpt lat="45.47235" lon="4.276">
        <ele>545</ele>
        <time>2022-09-08T12:35:42Z</time>
      </trkpt>
      <trkpt lat="45.47216" lon="4.27644">
        <ele>547</ele>
        <time>2022-09-08T12:35:49Z</time>
      </trkpt>
      <trkpt lat="45.47203" lon="4.27721">
        <ele>547</ele>
        <time>2022-09-08T12:35:59Z</time>
      </trkpt>
      <trkpt lat="45.47196" lon="4.27836">
        <ele>549</ele>
        <time>2022-09-08T12:36:13Z</time>
      </trkpt>
      <trkpt lat="45.47209" lon="4.27887">
        <ele>549</ele>
        <time>2022-09-08T12:36:20Z</time>
      </trkpt>
      <trkpt lat="45.47249" lon="4.27944">
        <ele>549</ele>
        <time>2022-09-08T12:36:30Z</time>
      </trkpt>
      <trkpt lat="45.47287" lon="4.27964">
        <ele>550</ele>
        <time>2022-09-08T12:36:37Z</time>
      </trkpt>
      <trkpt lat="45.47341" lon="4.27984">
        <ele>552</ele>
        <time>2022-09-08T12:36:47Z</time>
      </trkpt>
      <trkpt lat="45.47363" lon="4.28006">
        <ele>552</ele>
        <time>2022-09-08T12:36:52Z</time>
      </trkpt>
      <trkpt lat="45.47376" lon="4.28025">
        <ele>552</ele>
        <time>2022-09-08T12:36:55Z</time>
      </trkpt>
      <trkpt lat="45.47387" lon="4.28079">
        <ele>555</ele>
        <time>2022-09-08T12:37:02Z</time>
      </trkpt>
      <trkpt lat="45.47388" lon="4.28101">
        <ele>556</ele>
        <time>2022-09-08T12:37:05Z</time>
      </trkpt>
      <trkpt lat="45.47376" lon="4.28107">
        <ele>556</ele>
        <time>2022-09-08T12:37:07Z</time>
      </trkpt>
      <trkpt lat="45.47378" lon="4.28107">
        <ele>556</ele>
        <time>2022-09-08T12:37:07Z</time>
      </trkpt>
      <trkpt lat="45.47373" lon="4.28118">
        <ele>556</ele>
        <time>2022-09-08T12:37:09Z</time>
      </trkpt>
      <trkpt lat="45.47363" lon="4.28163">
        <ele>556</ele>
        <time>2022-09-08T12:37:15Z</time>
      </trkpt>
      <trkpt lat="45.47334" lon="4.28254">
        <ele>554</ele>
        <time>2022-09-08T12:37:27Z</time>
      </trkpt>
      <trkpt lat="45.47326" lon="4.28271">
        <ele>555</ele>
        <time>2022-09-08T12:37:30Z</time>
      </trkpt>
      <trkpt lat="45.47315" lon="4.28279">
        <ele>555</ele>
        <time>2022-09-08T12:37:32Z</time>
      </trkpt>
      <trkpt lat="45.473" lon="4.28285">
        <ele>554</ele>
        <time>2022-09-08T12:37:35Z</time>
      </trkpt>
      <trkpt lat="45.47236" lon="4.28279">
        <ele>546</ele>
        <time>2022-09-08T12:37:46Z</time>
      </trkpt>
      <trkpt lat="45.47218" lon="4.28283">
        <ele>544</ele>
        <time>2022-09-08T12:37:50Z</time>
      </trkpt>
      <trkpt lat="45.47194" lon="4.28294">
        <ele>542</ele>
        <time>2022-09-08T12:37:54Z</time>
      </trkpt>
      <trkpt lat="45.47161" lon="4.28315">
        <ele>540</ele>
        <time>2022-09-08T12:38:00Z</time>
      </trkpt>
      <trkpt lat="45.47147" lon="4.2833">
        <ele>539</ele>
        <time>2022-09-08T12:38:04Z</time>
      </trkpt>
      <trkpt lat="45.47136" lon="4.28352">
        <ele>537</ele>
        <time>2022-09-08T12:38:07Z</time>
      </trkpt>
      <trkpt lat="45.47128" lon="4.2838">
        <ele>536</ele>
        <time>2022-09-08T12:38:11Z</time>
      </trkpt>
      <trkpt lat="45.47128" lon="4.28398">
        <ele>537</ele>
        <time>2022-09-08T12:38:13Z</time>
      </trkpt>
      <trkpt lat="45.47132" lon="4.28416">
        <ele>539</ele>
        <time>2022-09-08T12:38:15Z</time>
      </trkpt>
      <trkpt lat="45.47143" lon="4.28446">
        <ele>545</ele>
        <time>2022-09-08T12:38:20Z</time>
      </trkpt>
      <trkpt lat="45.47143" lon="4.28468">
        <ele>547</ele>
        <time>2022-09-08T12:38:22Z</time>
      </trkpt>
      <trkpt lat="45.47138" lon="4.28482">
        <ele>547</ele>
        <time>2022-09-08T12:38:24Z</time>
      </trkpt>
      <trkpt lat="45.47127" lon="4.28492">
        <ele>546</ele>
        <time>2022-09-08T12:38:27Z</time>
      </trkpt>
      <trkpt lat="45.47113" lon="4.28498">
        <ele>544</ele>
        <time>2022-09-08T12:38:29Z</time>
      </trkpt>
      <trkpt lat="45.47049" lon="4.28505">
        <ele>534</ele>
        <time>2022-09-08T12:38:41Z</time>
      </trkpt>
      <trkpt lat="45.4692" lon="4.28563">
        <ele>528</ele>
        <time>2022-09-08T12:39:05Z</time>
      </trkpt>
      <trkpt lat="45.46834" lon="4.28524">
        <ele>519</ele>
        <time>2022-09-08T12:39:21Z</time>
      </trkpt>
      <trkpt lat="45.46797" lon="4.28524">
        <ele>515</ele>
        <time>2022-09-08T12:39:27Z</time>
      </trkpt>
      <trkpt lat="45.46724" lon="4.28572">
        <ele>510</ele>
        <time>2022-09-08T12:39:42Z</time>
      </trkpt>
      <trkpt lat="45.46718" lon="4.2858">
        <ele>509</ele>
        <time>2022-09-08T12:39:43Z</time>
      </trkpt>
      <trkpt lat="45.46712" lon="4.28597">
        <ele>507</ele>
        <time>2022-09-08T12:39:45Z</time>
      </trkpt>
      <trkpt lat="45.46717" lon="4.2862">
        <ele>506</ele>
        <time>2022-09-08T12:39:48Z</time>
      </trkpt>
      <trkpt lat="45.46806" lon="4.28686">
        <ele>508</ele>
        <time>2022-09-08T12:40:06Z</time>
      </trkpt>
      <trkpt lat="45.46827" lon="4.28693">
        <ele>507</ele>
        <time>2022-09-08T12:40:10Z</time>
      </trkpt>
      <trkpt lat="45.46849" lon="4.28688">
        <ele>512</ele>
        <time>2022-09-08T12:40:14Z</time>
      </trkpt>
      <trkpt lat="45.46869" lon="4.28697">
        <ele>514</ele>
        <time>2022-09-08T12:40:18Z</time>
      </trkpt>
      <trkpt lat="45.46912" lon="4.28763">
        <ele>510</ele>
        <time>2022-09-08T12:40:29Z</time>
      </trkpt>
      <trkpt lat="45.46983" lon="4.28799">
        <ele>516</ele>
        <time>2022-09-08T12:40:43Z</time>
      </trkpt>
      <trkpt lat="45.46988" lon="4.28819">
        <ele>512</ele>
        <time>2022-09-08T12:40:45Z</time>
      </trkpt>
      <trkpt lat="45.46985" lon="4.28832">
        <ele>510</ele>
        <time>2022-09-08T12:40:47Z</time>
      </trkpt>
      <trkpt lat="45.46971" lon="4.2885">
        <ele>512</ele>
        <time>2022-09-08T12:40:50Z</time>
      </trkpt>
      <trkpt lat="45.46869" lon="4.28837">
        <ele>505</ele>
        <time>2022-09-08T12:41:08Z</time>
      </trkpt>
      <trkpt lat="45.4667" lon="4.28773">
        <ele>487</ele>
        <time>2022-09-08T12:41:45Z</time>
      </trkpt>
      <trkpt lat="45.46656" lon="4.28772">
        <ele>486</ele>
        <time>2022-09-08T12:41:47Z</time>
      </trkpt>
      <trkpt lat="45.4665" lon="4.28781">
        <ele>487</ele>
        <time>2022-09-08T12:41:49Z</time>
      </trkpt>
      <trkpt lat="45.46646" lon="4.28806">
        <ele>488</ele>
        <time>2022-09-08T12:41:52Z</time>
      </trkpt>
      <trkpt lat="45.46637" lon="4.28946">
        <ele>493</ele>
        <time>2022-09-08T12:42:10Z</time>
      </trkpt>
      <trkpt lat="45.46599" lon="4.29069">
        <ele>490</ele>
        <time>2022-09-08T12:42:26Z</time>
      </trkpt>
      <trkpt lat="45.4657" lon="4.2912">
        <ele>491</ele>
        <time>2022-09-08T12:42:34Z</time>
      </trkpt>
      <trkpt lat="45.46516" lon="4.29169">
        <ele>485</ele>
        <time>2022-09-08T12:42:46Z</time>
      </trkpt>
      <trkpt lat="45.46506" lon="4.2917">
        <ele>482</ele>
        <time>2022-09-08T12:42:48Z</time>
      </trkpt>
      <trkpt lat="45.46499" lon="4.29168">
        <ele>480</ele>
        <time>2022-09-08T12:42:49Z</time>
      </trkpt>
      <trkpt lat="45.46471" lon="4.29149">
        <ele>486</ele>
        <time>2022-09-08T12:42:54Z</time>
      </trkpt>
      <trkpt lat="45.46461" lon="4.29151">
        <ele>489</ele>
        <time>2022-09-08T12:42:56Z</time>
      </trkpt>
      <trkpt lat="45.4645" lon="4.29158">
        <ele>491</ele>
        <time>2022-09-08T12:42:58Z</time>
      </trkpt>
      <trkpt lat="45.46402" lon="4.29251">
        <ele>494</ele>
        <time>2022-09-08T12:43:13Z</time>
      </trkpt>
      <trkpt lat="45.46378" lon="4.29319">
        <ele>499</ele>
        <time>2022-09-08T12:43:22Z</time>
      </trkpt>
      <trkpt lat="45.46355" lon="4.29359">
        <ele>501</ele>
        <time>2022-09-08T12:43:29Z</time>
      </trkpt>
      <trkpt lat="45.46323" lon="4.29458">
        <ele>498</ele>
        <time>2022-09-08T12:43:42Z</time>
      </trkpt>
      <trkpt lat="45.46312" lon="4.29478">
        <ele>498</ele>
        <time>2022-09-08T12:43:46Z</time>
      </trkpt>
      <trkpt lat="45.463" lon="4.29487">
        <ele>499</ele>
        <time>2022-09-08T12:43:48Z</time>
      </trkpt>
      <trkpt lat="45.46287" lon="4.29489">
        <ele>500</ele>
        <time>2022-09-08T12:43:50Z</time>
      </trkpt>
      <trkpt lat="45.4618" lon="4.29477">
        <ele>507</ele>
        <time>2022-09-08T12:44:09Z</time>
      </trkpt>
      <trkpt lat="45.46148" lon="4.29488">
        <ele>507</ele>
        <time>2022-09-08T12:44:15Z</time>
      </trkpt>
      <trkpt lat="45.4613" lon="4.2949">
        <ele>508</ele>
        <time>2022-09-08T12:44:18Z</time>
      </trkpt>
      <trkpt lat="45.46032" lon="4.29487">
        <ele>516</ele>
        <time>2022-09-08T12:44:36Z</time>
      </trkpt>
      <trkpt lat="45.45959" lon="4.29513">
        <ele>520</ele>
        <time>2022-09-08T12:44:49Z</time>
      </trkpt>
      <trkpt lat="45.45932" lon="4.29516">
        <ele>522</ele>
        <time>2022-09-08T12:44:54Z</time>
      </trkpt>
      <trkpt lat="45.45816" lon="4.2952">
        <ele>533</ele>
        <time>2022-09-08T12:45:15Z</time>
      </trkpt>
      <trkpt lat="45.45756" lon="4.29527">
        <ele>537</ele>
        <time>2022-09-08T12:45:25Z</time>
      </trkpt>
      <trkpt lat="45.45708" lon="4.29558">
        <ele>535</ele>
        <time>2022-09-08T12:45:35Z</time>
      </trkpt>
      <trkpt lat="45.45691" lon="4.29561">
        <ele>535</ele>
        <time>2022-09-08T12:45:38Z</time>
      </trkpt>
      <trkpt lat="45.45666" lon="4.29554">
        <ele>538</ele>
        <time>2022-09-08T12:45:42Z</time>
      </trkpt>
      <trkpt lat="45.4565" lon="4.29541">
        <ele>539</ele>
        <time>2022-09-08T12:45:46Z</time>
      </trkpt>
      <trkpt lat="45.45617" lon="4.29502">
        <ele>542</ele>
        <time>2022-09-08T12:45:53Z</time>
      </trkpt>
      <trkpt lat="45.45584" lon="4.29475">
        <ele>545</ele>
        <time>2022-09-08T12:46:00Z</time>
      </trkpt>
      <trkpt lat="45.45533" lon="4.29461">
        <ele>547</ele>
        <time>2022-09-08T12:46:09Z</time>
      </trkpt>
      <trkpt lat="45.45498" lon="4.29438">
        <ele>549</ele>
        <time>2022-09-08T12:46:16Z</time>
      </trkpt>
      <trkpt lat="45.45485" lon="4.29444">
        <ele>550</ele>
        <time>2022-09-08T12:46:19Z</time>
      </trkpt>
      <trkpt lat="45.45461" lon="4.29488">
        <ele>548</ele>
        <time>2022-09-08T12:46:26Z</time>
      </trkpt>
      <trkpt lat="45.4539" lon="4.29514">
        <ele>553</ele>
        <time>2022-09-08T12:46:39Z</time>
      </trkpt>
      <trkpt lat="45.45331" lon="4.29513">
        <ele>555</ele>
        <time>2022-09-08T12:46:49Z</time>
      </trkpt>
      <trkpt lat="45.45342" lon="4.29661">
        <ele>558</ele>
        <time>2022-09-08T12:47:08Z</time>
      </trkpt>
      <trkpt lat="45.45372" lon="4.29932">
        <ele>564</ele>
        <time>2022-09-08T12:47:42Z</time>
      </trkpt>
      <trkpt lat="45.45374" lon="4.29991">
        <ele>564</ele>
        <time>2022-09-08T12:47:49Z</time>
      </trkpt>
      <trkpt lat="45.45373" lon="4.30029">
        <ele>564</ele>
        <time>2022-09-08T12:47:54Z</time>
      </trkpt>
      <trkpt lat="45.45364" lon="4.30067">
        <ele>563</ele>
        <time>2022-09-08T12:47:59Z</time>
      </trkpt>
      <trkpt lat="45.45326" lon="4.30168">
        <ele>566</ele>
        <time>2022-09-08T12:48:13Z</time>
      </trkpt>
      <trkpt lat="45.45316" lon="4.30203">
        <ele>565</ele>
        <time>2022-09-08T12:48:18Z</time>
      </trkpt>
      <trkpt lat="45.45321" lon="4.30232">
        <ele>565</ele>
        <time>2022-09-08T12:48:22Z</time>
      </trkpt>
      <trkpt lat="45.45341" lon="4.30323">
        <ele>565</ele>
        <time>2022-09-08T12:48:34Z</time>
      </trkpt>
      <trkpt lat="45.45365" lon="4.30407">
        <ele>567</ele>
        <time>2022-09-08T12:48:45Z</time>
      </trkpt>
      <trkpt lat="45.45421" lon="4.30538">
        <ele>574</ele>
        <time>2022-09-08T12:49:04Z</time>
      </trkpt>
      <trkpt lat="45.45469" lon="4.30667">
        <ele>585</ele>
        <time>2022-09-08T12:49:22Z</time>
      </trkpt>
      <trkpt lat="45.45522" lon="4.30778">
        <ele>592</ele>
        <time>2022-09-08T12:49:39Z</time>
      </trkpt>
      <trkpt lat="45.45542" lon="4.30813">
        <ele>593</ele>
        <time>2022-09-08T12:49:45Z</time>
      </trkpt>
      <trkpt lat="45.45578" lon="4.30898">
        <ele>591</ele>
        <time>2022-09-08T12:49:57Z</time>
      </trkpt>
      <trkpt lat="45.45633" lon="4.31015">
        <ele>583</ele>
        <time>2022-09-08T12:50:15Z</time>
      </trkpt>
      <trkpt lat="45.45655" lon="4.31079">
        <ele>583</ele>
        <time>2022-09-08T12:50:24Z</time>
      </trkpt>
      <trkpt lat="45.45656" lon="4.31111">
        <ele>585</ele>
        <time>2022-09-08T12:50:28Z</time>
      </trkpt>
      <trkpt lat="45.45654" lon="4.31129">
        <ele>586</ele>
        <time>2022-09-08T12:50:30Z</time>
      </trkpt>
      <trkpt lat="45.45623" lon="4.31192">
        <ele>587</ele>
        <time>2022-09-08T12:50:40Z</time>
      </trkpt>
      <trkpt lat="45.45602" lon="4.31224">
        <ele>587</ele>
        <time>2022-09-08T12:50:45Z</time>
      </trkpt>
      <trkpt lat="45.45582" lon="4.31263">
        <ele>588</ele>
        <time>2022-09-08T12:50:51Z</time>
      </trkpt>
      <trkpt lat="45.45567" lon="4.31304">
        <ele>589</ele>
        <time>2022-09-08T12:50:57Z</time>
      </trkpt>
      <trkpt lat="45.4556" lon="4.31353">
        <ele>591</ele>
        <time>2022-09-08T12:51:03Z</time>
      </trkpt>
      <trkpt lat="45.4555" lon="4.31464">
        <ele>596</ele>
        <time>2022-09-08T12:51:17Z</time>
      </trkpt>
      <trkpt lat="45.45513" lon="4.31579">
        <ele>598</ele>
        <time>2022-09-08T12:51:33Z</time>
      </trkpt>
      <trkpt lat="45.45492" lon="4.31606">
        <ele>598</ele>
        <time>2022-09-08T12:51:38Z</time>
      </trkpt>
      <trkpt lat="45.45471" lon="4.31641">
        <ele>598</ele>
        <time>2022-09-08T12:51:44Z</time>
      </trkpt>
      <trkpt lat="45.45456" lon="4.31672">
        <ele>599</ele>
        <time>2022-09-08T12:51:48Z</time>
      </trkpt>
      <trkpt lat="45.45441" lon="4.31719">
        <ele>604</ele>
        <time>2022-09-08T12:51:55Z</time>
      </trkpt>
      <trkpt lat="45.45431" lon="4.31741">
        <ele>606</ele>
        <time>2022-09-08T12:51:58Z</time>
      </trkpt>
      <trkpt lat="45.4541" lon="4.31761">
        <ele>607</ele>
        <time>2022-09-08T12:52:02Z</time>
      </trkpt>
      <trkpt lat="45.45359" lon="4.31791">
        <ele>609</ele>
        <time>2022-09-08T12:52:12Z</time>
      </trkpt>
      <trkpt lat="45.45298" lon="4.318">
        <ele>608</ele>
        <time>2022-09-08T12:52:23Z</time>
      </trkpt>
      <trkpt lat="45.45265" lon="4.31808">
        <ele>607</ele>
        <time>2022-09-08T12:52:29Z</time>
      </trkpt>
      <trkpt lat="45.45244" lon="4.31818">
        <ele>607</ele>
        <time>2022-09-08T12:52:33Z</time>
      </trkpt>
      <trkpt lat="45.45224" lon="4.31843">
        <ele>608</ele>
        <time>2022-09-08T12:52:38Z</time>
      </trkpt>
      <trkpt lat="45.45194" lon="4.31895">
        <ele>610</ele>
        <time>2022-09-08T12:52:46Z</time>
      </trkpt>
      <trkpt lat="45.45187" lon="4.31924">
        <ele>611</ele>
        <time>2022-09-08T12:52:50Z</time>
      </trkpt>
      <trkpt lat="45.45185" lon="4.31947">
        <ele>609</ele>
        <time>2022-09-08T12:52:53Z</time>
      </trkpt>
      <trkpt lat="45.45188" lon="4.31971">
        <ele>609</ele>
        <time>2022-09-08T12:52:56Z</time>
      </trkpt>
      <trkpt lat="45.45194" lon="4.31993">
        <ele>609</ele>
        <time>2022-09-08T12:52:59Z</time>
      </trkpt>
      <trkpt lat="45.45212" lon="4.32039">
        <ele>610</ele>
        <time>2022-09-08T12:53:06Z</time>
      </trkpt>
      <trkpt lat="45.45218" lon="4.32069">
        <ele>610</ele>
        <time>2022-09-08T12:53:09Z</time>
      </trkpt>
      <trkpt lat="45.45227" lon="4.32131">
        <ele>611</ele>
        <time>2022-09-08T12:53:17Z</time>
      </trkpt>
      <trkpt lat="45.45226" lon="4.32153">
        <ele>611</ele>
        <time>2022-09-08T12:53:20Z</time>
      </trkpt>
      <trkpt lat="45.45221" lon="4.32163">
        <ele>610</ele>
        <time>2022-09-08T12:53:22Z</time>
      </trkpt>
      <trkpt lat="45.45164" lon="4.32201">
        <ele>604</ele>
        <time>2022-09-08T12:53:33Z</time>
      </trkpt>
      <trkpt lat="45.45149" lon="4.32217">
        <ele>602</ele>
        <time>2022-09-08T12:53:36Z</time>
      </trkpt>
      <trkpt lat="45.45141" lon="4.32238">
        <ele>601</ele>
        <time>2022-09-08T12:53:39Z</time>
      </trkpt>
      <trkpt lat="45.45138" lon="4.32273">
        <ele>601</ele>
        <time>2022-09-08T12:53:44Z</time>
      </trkpt>
      <trkpt lat="45.45154" lon="4.32371">
        <ele>605</ele>
        <time>2022-09-08T12:53:56Z</time>
      </trkpt>
      <trkpt lat="45.45151" lon="4.32393">
        <ele>604</ele>
        <time>2022-09-08T12:53:59Z</time>
      </trkpt>
      <trkpt lat="45.45141" lon="4.32407">
        <ele>603</ele>
        <time>2022-09-08T12:54:01Z</time>
      </trkpt>
      <trkpt lat="45.45116" lon="4.32425">
        <ele>600</ele>
        <time>2022-09-08T12:54:06Z</time>
      </trkpt>
      <trkpt lat="45.45058" lon="4.3246">
        <ele>595</ele>
        <time>2022-09-08T12:54:18Z</time>
      </trkpt>
      <trkpt lat="45.45048" lon="4.32472">
        <ele>594</ele>
        <time>2022-09-08T12:54:20Z</time>
      </trkpt>
      <trkpt lat="45.45039" lon="4.32489">
        <ele>594</ele>
        <time>2022-09-08T12:54:23Z</time>
      </trkpt>
      <trkpt lat="45.45036" lon="4.32511">
        <ele>595</ele>
        <time>2022-09-08T12:54:25Z</time>
      </trkpt>
      <trkpt lat="45.45035" lon="4.32569">
        <ele>600</ele>
        <time>2022-09-08T12:54:33Z</time>
      </trkpt>
      <trkpt lat="45.45027" lon="4.32612">
        <ele>602</ele>
        <time>2022-09-08T12:54:38Z</time>
      </trkpt>
      <trkpt lat="45.45012" lon="4.32637">
        <ele>600</ele>
        <time>2022-09-08T12:54:42Z</time>
      </trkpt>
      <trkpt lat="45.44973" lon="4.32672">
        <ele>595</ele>
        <time>2022-09-08T12:54:50Z</time>
      </trkpt>
      <trkpt lat="45.44955" lon="4.32693">
        <ele>594</ele>
        <time>2022-09-08T12:54:55Z</time>
      </trkpt>
      <trkpt lat="45.44935" lon="4.32711">
        <ele>593</ele>
        <time>2022-09-08T12:54:59Z</time>
      </trkpt>
      <trkpt lat="45.44905" lon="4.32728">
        <ele>590</ele>
        <time>2022-09-08T12:55:05Z</time>
      </trkpt>
      <trkpt lat="45.44878" lon="4.32748">
        <ele>588</ele>
        <time>2022-09-08T12:55:10Z</time>
      </trkpt>
      <trkpt lat="45.44841" lon="4.3278">
        <ele>586</ele>
        <time>2022-09-08T12:55:18Z</time>
      </trkpt>
      <trkpt lat="45.44772" lon="4.32849">
        <ele>581</ele>
        <time>2022-09-08T12:55:33Z</time>
      </trkpt>
      <trkpt lat="45.44743" lon="4.32883">
        <ele>576</ele>
        <time>2022-09-08T12:55:39Z</time>
      </trkpt>
      <trkpt lat="45.44738" lon="4.32896">
        <ele>576</ele>
        <time>2022-09-08T12:55:41Z</time>
      </trkpt>
      <trkpt lat="45.44736" lon="4.32914">
        <ele>577</ele>
        <time>2022-09-08T12:55:43Z</time>
      </trkpt>
      <trkpt lat="45.44755" lon="4.32946">
        <ele>581</ele>
        <time>2022-09-08T12:55:49Z</time>
      </trkpt>
      <trkpt lat="45.44762" lon="4.32965">
        <ele>581</ele>
        <time>2022-09-08T12:55:51Z</time>
      </trkpt>
      <trkpt lat="45.44766" lon="4.33017">
        <ele>582</ele>
        <time>2022-09-08T12:55:58Z</time>
      </trkpt>
      <trkpt lat="45.44756" lon="4.33044">
        <ele>582</ele>
        <time>2022-09-08T12:56:02Z</time>
      </trkpt>
      <trkpt lat="45.44724" lon="4.33077">
        <ele>577</ele>
        <time>2022-09-08T12:56:09Z</time>
      </trkpt>
      <trkpt lat="45.44704" lon="4.33104">
        <ele>574</ele>
        <time>2022-09-08T12:56:14Z</time>
      </trkpt>
      <trkpt lat="45.44685" lon="4.33143">
        <ele>573</ele>
        <time>2022-09-08T12:56:20Z</time>
      </trkpt>
      <trkpt lat="45.44676" lon="4.33187">
        <ele>572</ele>
        <time>2022-09-08T12:56:25Z</time>
      </trkpt>
      <trkpt lat="45.44682" lon="4.33216">
        <ele>572</ele>
        <time>2022-09-08T12:56:29Z</time>
      </trkpt>
      <trkpt lat="45.44691" lon="4.33232">
        <ele>572</ele>
        <time>2022-09-08T12:56:32Z</time>
      </trkpt>
      <trkpt lat="45.44701" lon="4.33244">
        <ele>573</ele>
        <time>2022-09-08T12:56:34Z</time>
      </trkpt>
      <trkpt lat="45.44741" lon="4.33271">
        <ele>577</ele>
        <time>2022-09-08T12:56:42Z</time>
      </trkpt>
      <trkpt lat="45.44785" lon="4.33277">
        <ele>578</ele>
        <time>2022-09-08T12:56:50Z</time>
      </trkpt>
      <trkpt lat="45.44796" lon="4.33282">
        <ele>578</ele>
        <time>2022-09-08T12:56:52Z</time>
      </trkpt>
      <trkpt lat="45.44802" lon="4.33292">
        <ele>578</ele>
        <time>2022-09-08T12:56:53Z</time>
      </trkpt>
      <trkpt lat="45.44808" lon="4.33307">
        <ele>577</ele>
        <time>2022-09-08T12:56:56Z</time>
      </trkpt>
      <trkpt lat="45.44811" lon="4.33326">
        <ele>575</ele>
        <time>2022-09-08T12:56:58Z</time>
      </trkpt>
      <trkpt lat="45.44806" lon="4.33411">
        <ele>577</ele>
        <time>2022-09-08T12:57:09Z</time>
      </trkpt>
      <trkpt lat="45.44799" lon="4.33414">
        <ele>577</ele>
        <time>2022-09-08T12:57:10Z</time>
      </trkpt>
      <trkpt lat="45.44647" lon="4.33431">
        <ele>576</ele>
        <time>2022-09-08T12:57:37Z</time>
      </trkpt>
      <trkpt lat="45.44621" lon="4.33446">
        <ele>577</ele>
        <time>2022-09-08T12:57:42Z</time>
      </trkpt>
      <trkpt lat="45.44628" lon="4.33479">
        <ele>578</ele>
        <time>2022-09-08T12:57:46Z</time>
      </trkpt>
      <trkpt lat="45.44635" lon="4.3358">
        <ele>579</ele>
        <time>2022-09-08T12:57:59Z</time>
      </trkpt>
      <trkpt lat="45.44632" lon="4.33591">
        <ele>578</ele>
        <time>2022-09-08T12:58:00Z</time>
      </trkpt>
      <trkpt lat="45.4464" lon="4.33615">
        <ele>577</ele>
        <time>2022-09-08T12:58:04Z</time>
      </trkpt>
      <trkpt lat="45.44624" lon="4.33627">
        <ele>577</ele>
        <time>2022-09-08T12:58:07Z</time>
      </trkpt>
      <trkpt lat="45.4462" lon="4.33637">
        <ele>576</ele>
        <time>2022-09-08T12:58:08Z</time>
      </trkpt>
      <trkpt lat="45.44624" lon="4.33648">
        <ele>576</ele>
        <time>2022-09-08T12:58:10Z</time>
      </trkpt>
      <trkpt lat="45.4462" lon="4.33675">
        <ele>575</ele>
        <time>2022-09-08T12:58:13Z</time>
      </trkpt>
      <trkpt lat="45.4462" lon="4.33747">
        <ele>571</ele>
        <time>2022-09-08T12:58:22Z</time>
      </trkpt>
      <trkpt lat="45.44622" lon="4.3377">
        <ele>569</ele>
        <time>2022-09-08T12:58:25Z</time>
      </trkpt>
      <trkpt lat="45.44616" lon="4.33829">
        <ele>563</ele>
        <time>2022-09-08T12:58:33Z</time>
      </trkpt>
      <trkpt lat="45.44608" lon="4.33865">
        <ele>560</ele>
        <time>2022-09-08T12:58:37Z</time>
      </trkpt>
      <trkpt lat="45.44591" lon="4.33897">
        <ele>558</ele>
        <time>2022-09-08T12:58:42Z</time>
      </trkpt>
      <trkpt lat="45.44528" lon="4.33948">
        <ele>563</ele>
        <time>2022-09-08T12:58:55Z</time>
      </trkpt>
      <trkpt lat="45.44524" lon="4.33961">
        <ele>562</ele>
        <time>2022-09-08T12:58:57Z</time>
      </trkpt>
      <trkpt lat="45.44523" lon="4.33976">
        <ele>560</ele>
        <time>2022-09-08T12:58:59Z</time>
      </trkpt>
      <trkpt lat="45.44542" lon="4.34022">
        <ele>552</ele>
        <time>2022-09-08T12:59:06Z</time>
      </trkpt>
      <trkpt lat="45.44547" lon="4.34041">
        <ele>548</ele>
        <time>2022-09-08T12:59:08Z</time>
      </trkpt>
      <trkpt lat="45.44545" lon="4.34061">
        <ele>547</ele>
        <time>2022-09-08T12:59:11Z</time>
      </trkpt>
      <trkpt lat="45.44527" lon="4.34135">
        <ele>543</ele>
        <time>2022-09-08T12:59:21Z</time>
      </trkpt>
      <trkpt lat="45.44518" lon="4.34213">
        <ele>536</ele>
        <time>2022-09-08T12:59:30Z</time>
      </trkpt>
      <trkpt lat="45.44519" lon="4.34222">
        <ele>535</ele>
        <time>2022-09-08T12:59:32Z</time>
      </trkpt>
      <trkpt lat="45.44526" lon="4.34224">
        <ele>533</ele>
        <time>2022-09-08T12:59:33Z</time>
      </trkpt>
      <trkpt lat="45.44532" lon="4.3422">
        <ele>532</ele>
        <time>2022-09-08T12:59:34Z</time>
      </trkpt>
      <trkpt lat="45.44573" lon="4.34148">
        <ele>532</ele>
        <time>2022-09-08T12:59:46Z</time>
      </trkpt>
      <trkpt lat="45.44588" lon="4.34129">
        <ele>531</ele>
        <time>2022-09-08T12:59:49Z</time>
      </trkpt>
      <trkpt lat="45.446" lon="4.34122">
        <ele>530</ele>
        <time>2022-09-08T12:59:51Z</time>
      </trkpt>
      <trkpt lat="45.44621" lon="4.34116">
        <ele>528</ele>
        <time>2022-09-08T12:59:55Z</time>
      </trkpt>
      <trkpt lat="45.4463" lon="4.34117">
        <ele>527</ele>
        <time>2022-09-08T12:59:57Z</time>
      </trkpt>
      <trkpt lat="45.44635" lon="4.34122">
        <ele>526</ele>
        <time>2022-09-08T12:59:58Z</time>
      </trkpt>
      <trkpt lat="45.44638" lon="4.3413">
        <ele>525</ele>
        <time>2022-09-08T12:59:59Z</time>
      </trkpt>
      <trkpt lat="45.44638" lon="4.34141">
        <ele>524</ele>
        <time>2022-09-08T13:00:00Z</time>
      </trkpt>
      <trkpt lat="45.4463" lon="4.34167">
        <ele>522</ele>
        <time>2022-09-08T13:00:04Z</time>
      </trkpt>
      <trkpt lat="45.44549" lon="4.34375">
        <ele>504</ele>
        <time>2022-09-08T13:00:34Z</time>
      </trkpt>
      <trkpt lat="45.4452" lon="4.34406">
        <ele>502</ele>
        <time>2022-09-08T13:00:40Z</time>
      </trkpt>
      <trkpt lat="45.44503" lon="4.34432">
        <ele>499</ele>
        <time>2022-09-08T13:00:45Z</time>
      </trkpt>
      <trkpt lat="45.44463" lon="4.34564">
        <ele>489</ele>
        <time>2022-09-08T13:01:03Z</time>
      </trkpt>
      <trkpt lat="45.44459" lon="4.34612">
        <ele>486</ele>
        <time>2022-09-08T13:01:09Z</time>
      </trkpt>
      <trkpt lat="45.44462" lon="4.34744">
        <ele>482</ele>
        <time>2022-09-08T13:01:25Z</time>
      </trkpt>
      <trkpt lat="45.44473" lon="4.34838">
        <ele>484</ele>
        <time>2022-09-08T13:01:37Z</time>
      </trkpt>
      <trkpt lat="45.44496" lon="4.34973">
        <ele>492</ele>
        <time>2022-09-08T13:01:54Z</time>
      </trkpt>
      <trkpt lat="45.44499" lon="4.34981">
        <ele>493</ele>
        <time>2022-09-08T13:01:55Z</time>
      </trkpt>
      <trkpt lat="45.44489" lon="4.34988">
        <ele>493</ele>
        <time>2022-09-08T13:01:57Z</time>
      </trkpt>
      <trkpt lat="45.44499" lon="4.34981">
        <ele>493</ele>
        <time>2022-09-08T13:01:59Z</time>
      </trkpt>
      <trkpt lat="45.44509" lon="4.34985">
        <ele>494</ele>
        <time>2022-09-08T13:02:01Z</time>
      </trkpt>
      <trkpt lat="45.44574" lon="4.34952">
        <ele>496</ele>
        <time>2022-09-08T13:02:14Z</time>
      </trkpt>
      <trkpt lat="45.44592" lon="4.34946">
        <ele>497</ele>
        <time>2022-09-08T13:02:17Z</time>
      </trkpt>
      <trkpt lat="45.44703" lon="4.34922">
        <ele>506</ele>
        <time>2022-09-08T13:02:37Z</time>
      </trkpt>
      <trkpt lat="45.44738" lon="4.3493">
        <ele>509</ele>
        <time>2022-09-08T13:02:43Z</time>
      </trkpt>
      <trkpt lat="45.44759" lon="4.34925">
        <ele>509</ele>
        <time>2022-09-08T13:02:47Z</time>
      </trkpt>
      <trkpt lat="45.4484" lon="4.34882">
        <ele>504</ele>
        <time>2022-09-08T13:03:02Z</time>
      </trkpt>
      <trkpt lat="45.44858" lon="4.34877">
        <ele>504</ele>
        <time>2022-09-08T13:03:06Z</time>
      </trkpt>
      <trkpt lat="45.44874" lon="4.34876">
        <ele>505</ele>
        <time>2022-09-08T13:03:08Z</time>
      </trkpt>
      <trkpt lat="45.44916" lon="4.34879">
        <ele>508</ele>
        <time>2022-09-08T13:03:16Z</time>
      </trkpt>
      <trkpt lat="45.44932" lon="4.34872">
        <ele>510</ele>
        <time>2022-09-08T13:03:19Z</time>
      </trkpt>
      <trkpt lat="45.44946" lon="4.34853">
        <ele>510</ele>
        <time>2022-09-08T13:03:22Z</time>
      </trkpt>
      <trkpt lat="45.44959" lon="4.34812">
        <ele>507</ele>
        <time>2022-09-08T13:03:28Z</time>
      </trkpt>
      <trkpt lat="45.44989" lon="4.34745">
        <ele>506</ele>
        <time>2022-09-08T13:03:38Z</time>
      </trkpt>
      <trkpt lat="45.45054" lon="4.34559">
        <ele>490</ele>
        <time>2022-09-08T13:04:04Z</time>
      </trkpt>
      <trkpt lat="45.45064" lon="4.34539">
        <ele>488</ele>
        <time>2022-09-08T13:04:07Z</time>
      </trkpt>
      <trkpt lat="45.45105" lon="4.34487">
        <ele>484</ele>
        <time>2022-09-08T13:04:17Z</time>
      </trkpt>
      <trkpt lat="45.45223" lon="4.34327">
        <ele>474</ele>
        <time>2022-09-08T13:04:46Z</time>
      </trkpt>
      <trkpt lat="45.45236" lon="4.34313">
        <ele>474</ele>
        <time>2022-09-08T13:04:48Z</time>
      </trkpt>
      <trkpt lat="45.45314" lon="4.34256">
        <ele>475</ele>
        <time>2022-09-08T13:05:04Z</time>
      </trkpt>
      <trkpt lat="45.45394" lon="4.34205">
        <ele>475</ele>
        <time>2022-09-08T13:05:20Z</time>
      </trkpt>
      <trkpt lat="45.45421" lon="4.34193">
        <ele>474</ele>
        <time>2022-09-08T13:05:25Z</time>
      </trkpt>
      <trkpt lat="45.45508" lon="4.34171">
        <ele>471</ele>
        <time>2022-09-08T13:05:40Z</time>
      </trkpt>
      <trkpt lat="45.45527" lon="4.34168">
        <ele>470</ele>
        <time>2022-09-08T13:05:44Z</time>
      </trkpt>
      <trkpt lat="45.45545" lon="4.34171">
        <ele>470</ele>
        <time>2022-09-08T13:05:47Z</time>
      </trkpt>
      <trkpt lat="45.45577" lon="4.34188">
        <ele>470</ele>
        <time>2022-09-08T13:05:53Z</time>
      </trkpt>
      <trkpt lat="45.45663" lon="4.34253">
        <ele>469</ele>
        <time>2022-09-08T13:06:10Z</time>
      </trkpt>
      <trkpt lat="45.45692" lon="4.34269">
        <ele>469</ele>
        <time>2022-09-08T13:06:16Z</time>
      </trkpt>
      <trkpt lat="45.45799" lon="4.34306">
        <ele>468</ele>
        <time>2022-09-08T13:06:36Z</time>
      </trkpt>
      <trkpt lat="45.45845" lon="4.34319">
        <ele>467</ele>
        <time>2022-09-08T13:06:44Z</time>
      </trkpt>
      <trkpt lat="45.45867" lon="4.34321">
        <ele>468</ele>
        <time>2022-09-08T13:06:48Z</time>
      </trkpt>
      <trkpt lat="45.45885" lon="4.3432">
        <ele>468</ele>
        <time>2022-09-08T13:06:51Z</time>
      </trkpt>
      <trkpt lat="45.45911" lon="4.34313">
        <ele>468</ele>
        <time>2022-09-08T13:06:56Z</time>
      </trkpt>
      <trkpt lat="45.45931" lon="4.34303">
        <ele>469</ele>
        <time>2022-09-08T13:06:59Z</time>
      </trkpt>
      <trkpt lat="45.45964" lon="4.34275">
        <ele>471</ele>
        <time>2022-09-08T13:07:06Z</time>
      </trkpt>
      <trkpt lat="45.45983" lon="4.34263">
        <ele>471</ele>
        <time>2022-09-08T13:07:10Z</time>
      </trkpt>
      <trkpt lat="45.46004" lon="4.34254">
        <ele>472</ele>
        <time>2022-09-08T13:07:14Z</time>
      </trkpt>
      <trkpt lat="45.46028" lon="4.34247">
        <ele>473</ele>
        <time>2022-09-08T13:07:18Z</time>
      </trkpt>
      <trkpt lat="45.46077" lon="4.34245">
        <ele>476</ele>
        <time>2022-09-08T13:07:27Z</time>
      </trkpt>
      <trkpt lat="45.46231" lon="4.34214">
        <ele>485</ele>
        <time>2022-09-08T13:07:55Z</time>
      </trkpt>
      <trkpt lat="45.46292" lon="4.3417">
        <ele>483</ele>
        <time>2022-09-08T13:08:07Z</time>
      </trkpt>
      <trkpt lat="45.46298" lon="4.34171">
        <ele>484</ele>
        <time>2022-09-08T13:08:08Z</time>
      </trkpt>
      <trkpt lat="45.46304" lon="4.34177">
        <ele>485</ele>
        <time>2022-09-08T13:08:09Z</time>
      </trkpt>
      <trkpt lat="45.46305" lon="4.34194">
        <ele>487</ele>
        <time>2022-09-08T13:08:11Z</time>
      </trkpt>
      <trkpt lat="45.46301" lon="4.34228">
        <ele>491</ele>
        <time>2022-09-08T13:08:16Z</time>
      </trkpt>
      <trkpt lat="45.46306" lon="4.34244">
        <ele>493</ele>
        <time>2022-09-08T13:08:18Z</time>
      </trkpt>
      <trkpt lat="45.46334" lon="4.34297">
        <ele>496</ele>
        <time>2022-09-08T13:08:26Z</time>
      </trkpt>
      <trkpt lat="45.46339" lon="4.34312">
        <ele>497</ele>
        <time>2022-09-08T13:08:28Z</time>
      </trkpt>
      <trkpt lat="45.46342" lon="4.34343">
        <ele>497</ele>
        <time>2022-09-08T13:08:32Z</time>
      </trkpt>
      <trkpt lat="45.46341" lon="4.34399">
        <ele>495</ele>
        <time>2022-09-08T13:08:39Z</time>
      </trkpt>
      <trkpt lat="45.46344" lon="4.34417">
        <ele>494</ele>
        <time>2022-09-08T13:08:41Z</time>
      </trkpt>
      <trkpt lat="45.46351" lon="4.34436">
        <ele>493</ele>
        <time>2022-09-08T13:08:44Z</time>
      </trkpt>
      <trkpt lat="45.46361" lon="4.34447">
        <ele>492</ele>
        <time>2022-09-08T13:08:46Z</time>
      </trkpt>
      <trkpt lat="45.46391" lon="4.34465">
        <ele>490</ele>
        <time>2022-09-08T13:08:52Z</time>
      </trkpt>
      <trkpt lat="45.46398" lon="4.34474">
        <ele>490</ele>
        <time>2022-09-08T13:08:54Z</time>
      </trkpt>
      <trkpt lat="45.46401" lon="4.34492">
        <ele>489</ele>
        <time>2022-09-08T13:08:56Z</time>
      </trkpt>
      <trkpt lat="45.46388" lon="4.34566">
        <ele>486</ele>
        <time>2022-09-08T13:09:06Z</time>
      </trkpt>
      <trkpt lat="45.46388" lon="4.34585">
        <ele>485</ele>
        <time>2022-09-08T13:09:08Z</time>
      </trkpt>
      <trkpt lat="45.46396" lon="4.34604">
        <ele>484</ele>
        <time>2022-09-08T13:09:11Z</time>
      </trkpt>
      <trkpt lat="45.46417" lon="4.3464">
        <ele>482</ele>
        <time>2022-09-08T13:09:17Z</time>
      </trkpt>
      <trkpt lat="45.46453" lon="4.34677">
        <ele>480</ele>
        <time>2022-09-08T13:09:24Z</time>
      </trkpt>
      <trkpt lat="45.46465" lon="4.34692">
        <ele>480</ele>
        <time>2022-09-08T13:09:27Z</time>
      </trkpt>
      <trkpt lat="45.46482" lon="4.3472">
        <ele>481</ele>
        <time>2022-09-08T13:09:32Z</time>
      </trkpt>
      <trkpt lat="45.46509" lon="4.34747">
        <ele>481</ele>
        <time>2022-09-08T13:09:38Z</time>
      </trkpt>
      <trkpt lat="45.46521" lon="4.34768">
        <ele>482</ele>
        <time>2022-09-08T13:09:41Z</time>
      </trkpt>
      <trkpt lat="45.46556" lon="4.34867">
        <ele>482</ele>
        <time>2022-09-08T13:09:55Z</time>
      </trkpt>
      <trkpt lat="45.4665" lon="4.35065">
        <ele>473</ele>
        <time>2022-09-08T13:10:25Z</time>
      </trkpt>
      <trkpt lat="45.46659" lon="4.35099">
        <ele>475</ele>
        <time>2022-09-08T13:10:29Z</time>
      </trkpt>
      <trkpt lat="45.46666" lon="4.35167">
        <ele>481</ele>
        <time>2022-09-08T13:10:38Z</time>
      </trkpt>
      <trkpt lat="45.46673" lon="4.35187">
        <ele>482</ele>
        <time>2022-09-08T13:10:41Z</time>
      </trkpt>
      <trkpt lat="45.46688" lon="4.35207">
        <ele>482</ele>
        <time>2022-09-08T13:10:44Z</time>
      </trkpt>
      <trkpt lat="45.46746" lon="4.35225">
        <ele>480</ele>
        <time>2022-09-08T13:10:55Z</time>
      </trkpt>
      <trkpt lat="45.46766" lon="4.35235">
        <ele>480</ele>
        <time>2022-09-08T13:10:59Z</time>
      </trkpt>
      <trkpt lat="45.4681" lon="4.35263">
        <ele>478</ele>
        <time>2022-09-08T13:11:07Z</time>
      </trkpt>
      <trkpt lat="45.46824" lon="4.35284">
        <ele>477</ele>
        <time>2022-09-08T13:11:11Z</time>
      </trkpt>
      <trkpt lat="45.46836" lon="4.35338">
        <ele>475</ele>
        <time>2022-09-08T13:11:18Z</time>
      </trkpt>
      <trkpt lat="45.46845" lon="4.35353">
        <ele>474</ele>
        <time>2022-09-08T13:11:20Z</time>
      </trkpt>
      <trkpt lat="45.46851" lon="4.35359">
        <ele>473</ele>
        <time>2022-09-08T13:11:22Z</time>
      </trkpt>
      <trkpt lat="45.46897" lon="4.35365">
        <ele>471</ele>
        <time>2022-09-08T13:11:30Z</time>
        <extensions>
          <visugpx:TrkExtension xmlns:visugpx="https://www.visugpx.com/editgpx/">
            <visugpx:node>1</visugpx:node>
            </visugpx:TrkExtension>
        </extensions>
      </trkpt>
    </trkseg>
  </trk>
</gpx>